<?xml version="1.0" encoding="UTF-8" standalone="no" ?>
<gpx xmlns="http://www.topografix.com/GPX/1/1" xmlns:xsi="http://www.w3.org/2001/XMLSchema-instance" xsi:schemaLocation="http://www.topografix.com/GPX/1/1 http://www.topografix.com/GPX/1/1/gpx.xsd" version="1.1" creator="VisuGPX - https://www.visugpx.com">
  <metadata>
    <name>combe marion et coillu bordel </name>
    <desc><![CDATA[ski de la combe marion vers le coillu aller et retour]]></desc>
  </metadata>
  <wpt lat="46.17959" lon="5.91672">
    <ele>494.96</ele>
    <name><![CDATA[001]]></name>
  </wpt>
  <wpt lat="45.96373" lon="6.77729">
    <ele>1768.94</ele>
    <name><![CDATA[002]]></name>
  </wpt>
  <wpt lat="45.92289" lon="6.48432">
    <ele>1547.84</ele>
    <name><![CDATA[003]]></name>
  </wpt>
  <wpt lat="45.92679" lon="6.51817">
    <ele>2077.52</ele>
    <name><![CDATA[004]]></name>
  </wpt>
  <wpt lat="46.17998" lon="5.91662">
    <ele>426.23</ele>
    <name><![CDATA[005]]></name>
  </wpt>
  <wpt lat="46.17981" lon="5.91659">
    <ele>599.98</ele>
    <name><![CDATA[006]]></name>
  </wpt>
  <wpt lat="46.25476" lon="5.92722">
    <ele>1635.8</ele>
    <name><![CDATA[007]]></name>
  </wpt>
  <wpt lat="46.25699" lon="5.92978">
    <ele>1441.61</ele>
    <name><![CDATA[008]]></name>
  </wpt>
  <trk>
    <name><![CDATA[ACTIVE LOG: 23 JAN 2010 08:26]]></name>
    <trkseg>
      <trkpt lat="45.87296" lon="6.46321">
        <ele>1442.6</ele>
        <time>2010-01-23T07:26:06Z</time>
      </trkpt>
      <trkpt lat="45.87296" lon="6.46321">
        <ele>1446.44</ele>
        <time>2010-01-23T07:26:11Z</time>
      </trkpt>
      <trkpt lat="45.87296" lon="6.46321">
        <ele>1441.15</ele>
        <time>2010-01-23T07:26:15Z</time>
      </trkpt>
      <trkpt lat="45.87295" lon="6.4632">
        <ele>1438.27</ele>
        <time>2010-01-23T07:26:18Z</time>
      </trkpt>
      <trkpt lat="45.87295" lon="6.46321">
        <ele>1442.6</ele>
        <time>2010-01-23T07:26:21Z</time>
      </trkpt>
      <trkpt lat="45.87295" lon="6.46321">
        <ele>1441.63</ele>
        <time>2010-01-23T07:26:22Z</time>
      </trkpt>
      <trkpt lat="45.87295" lon="6.46321">
        <ele>1445</ele>
        <time>2010-01-23T07:26:23Z</time>
      </trkpt>
      <trkpt lat="45.87295" lon="6.46321">
        <ele>1444.52</ele>
        <time>2010-01-23T07:26:24Z</time>
      </trkpt>
      <trkpt lat="45.87295" lon="6.46321">
        <ele>1441.15</ele>
        <time>2010-01-23T07:26:26Z</time>
      </trkpt>
      <trkpt lat="45.87298" lon="6.4632">
        <ele>1444.04</ele>
        <time>2010-01-23T07:26:34Z</time>
      </trkpt>
      <trkpt lat="45.87298" lon="6.4632">
        <ele>1443.56</ele>
        <time>2010-01-23T07:26:35Z</time>
      </trkpt>
      <trkpt lat="45.87299" lon="6.46323">
        <ele>1442.6</ele>
        <time>2010-01-23T07:26:43Z</time>
      </trkpt>
      <trkpt lat="45.87299" lon="6.46322">
        <ele>1443.56</ele>
        <time>2010-01-23T07:26:58Z</time>
      </trkpt>
      <trkpt lat="45.87298" lon="6.46321">
        <ele>1444.04</ele>
        <time>2010-01-23T07:27:39Z</time>
      </trkpt>
      <trkpt lat="45.87298" lon="6.4632">
        <ele>1447.88</ele>
        <time>2010-01-23T07:27:44Z</time>
      </trkpt>
      <trkpt lat="45.87298" lon="6.4632">
        <ele>1441.63</ele>
        <time>2010-01-23T07:27:45Z</time>
      </trkpt>
      <trkpt lat="45.87298" lon="6.46321">
        <ele>1442.11</ele>
        <time>2010-01-23T07:27:46Z</time>
      </trkpt>
      <trkpt lat="45.87297" lon="6.46321">
        <ele>1445.48</ele>
        <time>2010-01-23T07:27:47Z</time>
      </trkpt>
      <trkpt lat="45.87297" lon="6.4632">
        <ele>1443.56</ele>
        <time>2010-01-23T07:27:48Z</time>
      </trkpt>
      <trkpt lat="45.87296" lon="6.4632">
        <ele>1445.96</ele>
        <time>2010-01-23T07:27:55Z</time>
      </trkpt>
      <trkpt lat="45.87296" lon="6.4632">
        <ele>1442.11</ele>
        <time>2010-01-23T07:27:56Z</time>
      </trkpt>
      <trkpt lat="45.87296" lon="6.4632">
        <ele>1445.48</ele>
        <time>2010-01-23T07:27:57Z</time>
      </trkpt>
      <trkpt lat="45.87297" lon="6.4632">
        <ele>1441.63</ele>
        <time>2010-01-23T07:28:01Z</time>
      </trkpt>
      <trkpt lat="45.87297" lon="6.4632">
        <ele>1442.6</ele>
        <time>2010-01-23T07:28:02Z</time>
      </trkpt>
      <trkpt lat="45.87298" lon="6.4632">
        <ele>1442.6</ele>
        <time>2010-01-23T07:28:15Z</time>
      </trkpt>
      <trkpt lat="45.87298" lon="6.46319">
        <ele>1447.4</ele>
        <time>2010-01-23T07:28:16Z</time>
      </trkpt>
      <trkpt lat="45.87299" lon="6.46319">
        <ele>1444.04</ele>
        <time>2010-01-23T07:28:17Z</time>
      </trkpt>
      <trkpt lat="45.87298" lon="6.46319">
        <ele>1448.84</ele>
        <time>2010-01-23T07:28:24Z</time>
      </trkpt>
      <trkpt lat="45.87298" lon="6.46319">
        <ele>1445.48</ele>
        <time>2010-01-23T07:28:25Z</time>
      </trkpt>
      <trkpt lat="45.87297" lon="6.46319">
        <ele>1445</ele>
        <time>2010-01-23T07:28:32Z</time>
      </trkpt>
      <trkpt lat="45.87297" lon="6.46319">
        <ele>1443.56</ele>
        <time>2010-01-23T07:28:36Z</time>
      </trkpt>
      <trkpt lat="45.87297" lon="6.46319">
        <ele>1446.92</ele>
        <time>2010-01-23T07:28:38Z</time>
      </trkpt>
      <trkpt lat="45.87297" lon="6.46319">
        <ele>1443.08</ele>
        <time>2010-01-23T07:28:47Z</time>
      </trkpt>
      <trkpt lat="45.87297" lon="6.46319">
        <ele>1447.88</ele>
        <time>2010-01-23T07:28:52Z</time>
      </trkpt>
      <trkpt lat="45.87297" lon="6.46319">
        <ele>1442.6</ele>
        <time>2010-01-23T07:28:54Z</time>
      </trkpt>
      <trkpt lat="45.87297" lon="6.46319">
        <ele>1446.92</ele>
        <time>2010-01-23T07:28:55Z</time>
      </trkpt>
      <trkpt lat="45.87297" lon="6.46319">
        <ele>1442.6</ele>
        <time>2010-01-23T07:28:57Z</time>
      </trkpt>
      <trkpt lat="45.87297" lon="6.46319">
        <ele>1445.96</ele>
        <time>2010-01-23T07:28:58Z</time>
      </trkpt>
      <trkpt lat="45.87297" lon="6.46319">
        <ele>1446.44</ele>
        <time>2010-01-23T07:29:06Z</time>
      </trkpt>
      <trkpt lat="45.87297" lon="6.46319">
        <ele>1443.08</ele>
        <time>2010-01-23T07:29:11Z</time>
      </trkpt>
      <trkpt lat="45.87297" lon="6.46319">
        <ele>1447.88</ele>
        <time>2010-01-23T07:29:14Z</time>
      </trkpt>
      <trkpt lat="45.87297" lon="6.46318">
        <ele>1443.56</ele>
        <time>2010-01-23T07:29:18Z</time>
      </trkpt>
      <trkpt lat="45.87297" lon="6.46318">
        <ele>1446.44</ele>
        <time>2010-01-23T07:29:19Z</time>
      </trkpt>
      <trkpt lat="45.87297" lon="6.46318">
        <ele>1447.4</ele>
        <time>2010-01-23T07:29:23Z</time>
      </trkpt>
      <trkpt lat="45.87297" lon="6.46318">
        <ele>1442.11</ele>
        <time>2010-01-23T07:29:30Z</time>
      </trkpt>
      <trkpt lat="45.87297" lon="6.46318">
        <ele>1446.44</ele>
        <time>2010-01-23T07:29:31Z</time>
      </trkpt>
      <trkpt lat="45.87295" lon="6.46318">
        <ele>1442.6</ele>
        <time>2010-01-23T07:29:33Z</time>
      </trkpt>
      <trkpt lat="45.87295" lon="6.46318">
        <ele>1446.92</ele>
        <time>2010-01-23T07:29:34Z</time>
      </trkpt>
      <trkpt lat="45.87294" lon="6.46318">
        <ele>1447.4</ele>
        <time>2010-01-23T07:29:35Z</time>
      </trkpt>
      <trkpt lat="45.87294" lon="6.46318">
        <ele>1442.6</ele>
        <time>2010-01-23T07:29:38Z</time>
      </trkpt>
      <trkpt lat="45.87294" lon="6.46319">
        <ele>1445.96</ele>
        <time>2010-01-23T07:29:39Z</time>
      </trkpt>
      <trkpt lat="45.87294" lon="6.46321">
        <ele>1449.81</ele>
        <time>2010-01-23T07:29:45Z</time>
      </trkpt>
      <trkpt lat="45.87294" lon="6.46321">
        <ele>1445.48</ele>
        <time>2010-01-23T07:29:48Z</time>
      </trkpt>
      <trkpt lat="45.87294" lon="6.46321">
        <ele>1449.81</ele>
        <time>2010-01-23T07:29:50Z</time>
      </trkpt>
      <trkpt lat="45.87294" lon="6.46321">
        <ele>1448.36</ele>
        <time>2010-01-23T07:29:51Z</time>
      </trkpt>
      <trkpt lat="45.87294" lon="6.46321">
        <ele>1446.92</ele>
        <time>2010-01-23T07:29:53Z</time>
      </trkpt>
      <trkpt lat="45.87293" lon="6.46322">
        <ele>1441.63</ele>
        <time>2010-01-23T07:29:56Z</time>
      </trkpt>
      <trkpt lat="45.87293" lon="6.46322">
        <ele>1443.56</ele>
        <time>2010-01-23T07:29:57Z</time>
      </trkpt>
      <trkpt lat="45.87294" lon="6.46322">
        <ele>1448.36</ele>
        <time>2010-01-23T07:29:58Z</time>
      </trkpt>
      <trkpt lat="45.87294" lon="6.46322">
        <ele>1445.96</ele>
        <time>2010-01-23T07:29:59Z</time>
      </trkpt>
      <trkpt lat="45.87294" lon="6.4632">
        <ele>1448.36</ele>
        <time>2010-01-23T07:30:05Z</time>
      </trkpt>
      <trkpt lat="45.87293" lon="6.46319">
        <ele>1442.6</ele>
        <time>2010-01-23T07:30:08Z</time>
      </trkpt>
      <trkpt lat="45.87293" lon="6.46318">
        <ele>1446.92</ele>
        <time>2010-01-23T07:30:09Z</time>
      </trkpt>
      <trkpt lat="45.87295" lon="6.46317">
        <ele>1445.96</ele>
        <time>2010-01-23T07:30:18Z</time>
      </trkpt>
      <trkpt lat="45.87295" lon="6.46317">
        <ele>1448.84</ele>
        <time>2010-01-23T07:30:25Z</time>
      </trkpt>
      <trkpt lat="45.87295" lon="6.46317">
        <ele>1448.84</ele>
        <time>2010-01-23T07:30:26Z</time>
      </trkpt>
      <trkpt lat="45.87295" lon="6.46317">
        <ele>1444.52</ele>
        <time>2010-01-23T07:30:32Z</time>
      </trkpt>
      <trkpt lat="45.87295" lon="6.46317">
        <ele>1448.84</ele>
        <time>2010-01-23T07:30:33Z</time>
      </trkpt>
      <trkpt lat="45.87295" lon="6.46317">
        <ele>1446.92</ele>
        <time>2010-01-23T07:30:41Z</time>
      </trkpt>
      <trkpt lat="45.87295" lon="6.46317">
        <ele>1447.88</ele>
        <time>2010-01-23T07:30:43Z</time>
      </trkpt>
      <trkpt lat="45.87293" lon="6.46315">
        <ele>1451.25</ele>
        <time>2010-01-23T07:30:51Z</time>
      </trkpt>
      <trkpt lat="45.87293" lon="6.46315">
        <ele>1449.81</ele>
        <time>2010-01-23T07:30:52Z</time>
      </trkpt>
      <trkpt lat="45.87292" lon="6.46315">
        <ele>1444.04</ele>
        <time>2010-01-23T07:30:54Z</time>
      </trkpt>
      <trkpt lat="45.87292" lon="6.46315">
        <ele>1451.73</ele>
        <time>2010-01-23T07:30:55Z</time>
      </trkpt>
      <trkpt lat="45.87292" lon="6.46315">
        <ele>1445.48</ele>
        <time>2010-01-23T07:30:56Z</time>
      </trkpt>
      <trkpt lat="45.87292" lon="6.46315">
        <ele>1449.81</ele>
        <time>2010-01-23T07:30:57Z</time>
      </trkpt>
      <trkpt lat="45.87292" lon="6.46315">
        <ele>1453.17</ele>
        <time>2010-01-23T07:30:58Z</time>
      </trkpt>
      <trkpt lat="45.87292" lon="6.46316">
        <ele>1445.96</ele>
        <time>2010-01-23T07:30:59Z</time>
      </trkpt>
      <trkpt lat="45.87292" lon="6.46316">
        <ele>1453.17</ele>
        <time>2010-01-23T07:31:00Z</time>
      </trkpt>
      <trkpt lat="45.87292" lon="6.46316">
        <ele>1448.36</ele>
        <time>2010-01-23T07:31:01Z</time>
      </trkpt>
      <trkpt lat="45.87293" lon="6.46314">
        <ele>1450.77</ele>
        <time>2010-01-23T07:31:18Z</time>
      </trkpt>
      <trkpt lat="45.87293" lon="6.46315">
        <ele>1446.92</ele>
        <time>2010-01-23T07:31:20Z</time>
      </trkpt>
      <trkpt lat="45.87293" lon="6.46315">
        <ele>1447.4</ele>
        <time>2010-01-23T07:31:21Z</time>
      </trkpt>
      <trkpt lat="45.87293" lon="6.46315">
        <ele>1451.25</ele>
        <time>2010-01-23T07:31:22Z</time>
      </trkpt>
      <trkpt lat="45.87293" lon="6.46314">
        <ele>1447.88</ele>
        <time>2010-01-23T07:31:32Z</time>
      </trkpt>
      <trkpt lat="45.87293" lon="6.46314">
        <ele>1449.32</ele>
        <time>2010-01-23T07:31:33Z</time>
      </trkpt>
      <trkpt lat="45.87293" lon="6.46315">
        <ele>1453.65</ele>
        <time>2010-01-23T07:31:41Z</time>
      </trkpt>
      <trkpt lat="45.87293" lon="6.46314">
        <ele>1453.17</ele>
        <time>2010-01-23T07:31:42Z</time>
      </trkpt>
      <trkpt lat="45.87292" lon="6.46314">
        <ele>1449.32</ele>
        <time>2010-01-23T07:31:47Z</time>
      </trkpt>
      <trkpt lat="45.87292" lon="6.46314">
        <ele>1451.73</ele>
        <time>2010-01-23T07:31:49Z</time>
      </trkpt>
      <trkpt lat="45.87292" lon="6.46314">
        <ele>1450.29</ele>
        <time>2010-01-23T07:31:51Z</time>
      </trkpt>
      <trkpt lat="45.87291" lon="6.46315">
        <ele>1453.17</ele>
        <time>2010-01-23T07:32:03Z</time>
      </trkpt>
      <trkpt lat="45.87291" lon="6.46315">
        <ele>1449.81</ele>
        <time>2010-01-23T07:32:06Z</time>
      </trkpt>
      <trkpt lat="45.87291" lon="6.46314">
        <ele>1454.13</ele>
        <time>2010-01-23T07:32:10Z</time>
      </trkpt>
      <trkpt lat="45.87291" lon="6.46314">
        <ele>1450.77</ele>
        <time>2010-01-23T07:32:11Z</time>
      </trkpt>
      <trkpt lat="45.87291" lon="6.46314">
        <ele>1454.13</ele>
        <time>2010-01-23T07:32:17Z</time>
      </trkpt>
      <trkpt lat="45.87291" lon="6.46314">
        <ele>1450.77</ele>
        <time>2010-01-23T07:32:22Z</time>
      </trkpt>
      <trkpt lat="45.87291" lon="6.46314">
        <ele>1455.09</ele>
        <time>2010-01-23T07:32:23Z</time>
      </trkpt>
      <trkpt lat="45.87291" lon="6.46314">
        <ele>1450.77</ele>
        <time>2010-01-23T07:32:24Z</time>
      </trkpt>
      <trkpt lat="45.87291" lon="6.46314">
        <ele>1453.65</ele>
        <time>2010-01-23T07:32:38Z</time>
      </trkpt>
      <trkpt lat="45.87291" lon="6.46314">
        <ele>1449.81</ele>
        <time>2010-01-23T07:32:39Z</time>
      </trkpt>
      <trkpt lat="45.87291" lon="6.46314">
        <ele>1449.81</ele>
        <time>2010-01-23T07:32:40Z</time>
      </trkpt>
      <trkpt lat="45.87291" lon="6.46314">
        <ele>1455.09</ele>
        <time>2010-01-23T07:32:41Z</time>
      </trkpt>
      <trkpt lat="45.87291" lon="6.46314">
        <ele>1451.73</ele>
        <time>2010-01-23T07:32:42Z</time>
      </trkpt>
      <trkpt lat="45.87291" lon="6.46314">
        <ele>1455.09</ele>
        <time>2010-01-23T07:32:46Z</time>
      </trkpt>
      <trkpt lat="45.87291" lon="6.46314">
        <ele>1451.73</ele>
        <time>2010-01-23T07:32:47Z</time>
      </trkpt>
      <trkpt lat="45.87291" lon="6.46314">
        <ele>1452.21</ele>
        <time>2010-01-23T07:32:48Z</time>
      </trkpt>
      <trkpt lat="45.87291" lon="6.46314">
        <ele>1456.53</ele>
        <time>2010-01-23T07:32:56Z</time>
      </trkpt>
      <trkpt lat="45.87291" lon="6.46314">
        <ele>1451.25</ele>
        <time>2010-01-23T07:32:57Z</time>
      </trkpt>
      <trkpt lat="45.87291" lon="6.46314">
        <ele>1454.61</ele>
        <time>2010-01-23T07:33:03Z</time>
      </trkpt>
      <trkpt lat="45.87291" lon="6.46314">
        <ele>1451.25</ele>
        <time>2010-01-23T07:33:06Z</time>
      </trkpt>
      <trkpt lat="45.87291" lon="6.46314">
        <ele>1455.09</ele>
        <time>2010-01-23T07:33:12Z</time>
      </trkpt>
      <trkpt lat="45.87291" lon="6.46314">
        <ele>1451.25</ele>
        <time>2010-01-23T07:33:22Z</time>
      </trkpt>
      <trkpt lat="45.87291" lon="6.46314">
        <ele>1452.69</ele>
        <time>2010-01-23T07:33:23Z</time>
      </trkpt>
      <trkpt lat="45.87291" lon="6.46314">
        <ele>1455.57</ele>
        <time>2010-01-23T07:33:38Z</time>
      </trkpt>
      <trkpt lat="45.87291" lon="6.46314">
        <ele>1451.73</ele>
        <time>2010-01-23T07:33:39Z</time>
      </trkpt>
      <trkpt lat="45.87291" lon="6.46314">
        <ele>1455.09</ele>
        <time>2010-01-23T07:33:41Z</time>
      </trkpt>
      <trkpt lat="45.87291" lon="6.46314">
        <ele>1456.53</ele>
        <time>2010-01-23T07:33:45Z</time>
      </trkpt>
      <trkpt lat="45.87291" lon="6.46314">
        <ele>1453.65</ele>
        <time>2010-01-23T07:33:47Z</time>
      </trkpt>
      <trkpt lat="45.87291" lon="6.46314">
        <ele>1457.5</ele>
        <time>2010-01-23T07:33:49Z</time>
      </trkpt>
      <trkpt lat="45.87291" lon="6.46314">
        <ele>1454.61</ele>
        <time>2010-01-23T07:33:51Z</time>
      </trkpt>
      <trkpt lat="45.87289" lon="6.46312">
        <ele>1454.13</ele>
        <time>2010-01-23T07:34:08Z</time>
      </trkpt>
      <trkpt lat="45.87288" lon="6.4631">
        <ele>1456.05</ele>
        <time>2010-01-23T07:34:10Z</time>
      </trkpt>
      <trkpt lat="45.87286" lon="6.46308">
        <ele>1452.69</ele>
        <time>2010-01-23T07:34:13Z</time>
      </trkpt>
      <trkpt lat="45.87285" lon="6.46307">
        <ele>1458.46</ele>
        <time>2010-01-23T07:34:15Z</time>
      </trkpt>
      <trkpt lat="45.87285" lon="6.46306">
        <ele>1456.05</ele>
        <time>2010-01-23T07:34:16Z</time>
      </trkpt>
      <trkpt lat="45.87282" lon="6.46305">
        <ele>1459.42</ele>
        <time>2010-01-23T07:34:25Z</time>
      </trkpt>
      <trkpt lat="45.8728" lon="6.46304">
        <ele>1456.05</ele>
        <time>2010-01-23T07:34:27Z</time>
      </trkpt>
      <trkpt lat="45.87274" lon="6.463">
        <ele>1453.17</ele>
        <time>2010-01-23T07:34:32Z</time>
      </trkpt>
      <trkpt lat="45.87271" lon="6.46298">
        <ele>1455.09</ele>
        <time>2010-01-23T07:34:34Z</time>
      </trkpt>
      <trkpt lat="45.87259" lon="6.4629">
        <ele>1458.46</ele>
        <time>2010-01-23T07:34:45Z</time>
      </trkpt>
      <trkpt lat="45.87257" lon="6.46289">
        <ele>1455.09</ele>
        <time>2010-01-23T07:34:46Z</time>
      </trkpt>
      <trkpt lat="45.87255" lon="6.46286">
        <ele>1458.94</ele>
        <time>2010-01-23T07:34:48Z</time>
      </trkpt>
      <trkpt lat="45.87246" lon="6.46273">
        <ele>1457.98</ele>
        <time>2010-01-23T07:34:57Z</time>
      </trkpt>
      <trkpt lat="45.8723" lon="6.46253">
        <ele>1457.98</ele>
        <time>2010-01-23T07:35:13Z</time>
      </trkpt>
      <trkpt lat="45.8722" lon="6.46242">
        <ele>1461.34</ele>
        <time>2010-01-23T07:35:24Z</time>
      </trkpt>
      <trkpt lat="45.87218" lon="6.46241">
        <ele>1457.02</ele>
        <time>2010-01-23T07:35:25Z</time>
      </trkpt>
      <trkpt lat="45.87215" lon="6.46238">
        <ele>1462.78</ele>
        <time>2010-01-23T07:35:28Z</time>
      </trkpt>
      <trkpt lat="45.87214" lon="6.46237">
        <ele>1457.98</ele>
        <time>2010-01-23T07:35:29Z</time>
      </trkpt>
      <trkpt lat="45.87209" lon="6.46231">
        <ele>1461.34</ele>
        <time>2010-01-23T07:35:34Z</time>
      </trkpt>
      <trkpt lat="45.87204" lon="6.46227">
        <ele>1459.9</ele>
        <time>2010-01-23T07:35:38Z</time>
      </trkpt>
      <trkpt lat="45.87194" lon="6.46216">
        <ele>1463.26</ele>
        <time>2010-01-23T07:35:49Z</time>
      </trkpt>
      <trkpt lat="45.87191" lon="6.46213">
        <ele>1459.9</ele>
        <time>2010-01-23T07:35:53Z</time>
      </trkpt>
      <trkpt lat="45.87183" lon="6.46204">
        <ele>1463.74</ele>
        <time>2010-01-23T07:36:01Z</time>
      </trkpt>
      <trkpt lat="45.87182" lon="6.46203">
        <ele>1458.94</ele>
        <time>2010-01-23T07:36:02Z</time>
      </trkpt>
      <trkpt lat="45.87181" lon="6.46202">
        <ele>1462.3</ele>
        <time>2010-01-23T07:36:03Z</time>
      </trkpt>
      <trkpt lat="45.87169" lon="6.46191">
        <ele>1462.78</ele>
        <time>2010-01-23T07:36:14Z</time>
      </trkpt>
      <trkpt lat="45.87163" lon="6.46186">
        <ele>1460.86</ele>
        <time>2010-01-23T07:36:19Z</time>
      </trkpt>
      <trkpt lat="45.8716" lon="6.46184">
        <ele>1463.74</ele>
        <time>2010-01-23T07:36:22Z</time>
      </trkpt>
      <trkpt lat="45.87154" lon="6.46179">
        <ele>1464.71</ele>
        <time>2010-01-23T07:36:28Z</time>
      </trkpt>
      <trkpt lat="45.87151" lon="6.46178">
        <ele>1463.26</ele>
        <time>2010-01-23T07:36:31Z</time>
      </trkpt>
      <trkpt lat="45.87147" lon="6.46176">
        <ele>1466.63</ele>
        <time>2010-01-23T07:36:35Z</time>
      </trkpt>
      <trkpt lat="45.87146" lon="6.46176">
        <ele>1462.78</ele>
        <time>2010-01-23T07:36:36Z</time>
      </trkpt>
      <trkpt lat="45.87145" lon="6.46176">
        <ele>1468.55</ele>
        <time>2010-01-23T07:36:37Z</time>
      </trkpt>
      <trkpt lat="45.87144" lon="6.46176">
        <ele>1465.67</ele>
        <time>2010-01-23T07:36:38Z</time>
      </trkpt>
      <trkpt lat="45.87142" lon="6.46175">
        <ele>1466.63</ele>
        <time>2010-01-23T07:36:41Z</time>
      </trkpt>
      <trkpt lat="45.87138" lon="6.46175">
        <ele>1466.15</ele>
        <time>2010-01-23T07:36:46Z</time>
      </trkpt>
      <trkpt lat="45.87137" lon="6.46174">
        <ele>1469.99</ele>
        <time>2010-01-23T07:36:47Z</time>
      </trkpt>
      <trkpt lat="45.87135" lon="6.46174">
        <ele>1469.99</ele>
        <time>2010-01-23T07:36:48Z</time>
      </trkpt>
      <trkpt lat="45.87134" lon="6.46174">
        <ele>1465.19</ele>
        <time>2010-01-23T07:36:49Z</time>
      </trkpt>
      <trkpt lat="45.87133" lon="6.46174">
        <ele>1468.07</ele>
        <time>2010-01-23T07:36:50Z</time>
      </trkpt>
      <trkpt lat="45.87129" lon="6.46174">
        <ele>1471.44</ele>
        <time>2010-01-23T07:36:54Z</time>
      </trkpt>
      <trkpt lat="45.87126" lon="6.46173">
        <ele>1467.59</ele>
        <time>2010-01-23T07:36:57Z</time>
      </trkpt>
      <trkpt lat="45.87122" lon="6.46172">
        <ele>1471.92</ele>
        <time>2010-01-23T07:37:01Z</time>
      </trkpt>
      <trkpt lat="45.8712" lon="6.46172">
        <ele>1468.55</ele>
        <time>2010-01-23T07:37:02Z</time>
      </trkpt>
      <trkpt lat="45.87117" lon="6.46172">
        <ele>1471.44</ele>
        <time>2010-01-23T07:37:05Z</time>
      </trkpt>
      <trkpt lat="45.8711" lon="6.46172">
        <ele>1469.99</ele>
        <time>2010-01-23T07:37:11Z</time>
      </trkpt>
      <trkpt lat="45.87105" lon="6.46171">
        <ele>1476.24</ele>
        <time>2010-01-23T07:37:16Z</time>
      </trkpt>
      <trkpt lat="45.87104" lon="6.46171">
        <ele>1471.92</ele>
        <time>2010-01-23T07:37:17Z</time>
      </trkpt>
      <trkpt lat="45.87103" lon="6.4617">
        <ele>1470.47</ele>
        <time>2010-01-23T07:37:19Z</time>
      </trkpt>
      <trkpt lat="45.87102" lon="6.4617">
        <ele>1475.76</ele>
        <time>2010-01-23T07:37:20Z</time>
      </trkpt>
      <trkpt lat="45.87101" lon="6.4617">
        <ele>1475.76</ele>
        <time>2010-01-23T07:37:21Z</time>
      </trkpt>
      <trkpt lat="45.871" lon="6.4617">
        <ele>1472.88</ele>
        <time>2010-01-23T07:37:22Z</time>
      </trkpt>
      <trkpt lat="45.87093" lon="6.46169">
        <ele>1477.68</ele>
        <time>2010-01-23T07:37:30Z</time>
      </trkpt>
      <trkpt lat="45.87089" lon="6.46169">
        <ele>1477.68</ele>
        <time>2010-01-23T07:37:34Z</time>
      </trkpt>
      <trkpt lat="45.87086" lon="6.46169">
        <ele>1475.28</ele>
        <time>2010-01-23T07:37:37Z</time>
      </trkpt>
      <trkpt lat="45.87084" lon="6.46169">
        <ele>1476.24</ele>
        <time>2010-01-23T07:37:39Z</time>
      </trkpt>
      <trkpt lat="45.87081" lon="6.46169">
        <ele>1472.88</ele>
        <time>2010-01-23T07:37:42Z</time>
      </trkpt>
      <trkpt lat="45.8708" lon="6.46169">
        <ele>1479.13</ele>
        <time>2010-01-23T07:37:43Z</time>
      </trkpt>
      <trkpt lat="45.87079" lon="6.46168">
        <ele>1478.65</ele>
        <time>2010-01-23T07:37:44Z</time>
      </trkpt>
      <trkpt lat="45.87073" lon="6.46168">
        <ele>1477.68</ele>
        <time>2010-01-23T07:37:49Z</time>
      </trkpt>
      <trkpt lat="45.87065" lon="6.46167">
        <ele>1480.57</ele>
        <time>2010-01-23T07:37:56Z</time>
      </trkpt>
      <trkpt lat="45.87064" lon="6.46166">
        <ele>1481.05</ele>
        <time>2010-01-23T07:37:57Z</time>
      </trkpt>
      <trkpt lat="45.87063" lon="6.46165">
        <ele>1477.68</ele>
        <time>2010-01-23T07:37:58Z</time>
      </trkpt>
      <trkpt lat="45.87062" lon="6.46164">
        <ele>1478.65</ele>
        <time>2010-01-23T07:37:59Z</time>
      </trkpt>
      <trkpt lat="45.87054" lon="6.46161">
        <ele>1480.09</ele>
        <time>2010-01-23T07:38:06Z</time>
      </trkpt>
      <trkpt lat="45.87044" lon="6.46156">
        <ele>1475.28</ele>
        <time>2010-01-23T07:38:14Z</time>
      </trkpt>
      <trkpt lat="45.87039" lon="6.46153">
        <ele>1479.61</ele>
        <time>2010-01-23T07:38:17Z</time>
      </trkpt>
      <trkpt lat="45.87038" lon="6.46152">
        <ele>1479.61</ele>
        <time>2010-01-23T07:38:18Z</time>
      </trkpt>
      <trkpt lat="45.8703" lon="6.46145">
        <ele>1476.24</ele>
        <time>2010-01-23T07:38:23Z</time>
      </trkpt>
      <trkpt lat="45.87029" lon="6.46143">
        <ele>1481.53</ele>
        <time>2010-01-23T07:38:24Z</time>
      </trkpt>
      <trkpt lat="45.87029" lon="6.46142">
        <ele>1476.24</ele>
        <time>2010-01-23T07:38:25Z</time>
      </trkpt>
      <trkpt lat="45.87026" lon="6.46135">
        <ele>1480.57</ele>
        <time>2010-01-23T07:38:29Z</time>
      </trkpt>
      <trkpt lat="45.87026" lon="6.46134">
        <ele>1479.61</ele>
        <time>2010-01-23T07:38:30Z</time>
      </trkpt>
      <trkpt lat="45.87025" lon="6.4613">
        <ele>1481.53</ele>
        <time>2010-01-23T07:38:33Z</time>
      </trkpt>
      <trkpt lat="45.87024" lon="6.46127">
        <ele>1480.09</ele>
        <time>2010-01-23T07:38:35Z</time>
      </trkpt>
      <trkpt lat="45.8702" lon="6.46111">
        <ele>1485.37</ele>
        <time>2010-01-23T07:38:47Z</time>
      </trkpt>
      <trkpt lat="45.8702" lon="6.4611">
        <ele>1485.37</ele>
        <time>2010-01-23T07:38:48Z</time>
      </trkpt>
      <trkpt lat="45.87019" lon="6.46109">
        <ele>1480.09</ele>
        <time>2010-01-23T07:38:49Z</time>
      </trkpt>
      <trkpt lat="45.87018" lon="6.46107">
        <ele>1481.05</ele>
        <time>2010-01-23T07:38:51Z</time>
      </trkpt>
      <trkpt lat="45.87017" lon="6.46107">
        <ele>1484.89</ele>
        <time>2010-01-23T07:38:52Z</time>
      </trkpt>
      <trkpt lat="45.87012" lon="6.46104">
        <ele>1482.97</ele>
        <time>2010-01-23T07:38:57Z</time>
      </trkpt>
      <trkpt lat="45.87011" lon="6.46103">
        <ele>1487.3</ele>
        <time>2010-01-23T07:38:58Z</time>
      </trkpt>
      <trkpt lat="45.8701" lon="6.46103">
        <ele>1484.41</ele>
        <time>2010-01-23T07:38:59Z</time>
      </trkpt>
      <trkpt lat="45.87009" lon="6.46102">
        <ele>1480.57</ele>
        <time>2010-01-23T07:39:00Z</time>
      </trkpt>
      <trkpt lat="45.87008" lon="6.46102">
        <ele>1487.78</ele>
        <time>2010-01-23T07:39:01Z</time>
      </trkpt>
      <trkpt lat="45.87006" lon="6.46101">
        <ele>1482.97</ele>
        <time>2010-01-23T07:39:02Z</time>
      </trkpt>
      <trkpt lat="45.86996" lon="6.46093">
        <ele>1486.34</ele>
        <time>2010-01-23T07:39:12Z</time>
      </trkpt>
      <trkpt lat="45.86994" lon="6.46092">
        <ele>1487.3</ele>
        <time>2010-01-23T07:39:14Z</time>
      </trkpt>
      <trkpt lat="45.86987" lon="6.46085">
        <ele>1482.01</ele>
        <time>2010-01-23T07:39:21Z</time>
      </trkpt>
      <trkpt lat="45.86986" lon="6.46085">
        <ele>1487.3</ele>
        <time>2010-01-23T07:39:22Z</time>
      </trkpt>
      <trkpt lat="45.8698" lon="6.4608">
        <ele>1487.78</ele>
        <time>2010-01-23T07:39:29Z</time>
      </trkpt>
      <trkpt lat="45.86966" lon="6.4607">
        <ele>1486.34</ele>
        <time>2010-01-23T07:39:44Z</time>
      </trkpt>
      <trkpt lat="45.86963" lon="6.46068">
        <ele>1489.7</ele>
        <time>2010-01-23T07:39:47Z</time>
      </trkpt>
      <trkpt lat="45.86962" lon="6.46068">
        <ele>1485.85</ele>
        <time>2010-01-23T07:39:48Z</time>
      </trkpt>
      <trkpt lat="45.86961" lon="6.46067">
        <ele>1490.66</ele>
        <time>2010-01-23T07:39:49Z</time>
      </trkpt>
      <trkpt lat="45.86948" lon="6.46056">
        <ele>1494.99</ele>
        <time>2010-01-23T07:40:05Z</time>
      </trkpt>
      <trkpt lat="45.86948" lon="6.46056">
        <ele>1493.06</ele>
        <time>2010-01-23T07:40:06Z</time>
      </trkpt>
      <trkpt lat="45.86948" lon="6.46055">
        <ele>1489.7</ele>
        <time>2010-01-23T07:40:16Z</time>
      </trkpt>
      <trkpt lat="45.86939" lon="6.46035">
        <ele>1495.95</ele>
        <time>2010-01-23T07:40:31Z</time>
      </trkpt>
      <trkpt lat="45.86939" lon="6.46018">
        <ele>1499.31</ele>
        <time>2010-01-23T07:40:43Z</time>
      </trkpt>
      <trkpt lat="45.86939" lon="6.46">
        <ele>1499.31</ele>
        <time>2010-01-23T07:40:55Z</time>
      </trkpt>
      <trkpt lat="45.86938" lon="6.45993">
        <ele>1495.95</ele>
        <time>2010-01-23T07:41:00Z</time>
      </trkpt>
      <trkpt lat="45.86938" lon="6.45992">
        <ele>1499.31</ele>
        <time>2010-01-23T07:41:01Z</time>
      </trkpt>
      <trkpt lat="45.86935" lon="6.45983">
        <ele>1502.68</ele>
        <time>2010-01-23T07:41:09Z</time>
      </trkpt>
      <trkpt lat="45.86933" lon="6.45977">
        <ele>1500.76</ele>
        <time>2010-01-23T07:41:14Z</time>
      </trkpt>
      <trkpt lat="45.86931" lon="6.45975">
        <ele>1503.16</ele>
        <time>2010-01-23T07:41:17Z</time>
      </trkpt>
      <trkpt lat="45.86921" lon="6.45981">
        <ele>1507</ele>
        <time>2010-01-23T07:41:31Z</time>
      </trkpt>
      <trkpt lat="45.86919" lon="6.45983">
        <ele>1508.93</ele>
        <time>2010-01-23T07:41:34Z</time>
      </trkpt>
      <trkpt lat="45.86918" lon="6.45983">
        <ele>1507</ele>
        <time>2010-01-23T07:41:35Z</time>
      </trkpt>
      <trkpt lat="45.8691" lon="6.45986">
        <ele>1509.89</ele>
        <time>2010-01-23T07:41:46Z</time>
      </trkpt>
      <trkpt lat="45.86906" lon="6.45988">
        <ele>1509.41</ele>
        <time>2010-01-23T07:41:51Z</time>
      </trkpt>
      <trkpt lat="45.86902" lon="6.4599">
        <ele>1512.77</ele>
        <time>2010-01-23T07:41:56Z</time>
      </trkpt>
      <trkpt lat="45.86901" lon="6.45991">
        <ele>1509.41</ele>
        <time>2010-01-23T07:41:57Z</time>
      </trkpt>
      <trkpt lat="45.869" lon="6.45991">
        <ele>1513.73</ele>
        <time>2010-01-23T07:41:59Z</time>
      </trkpt>
      <trkpt lat="45.86899" lon="6.45991">
        <ele>1513.25</ele>
        <time>2010-01-23T07:42:00Z</time>
      </trkpt>
      <trkpt lat="45.86898" lon="6.45991">
        <ele>1512.77</ele>
        <time>2010-01-23T07:42:02Z</time>
      </trkpt>
      <trkpt lat="45.86897" lon="6.4599">
        <ele>1514.69</ele>
        <time>2010-01-23T07:42:03Z</time>
      </trkpt>
      <trkpt lat="45.86894" lon="6.45987">
        <ele>1509.89</ele>
        <time>2010-01-23T07:42:07Z</time>
      </trkpt>
      <trkpt lat="45.86894" lon="6.45986">
        <ele>1515.66</ele>
        <time>2010-01-23T07:42:08Z</time>
      </trkpt>
      <trkpt lat="45.86893" lon="6.45985">
        <ele>1514.21</ele>
        <time>2010-01-23T07:42:09Z</time>
      </trkpt>
      <trkpt lat="45.86889" lon="6.45971">
        <ele>1517.58</ele>
        <time>2010-01-23T07:42:21Z</time>
      </trkpt>
      <trkpt lat="45.86886" lon="6.45961">
        <ele>1516.62</ele>
        <time>2010-01-23T07:42:30Z</time>
      </trkpt>
      <trkpt lat="45.86883" lon="6.45954">
        <ele>1518.54</ele>
        <time>2010-01-23T07:42:38Z</time>
      </trkpt>
      <trkpt lat="45.86881" lon="6.45947">
        <ele>1521.9</ele>
        <time>2010-01-23T07:42:44Z</time>
      </trkpt>
      <trkpt lat="45.86881" lon="6.45946">
        <ele>1518.54</ele>
        <time>2010-01-23T07:42:45Z</time>
      </trkpt>
      <trkpt lat="45.86881" lon="6.45945">
        <ele>1519.02</ele>
        <time>2010-01-23T07:42:46Z</time>
      </trkpt>
      <trkpt lat="45.8688" lon="6.45944">
        <ele>1522.39</ele>
        <time>2010-01-23T07:42:47Z</time>
      </trkpt>
      <trkpt lat="45.8688" lon="6.45942">
        <ele>1519.5</ele>
        <time>2010-01-23T07:42:48Z</time>
      </trkpt>
      <trkpt lat="45.86878" lon="6.45936">
        <ele>1521.9</ele>
        <time>2010-01-23T07:42:54Z</time>
      </trkpt>
      <trkpt lat="45.86876" lon="6.45929">
        <ele>1523.83</ele>
        <time>2010-01-23T07:43:00Z</time>
      </trkpt>
      <trkpt lat="45.86871" lon="6.45915">
        <ele>1525.27</ele>
        <time>2010-01-23T07:43:14Z</time>
      </trkpt>
      <trkpt lat="45.86867" lon="6.45898">
        <ele>1527.19</ele>
        <time>2010-01-23T07:43:27Z</time>
      </trkpt>
      <trkpt lat="45.86865" lon="6.45883">
        <ele>1530.56</ele>
        <time>2010-01-23T07:43:40Z</time>
      </trkpt>
      <trkpt lat="45.86861" lon="6.45882">
        <ele>1530.08</ele>
        <time>2010-01-23T07:43:47Z</time>
      </trkpt>
      <trkpt lat="45.86859" lon="6.45885">
        <ele>1533.44</ele>
        <time>2010-01-23T07:43:51Z</time>
      </trkpt>
      <trkpt lat="45.86858" lon="6.45885">
        <ele>1532.48</ele>
        <time>2010-01-23T07:43:52Z</time>
      </trkpt>
      <trkpt lat="45.8685" lon="6.4589">
        <ele>1535.84</ele>
        <time>2010-01-23T07:44:05Z</time>
      </trkpt>
      <trkpt lat="45.86843" lon="6.45896">
        <ele>1539.21</ele>
        <time>2010-01-23T07:44:16Z</time>
      </trkpt>
      <trkpt lat="45.86837" lon="6.45905">
        <ele>1539.69</ele>
        <time>2010-01-23T07:44:29Z</time>
      </trkpt>
      <trkpt lat="45.86834" lon="6.45908">
        <ele>1541.61</ele>
        <time>2010-01-23T07:44:34Z</time>
      </trkpt>
      <trkpt lat="45.86826" lon="6.45918">
        <ele>1543.05</ele>
        <time>2010-01-23T07:44:48Z</time>
      </trkpt>
      <trkpt lat="45.86823" lon="6.45921">
        <ele>1546.42</ele>
        <time>2010-01-23T07:44:52Z</time>
      </trkpt>
      <trkpt lat="45.86823" lon="6.45921">
        <ele>1543.05</ele>
        <time>2010-01-23T07:44:53Z</time>
      </trkpt>
      <trkpt lat="45.86822" lon="6.45921">
        <ele>1543.53</ele>
        <time>2010-01-23T07:44:54Z</time>
      </trkpt>
      <trkpt lat="45.8682" lon="6.45921">
        <ele>1544.98</ele>
        <time>2010-01-23T07:44:56Z</time>
      </trkpt>
      <trkpt lat="45.86819" lon="6.4592">
        <ele>1545.94</ele>
        <time>2010-01-23T07:44:57Z</time>
      </trkpt>
      <trkpt lat="45.86816" lon="6.45904">
        <ele>1546.9</ele>
        <time>2010-01-23T07:45:11Z</time>
      </trkpt>
      <trkpt lat="45.86815" lon="6.45896">
        <ele>1548.34</ele>
        <time>2010-01-23T07:45:18Z</time>
      </trkpt>
      <trkpt lat="45.86815" lon="6.45894">
        <ele>1548.34</ele>
        <time>2010-01-23T07:45:20Z</time>
      </trkpt>
      <trkpt lat="45.86816" lon="6.45887">
        <ele>1549.3</ele>
        <time>2010-01-23T07:45:26Z</time>
      </trkpt>
      <trkpt lat="45.86817" lon="6.45876">
        <ele>1553.15</ele>
        <time>2010-01-23T07:45:34Z</time>
      </trkpt>
      <trkpt lat="45.86817" lon="6.45875">
        <ele>1552.19</ele>
        <time>2010-01-23T07:45:35Z</time>
      </trkpt>
      <trkpt lat="45.86817" lon="6.45868">
        <ele>1552.19</ele>
        <time>2010-01-23T07:45:39Z</time>
      </trkpt>
      <trkpt lat="45.86817" lon="6.45846">
        <ele>1553.63</ele>
        <time>2010-01-23T07:45:53Z</time>
      </trkpt>
      <trkpt lat="45.86817" lon="6.45841">
        <ele>1555.07</ele>
        <time>2010-01-23T07:45:58Z</time>
      </trkpt>
      <trkpt lat="45.86816" lon="6.45829">
        <ele>1559.4</ele>
        <time>2010-01-23T07:46:10Z</time>
      </trkpt>
      <trkpt lat="45.86816" lon="6.45827">
        <ele>1565.64</ele>
        <time>2010-01-23T07:46:11Z</time>
      </trkpt>
      <trkpt lat="45.86816" lon="6.45826">
        <ele>1569.01</ele>
        <time>2010-01-23T07:46:12Z</time>
      </trkpt>
      <trkpt lat="45.86816" lon="6.45825">
        <ele>1560.84</ele>
        <time>2010-01-23T07:46:13Z</time>
      </trkpt>
      <trkpt lat="45.86816" lon="6.45824">
        <ele>1562.76</ele>
        <time>2010-01-23T07:46:14Z</time>
      </trkpt>
      <trkpt lat="45.86816" lon="6.45824">
        <ele>1559.4</ele>
        <time>2010-01-23T07:46:15Z</time>
      </trkpt>
      <trkpt lat="45.86816" lon="6.45823">
        <ele>1559.4</ele>
        <time>2010-01-23T07:46:16Z</time>
      </trkpt>
      <trkpt lat="45.86814" lon="6.45825">
        <ele>1560.36</ele>
        <time>2010-01-23T07:46:22Z</time>
      </trkpt>
      <trkpt lat="45.86812" lon="6.45827">
        <ele>1556.03</ele>
        <time>2010-01-23T07:46:26Z</time>
      </trkpt>
      <trkpt lat="45.86811" lon="6.45828">
        <ele>1557.47</ele>
        <time>2010-01-23T07:46:27Z</time>
      </trkpt>
      <trkpt lat="45.86811" lon="6.45828">
        <ele>1564.68</ele>
        <time>2010-01-23T07:46:28Z</time>
      </trkpt>
      <trkpt lat="45.8681" lon="6.45828">
        <ele>1561.8</ele>
        <time>2010-01-23T07:46:29Z</time>
      </trkpt>
      <trkpt lat="45.86807" lon="6.45831">
        <ele>1566.12</ele>
        <time>2010-01-23T07:46:36Z</time>
      </trkpt>
      <trkpt lat="45.86806" lon="6.45832">
        <ele>1562.76</ele>
        <time>2010-01-23T07:46:37Z</time>
      </trkpt>
      <trkpt lat="45.86802" lon="6.45837">
        <ele>1564.2</ele>
        <time>2010-01-23T07:46:43Z</time>
      </trkpt>
      <trkpt lat="45.86796" lon="6.45845">
        <ele>1566.61</ele>
        <time>2010-01-23T07:46:54Z</time>
      </trkpt>
      <trkpt lat="45.8679" lon="6.45852">
        <ele>1568.05</ele>
        <time>2010-01-23T07:47:05Z</time>
      </trkpt>
      <trkpt lat="45.86782" lon="6.45854">
        <ele>1570.93</ele>
        <time>2010-01-23T07:47:14Z</time>
      </trkpt>
      <trkpt lat="45.8678" lon="6.45853">
        <ele>1571.41</ele>
        <time>2010-01-23T07:47:17Z</time>
      </trkpt>
      <trkpt lat="45.86779" lon="6.45842">
        <ele>1575.26</ele>
        <time>2010-01-23T07:47:29Z</time>
      </trkpt>
      <trkpt lat="45.86778" lon="6.4583">
        <ele>1576.7</ele>
        <time>2010-01-23T07:47:42Z</time>
      </trkpt>
      <trkpt lat="45.86778" lon="6.45826">
        <ele>1578.14</ele>
        <time>2010-01-23T07:47:45Z</time>
      </trkpt>
      <trkpt lat="45.86778" lon="6.45813">
        <ele>1578.14</ele>
        <time>2010-01-23T07:47:54Z</time>
      </trkpt>
      <trkpt lat="45.86777" lon="6.458">
        <ele>1581.51</ele>
        <time>2010-01-23T07:48:04Z</time>
      </trkpt>
      <trkpt lat="45.86777" lon="6.45798">
        <ele>1582.47</ele>
        <time>2010-01-23T07:48:06Z</time>
      </trkpt>
      <trkpt lat="45.86779" lon="6.45784">
        <ele>1583.91</ele>
        <time>2010-01-23T07:48:17Z</time>
      </trkpt>
      <trkpt lat="45.86779" lon="6.4577">
        <ele>1585.35</ele>
        <time>2010-01-23T07:48:29Z</time>
      </trkpt>
      <trkpt lat="45.86776" lon="6.45768">
        <ele>1585.83</ele>
        <time>2010-01-23T07:48:33Z</time>
      </trkpt>
      <trkpt lat="45.86775" lon="6.45767">
        <ele>1587.27</ele>
        <time>2010-01-23T07:48:36Z</time>
      </trkpt>
      <trkpt lat="45.86774" lon="6.45763">
        <ele>1587.75</ele>
        <time>2010-01-23T07:48:40Z</time>
      </trkpt>
      <trkpt lat="45.86775" lon="6.45751">
        <ele>1590.16</ele>
        <time>2010-01-23T07:48:49Z</time>
      </trkpt>
      <trkpt lat="45.86775" lon="6.45748">
        <ele>1590.16</ele>
        <time>2010-01-23T07:48:52Z</time>
      </trkpt>
      <trkpt lat="45.86775" lon="6.45733">
        <ele>1589.68</ele>
        <time>2010-01-23T07:49:05Z</time>
      </trkpt>
      <trkpt lat="45.86774" lon="6.45721">
        <ele>1594.96</ele>
        <time>2010-01-23T07:49:18Z</time>
      </trkpt>
      <trkpt lat="45.86772" lon="6.45709">
        <ele>1597.85</ele>
        <time>2010-01-23T07:49:30Z</time>
      </trkpt>
      <trkpt lat="45.8677" lon="6.457">
        <ele>1600.73</ele>
        <time>2010-01-23T07:49:39Z</time>
      </trkpt>
      <trkpt lat="45.86767" lon="6.45689">
        <ele>1602.66</ele>
        <time>2010-01-23T07:49:52Z</time>
      </trkpt>
      <trkpt lat="45.86767" lon="6.45688">
        <ele>1603.62</ele>
        <time>2010-01-23T07:49:53Z</time>
      </trkpt>
      <trkpt lat="45.86765" lon="6.4568">
        <ele>1606.98</ele>
        <time>2010-01-23T07:50:03Z</time>
      </trkpt>
      <trkpt lat="45.86765" lon="6.4568">
        <ele>1602.17</ele>
        <time>2010-01-23T07:50:04Z</time>
      </trkpt>
      <trkpt lat="45.86765" lon="6.4568">
        <ele>1606.02</ele>
        <time>2010-01-23T07:50:05Z</time>
      </trkpt>
      <trkpt lat="45.86763" lon="6.45684">
        <ele>1607.46</ele>
        <time>2010-01-23T07:50:13Z</time>
      </trkpt>
      <trkpt lat="45.86757" lon="6.45694">
        <ele>1609.86</ele>
        <time>2010-01-23T07:50:26Z</time>
      </trkpt>
      <trkpt lat="45.86757" lon="6.45695">
        <ele>1609.86</ele>
        <time>2010-01-23T07:50:27Z</time>
      </trkpt>
      <trkpt lat="45.8675" lon="6.45706">
        <ele>1613.71</ele>
        <time>2010-01-23T07:50:40Z</time>
      </trkpt>
      <trkpt lat="45.8674" lon="6.45713">
        <ele>1615.63</ele>
        <time>2010-01-23T07:50:53Z</time>
      </trkpt>
      <trkpt lat="45.86738" lon="6.45714">
        <ele>1615.63</ele>
        <time>2010-01-23T07:50:56Z</time>
      </trkpt>
      <trkpt lat="45.86737" lon="6.45709">
        <ele>1616.59</ele>
        <time>2010-01-23T07:51:01Z</time>
      </trkpt>
      <trkpt lat="45.86736" lon="6.45694">
        <ele>1619</ele>
        <time>2010-01-23T07:51:14Z</time>
      </trkpt>
      <trkpt lat="45.86733" lon="6.45684">
        <ele>1621.4</ele>
        <time>2010-01-23T07:51:25Z</time>
      </trkpt>
      <trkpt lat="45.86731" lon="6.4568">
        <ele>1621.88</ele>
        <time>2010-01-23T07:51:30Z</time>
      </trkpt>
      <trkpt lat="45.86726" lon="6.45685">
        <ele>1624.77</ele>
        <time>2010-01-23T07:51:43Z</time>
      </trkpt>
      <trkpt lat="45.86722" lon="6.45689">
        <ele>1628.61</ele>
        <time>2010-01-23T07:51:51Z</time>
      </trkpt>
      <trkpt lat="45.86715" lon="6.45693">
        <ele>1630.05</ele>
        <time>2010-01-23T07:52:01Z</time>
      </trkpt>
      <trkpt lat="45.86713" lon="6.45683">
        <ele>1631.01</ele>
        <time>2010-01-23T07:52:12Z</time>
      </trkpt>
      <trkpt lat="45.86713" lon="6.45674">
        <ele>1632.94</ele>
        <time>2010-01-23T07:52:21Z</time>
      </trkpt>
      <trkpt lat="45.86712" lon="6.45672">
        <ele>1632.94</ele>
        <time>2010-01-23T07:52:23Z</time>
      </trkpt>
      <trkpt lat="45.8671" lon="6.45664">
        <ele>1634.86</ele>
        <time>2010-01-23T07:52:33Z</time>
      </trkpt>
      <trkpt lat="45.86701" lon="6.45674">
        <ele>1637.74</ele>
        <time>2010-01-23T07:52:47Z</time>
      </trkpt>
      <trkpt lat="45.867" lon="6.45675">
        <ele>1638.7</ele>
        <time>2010-01-23T07:52:49Z</time>
      </trkpt>
      <trkpt lat="45.86696" lon="6.45678">
        <ele>1638.7</ele>
        <time>2010-01-23T07:52:55Z</time>
      </trkpt>
      <trkpt lat="45.86695" lon="6.45676">
        <ele>1640.15</ele>
        <time>2010-01-23T07:52:57Z</time>
      </trkpt>
      <trkpt lat="45.86695" lon="6.45664">
        <ele>1641.59</ele>
        <time>2010-01-23T07:53:07Z</time>
      </trkpt>
      <trkpt lat="45.86695" lon="6.45663">
        <ele>1641.59</ele>
        <time>2010-01-23T07:53:08Z</time>
      </trkpt>
      <trkpt lat="45.86694" lon="6.4565">
        <ele>1645.43</ele>
        <time>2010-01-23T07:53:20Z</time>
      </trkpt>
      <trkpt lat="45.86695" lon="6.45643">
        <ele>1646.4</ele>
        <time>2010-01-23T07:53:29Z</time>
      </trkpt>
      <trkpt lat="45.86692" lon="6.45636">
        <ele>1651.2</ele>
        <time>2010-01-23T07:53:37Z</time>
      </trkpt>
      <trkpt lat="45.86692" lon="6.45636">
        <ele>1646.88</ele>
        <time>2010-01-23T07:53:38Z</time>
      </trkpt>
      <trkpt lat="45.86691" lon="6.45637">
        <ele>1650.24</ele>
        <time>2010-01-23T07:53:40Z</time>
      </trkpt>
      <trkpt lat="45.8669" lon="6.45638">
        <ele>1650.24</ele>
        <time>2010-01-23T07:53:43Z</time>
      </trkpt>
      <trkpt lat="45.86681" lon="6.45643">
        <ele>1651.68</ele>
        <time>2010-01-23T07:53:56Z</time>
      </trkpt>
      <trkpt lat="45.86677" lon="6.45645">
        <ele>1653.6</ele>
        <time>2010-01-23T07:54:01Z</time>
      </trkpt>
      <trkpt lat="45.86674" lon="6.45646">
        <ele>1654.09</ele>
        <time>2010-01-23T07:54:05Z</time>
      </trkpt>
      <trkpt lat="45.86673" lon="6.45642">
        <ele>1655.05</ele>
        <time>2010-01-23T07:54:10Z</time>
      </trkpt>
      <trkpt lat="45.86673" lon="6.45631">
        <ele>1657.45</ele>
        <time>2010-01-23T07:54:21Z</time>
      </trkpt>
      <trkpt lat="45.86672" lon="6.45622">
        <ele>1660.81</ele>
        <time>2010-01-23T07:54:31Z</time>
      </trkpt>
      <trkpt lat="45.86671" lon="6.45623">
        <ele>1660.81</ele>
        <time>2010-01-23T07:54:36Z</time>
      </trkpt>
      <trkpt lat="45.86669" lon="6.45626">
        <ele>1661.78</ele>
        <time>2010-01-23T07:54:41Z</time>
      </trkpt>
      <trkpt lat="45.86661" lon="6.45632">
        <ele>1663.22</ele>
        <time>2010-01-23T07:54:53Z</time>
      </trkpt>
      <trkpt lat="45.86661" lon="6.45625">
        <ele>1666.58</ele>
        <time>2010-01-23T07:55:04Z</time>
      </trkpt>
      <trkpt lat="45.86662" lon="6.4562">
        <ele>1665.62</ele>
        <time>2010-01-23T07:55:09Z</time>
      </trkpt>
      <trkpt lat="45.86661" lon="6.45615">
        <ele>1668.51</ele>
        <time>2010-01-23T07:55:14Z</time>
      </trkpt>
      <trkpt lat="45.86659" lon="6.45607">
        <ele>1670.43</ele>
        <time>2010-01-23T07:55:25Z</time>
      </trkpt>
      <trkpt lat="45.86656" lon="6.45611">
        <ele>1671.39</ele>
        <time>2010-01-23T07:55:32Z</time>
      </trkpt>
      <trkpt lat="45.86649" lon="6.45614">
        <ele>1673.31</ele>
        <time>2010-01-23T07:55:44Z</time>
      </trkpt>
      <trkpt lat="45.8665" lon="6.45608">
        <ele>1675.23</ele>
        <time>2010-01-23T07:55:51Z</time>
      </trkpt>
      <trkpt lat="45.86649" lon="6.456">
        <ele>1677.64</ele>
        <time>2010-01-23T07:56:02Z</time>
      </trkpt>
      <trkpt lat="45.86648" lon="6.45599">
        <ele>1679.08</ele>
        <time>2010-01-23T07:56:12Z</time>
      </trkpt>
      <trkpt lat="45.86647" lon="6.456">
        <ele>1679.56</ele>
        <time>2010-01-23T07:56:14Z</time>
      </trkpt>
      <trkpt lat="45.86645" lon="6.45602">
        <ele>1679.56</ele>
        <time>2010-01-23T07:56:18Z</time>
      </trkpt>
      <trkpt lat="45.8664" lon="6.45601">
        <ele>1682.93</ele>
        <time>2010-01-23T07:56:28Z</time>
      </trkpt>
      <trkpt lat="45.86641" lon="6.45586">
        <ele>1684.85</ele>
        <time>2010-01-23T07:56:40Z</time>
      </trkpt>
      <trkpt lat="45.86641" lon="6.45586">
        <ele>1685.81</ele>
        <time>2010-01-23T07:56:41Z</time>
      </trkpt>
      <trkpt lat="45.86643" lon="6.45581">
        <ele>1687.25</ele>
        <time>2010-01-23T07:56:47Z</time>
      </trkpt>
      <trkpt lat="45.86642" lon="6.45576">
        <ele>1688.21</ele>
        <time>2010-01-23T07:56:52Z</time>
      </trkpt>
      <trkpt lat="45.86641" lon="6.45574">
        <ele>1690.14</ele>
        <time>2010-01-23T07:57:02Z</time>
      </trkpt>
      <trkpt lat="45.86638" lon="6.45576">
        <ele>1690.62</ele>
        <time>2010-01-23T07:57:06Z</time>
      </trkpt>
      <trkpt lat="45.86636" lon="6.45577">
        <ele>1693.02</ele>
        <time>2010-01-23T07:57:09Z</time>
      </trkpt>
      <trkpt lat="45.86631" lon="6.45581">
        <ele>1693.98</ele>
        <time>2010-01-23T07:57:20Z</time>
      </trkpt>
      <trkpt lat="45.86625" lon="6.45583">
        <ele>1695.9</ele>
        <time>2010-01-23T07:57:30Z</time>
      </trkpt>
      <trkpt lat="45.86625" lon="6.45581">
        <ele>1697.34</ele>
        <time>2010-01-23T07:57:33Z</time>
      </trkpt>
      <trkpt lat="45.86625" lon="6.45575">
        <ele>1698.31</ele>
        <time>2010-01-23T07:57:39Z</time>
      </trkpt>
      <trkpt lat="45.86625" lon="6.45572">
        <ele>1698.79</ele>
        <time>2010-01-23T07:57:42Z</time>
      </trkpt>
      <trkpt lat="45.86624" lon="6.45555">
        <ele>1700.71</ele>
        <time>2010-01-23T07:57:55Z</time>
      </trkpt>
      <trkpt lat="45.86622" lon="6.45553">
        <ele>1704.07</ele>
        <time>2010-01-23T07:58:01Z</time>
      </trkpt>
      <trkpt lat="45.86622" lon="6.45553">
        <ele>1704.07</ele>
        <time>2010-01-23T07:58:02Z</time>
      </trkpt>
      <trkpt lat="45.86617" lon="6.4556">
        <ele>1706</ele>
        <time>2010-01-23T07:58:14Z</time>
      </trkpt>
      <trkpt lat="45.86614" lon="6.45562">
        <ele>1705.52</ele>
        <time>2010-01-23T07:58:19Z</time>
      </trkpt>
      <trkpt lat="45.86613" lon="6.45563">
        <ele>1706.48</ele>
        <time>2010-01-23T07:58:21Z</time>
      </trkpt>
      <trkpt lat="45.8661" lon="6.45565">
        <ele>1707.92</ele>
        <time>2010-01-23T07:58:27Z</time>
      </trkpt>
      <trkpt lat="45.86608" lon="6.45558">
        <ele>1710.8</ele>
        <time>2010-01-23T07:58:38Z</time>
      </trkpt>
      <trkpt lat="45.86609" lon="6.45554">
        <ele>1711.76</ele>
        <time>2010-01-23T07:58:44Z</time>
      </trkpt>
      <trkpt lat="45.86608" lon="6.45552">
        <ele>1713.21</ele>
        <time>2010-01-23T07:58:47Z</time>
      </trkpt>
      <trkpt lat="45.86606" lon="6.45542">
        <ele>1714.65</ele>
        <time>2010-01-23T07:58:59Z</time>
      </trkpt>
      <trkpt lat="45.86602" lon="6.45546">
        <ele>1716.09</ele>
        <time>2010-01-23T07:59:08Z</time>
      </trkpt>
      <trkpt lat="45.86597" lon="6.45552">
        <ele>1718.97</ele>
        <time>2010-01-23T07:59:20Z</time>
      </trkpt>
      <trkpt lat="45.86594" lon="6.45549">
        <ele>1721.86</ele>
        <time>2010-01-23T07:59:32Z</time>
      </trkpt>
      <trkpt lat="45.86592" lon="6.45536">
        <ele>1725.22</ele>
        <time>2010-01-23T07:59:43Z</time>
      </trkpt>
      <trkpt lat="45.86592" lon="6.45535">
        <ele>1724.74</ele>
        <time>2010-01-23T07:59:44Z</time>
      </trkpt>
      <trkpt lat="45.86591" lon="6.45529">
        <ele>1726.18</ele>
        <time>2010-01-23T07:59:55Z</time>
      </trkpt>
      <trkpt lat="45.86588" lon="6.45533">
        <ele>1728.59</ele>
        <time>2010-01-23T08:00:03Z</time>
      </trkpt>
      <trkpt lat="45.86581" lon="6.45541">
        <ele>1730.51</ele>
        <time>2010-01-23T08:00:15Z</time>
      </trkpt>
      <trkpt lat="45.8658" lon="6.45543">
        <ele>1730.99</ele>
        <time>2010-01-23T08:00:18Z</time>
      </trkpt>
      <trkpt lat="45.86578" lon="6.45541">
        <ele>1732.43</ele>
        <time>2010-01-23T08:00:24Z</time>
      </trkpt>
      <trkpt lat="45.86576" lon="6.45533">
        <ele>1734.36</ele>
        <time>2010-01-23T08:00:33Z</time>
      </trkpt>
      <trkpt lat="45.86576" lon="6.45522">
        <ele>1736.76</ele>
        <time>2010-01-23T08:00:44Z</time>
      </trkpt>
      <trkpt lat="45.86577" lon="6.45515">
        <ele>1738.2</ele>
        <time>2010-01-23T08:00:55Z</time>
      </trkpt>
      <trkpt lat="45.86577" lon="6.45516">
        <ele>1737.72</ele>
        <time>2010-01-23T08:00:56Z</time>
      </trkpt>
      <trkpt lat="45.86571" lon="6.45524">
        <ele>1740.6</ele>
        <time>2010-01-23T08:01:07Z</time>
      </trkpt>
      <trkpt lat="45.86565" lon="6.45528">
        <ele>1741.57</ele>
        <time>2010-01-23T08:01:16Z</time>
      </trkpt>
      <trkpt lat="45.86563" lon="6.45532">
        <ele>1745.41</ele>
        <time>2010-01-23T08:01:22Z</time>
      </trkpt>
      <trkpt lat="45.86562" lon="6.45533">
        <ele>1745.89</ele>
        <time>2010-01-23T08:01:24Z</time>
      </trkpt>
      <trkpt lat="45.8656" lon="6.45523">
        <ele>1747.33</ele>
        <time>2010-01-23T08:01:36Z</time>
      </trkpt>
      <trkpt lat="45.8656" lon="6.45521">
        <ele>1747.81</ele>
        <time>2010-01-23T08:01:38Z</time>
      </trkpt>
      <trkpt lat="45.86559" lon="6.4551">
        <ele>1750.22</ele>
        <time>2010-01-23T08:01:49Z</time>
      </trkpt>
      <trkpt lat="45.86558" lon="6.45506">
        <ele>1751.66</ele>
        <time>2010-01-23T08:01:53Z</time>
      </trkpt>
      <trkpt lat="45.86558" lon="6.45504">
        <ele>1751.66</ele>
        <time>2010-01-23T08:01:55Z</time>
      </trkpt>
      <trkpt lat="45.86557" lon="6.45497">
        <ele>1753.58</ele>
        <time>2010-01-23T08:02:07Z</time>
      </trkpt>
      <trkpt lat="45.86555" lon="6.455">
        <ele>1754.54</ele>
        <time>2010-01-23T08:02:11Z</time>
      </trkpt>
      <trkpt lat="45.86548" lon="6.45513">
        <ele>1755.99</ele>
        <time>2010-01-23T08:02:23Z</time>
      </trkpt>
      <trkpt lat="45.86544" lon="6.45522">
        <ele>1757.91</ele>
        <time>2010-01-23T08:02:34Z</time>
      </trkpt>
      <trkpt lat="45.86542" lon="6.45523">
        <ele>1757.91</ele>
        <time>2010-01-23T08:02:38Z</time>
      </trkpt>
      <trkpt lat="45.86539" lon="6.45517">
        <ele>1760.79</ele>
        <time>2010-01-23T08:02:47Z</time>
      </trkpt>
      <trkpt lat="45.86539" lon="6.45516">
        <ele>1762.23</ele>
        <time>2010-01-23T08:02:52Z</time>
      </trkpt>
      <trkpt lat="45.86536" lon="6.45521">
        <ele>1764.16</ele>
        <time>2010-01-23T08:03:00Z</time>
      </trkpt>
      <trkpt lat="45.86536" lon="6.4551">
        <ele>1766.56</ele>
        <time>2010-01-23T08:03:12Z</time>
      </trkpt>
      <trkpt lat="45.86534" lon="6.45509">
        <ele>1767.52</ele>
        <time>2010-01-23T08:03:23Z</time>
      </trkpt>
      <trkpt lat="45.86529" lon="6.45517">
        <ele>1770.89</ele>
        <time>2010-01-23T08:03:34Z</time>
      </trkpt>
      <trkpt lat="45.86529" lon="6.45517">
        <ele>1770.41</ele>
        <time>2010-01-23T08:03:35Z</time>
      </trkpt>
      <trkpt lat="45.86526" lon="6.45522">
        <ele>1771.37</ele>
        <time>2010-01-23T08:03:41Z</time>
      </trkpt>
      <trkpt lat="45.86521" lon="6.45512">
        <ele>1774.25</ele>
        <time>2010-01-23T08:03:54Z</time>
      </trkpt>
      <trkpt lat="45.86519" lon="6.45509">
        <ele>1776.65</ele>
        <time>2010-01-23T08:04:04Z</time>
      </trkpt>
      <trkpt lat="45.86517" lon="6.45516">
        <ele>1778.58</ele>
        <time>2010-01-23T08:04:15Z</time>
      </trkpt>
      <trkpt lat="45.86514" lon="6.45522">
        <ele>1779.54</ele>
        <time>2010-01-23T08:04:25Z</time>
      </trkpt>
      <trkpt lat="45.86512" lon="6.45518">
        <ele>1781.94</ele>
        <time>2010-01-23T08:04:33Z</time>
      </trkpt>
      <trkpt lat="45.86508" lon="6.45508">
        <ele>1783.86</ele>
        <time>2010-01-23T08:04:45Z</time>
      </trkpt>
      <trkpt lat="45.86505" lon="6.45514">
        <ele>1785.79</ele>
        <time>2010-01-23T08:04:56Z</time>
      </trkpt>
      <trkpt lat="45.86505" lon="6.45515">
        <ele>1785.79</ele>
        <time>2010-01-23T08:04:58Z</time>
      </trkpt>
      <trkpt lat="45.86504" lon="6.45518">
        <ele>1787.23</ele>
        <time>2010-01-23T08:05:03Z</time>
      </trkpt>
      <trkpt lat="45.86503" lon="6.45519">
        <ele>1786.75</ele>
        <time>2010-01-23T08:05:05Z</time>
      </trkpt>
      <trkpt lat="45.86498" lon="6.45517">
        <ele>1789.63</ele>
        <time>2010-01-23T08:05:14Z</time>
      </trkpt>
      <trkpt lat="45.86494" lon="6.45505">
        <ele>1792.03</ele>
        <time>2010-01-23T08:05:28Z</time>
      </trkpt>
      <trkpt lat="45.86494" lon="6.45503">
        <ele>1792.03</ele>
        <time>2010-01-23T08:05:32Z</time>
      </trkpt>
      <trkpt lat="45.8649" lon="6.45508">
        <ele>1794.44</ele>
        <time>2010-01-23T08:05:42Z</time>
      </trkpt>
      <trkpt lat="45.8649" lon="6.45509">
        <ele>1795.4</ele>
        <time>2010-01-23T08:05:45Z</time>
      </trkpt>
      <trkpt lat="45.86486" lon="6.45514">
        <ele>1795.4</ele>
        <time>2010-01-23T08:05:54Z</time>
      </trkpt>
      <trkpt lat="45.86483" lon="6.45512">
        <ele>1799.24</ele>
        <time>2010-01-23T08:06:03Z</time>
      </trkpt>
      <trkpt lat="45.86479" lon="6.45504">
        <ele>1802.13</ele>
        <time>2010-01-23T08:06:13Z</time>
      </trkpt>
      <trkpt lat="45.86478" lon="6.45496">
        <ele>1803.57</ele>
        <time>2010-01-23T08:06:21Z</time>
      </trkpt>
      <trkpt lat="45.86478" lon="6.45488">
        <ele>1805.97</ele>
        <time>2010-01-23T08:06:32Z</time>
      </trkpt>
      <trkpt lat="45.86477" lon="6.4549">
        <ele>1806.45</ele>
        <time>2010-01-23T08:06:36Z</time>
      </trkpt>
      <trkpt lat="45.86472" lon="6.45496">
        <ele>1808.38</ele>
        <time>2010-01-23T08:06:47Z</time>
      </trkpt>
      <trkpt lat="45.86468" lon="6.45502">
        <ele>1810.3</ele>
        <time>2010-01-23T08:06:57Z</time>
      </trkpt>
      <trkpt lat="45.86464" lon="6.45496">
        <ele>1813.18</ele>
        <time>2010-01-23T08:07:08Z</time>
      </trkpt>
      <trkpt lat="45.86462" lon="6.45485">
        <ele>1816.07</ele>
        <time>2010-01-23T08:07:19Z</time>
      </trkpt>
      <trkpt lat="45.86462" lon="6.45482">
        <ele>1817.03</ele>
        <time>2010-01-23T08:07:29Z</time>
      </trkpt>
      <trkpt lat="45.86456" lon="6.45489">
        <ele>1818.47</ele>
        <time>2010-01-23T08:07:40Z</time>
      </trkpt>
      <trkpt lat="45.86453" lon="6.45496">
        <ele>1821.35</ele>
        <time>2010-01-23T08:07:51Z</time>
      </trkpt>
      <trkpt lat="45.86449" lon="6.45487">
        <ele>1823.28</ele>
        <time>2010-01-23T08:08:02Z</time>
      </trkpt>
      <trkpt lat="45.86447" lon="6.45475">
        <ele>1827.6</ele>
        <time>2010-01-23T08:08:16Z</time>
      </trkpt>
      <trkpt lat="45.86446" lon="6.45475">
        <ele>1828.56</ele>
        <time>2010-01-23T08:08:24Z</time>
      </trkpt>
      <trkpt lat="45.86443" lon="6.45479">
        <ele>1829.53</ele>
        <time>2010-01-23T08:08:31Z</time>
      </trkpt>
      <trkpt lat="45.8644" lon="6.45484">
        <ele>1830.97</ele>
        <time>2010-01-23T08:08:38Z</time>
      </trkpt>
      <trkpt lat="45.86439" lon="6.45485">
        <ele>1830.97</ele>
        <time>2010-01-23T08:08:39Z</time>
      </trkpt>
      <trkpt lat="45.86437" lon="6.45492">
        <ele>1832.89</ele>
        <time>2010-01-23T08:08:48Z</time>
      </trkpt>
      <trkpt lat="45.86432" lon="6.45485">
        <ele>1835.77</ele>
        <time>2010-01-23T08:09:00Z</time>
      </trkpt>
      <trkpt lat="45.8643" lon="6.45473">
        <ele>1837.7</ele>
        <time>2010-01-23T08:09:15Z</time>
      </trkpt>
      <trkpt lat="45.86428" lon="6.45476">
        <ele>1838.66</ele>
        <time>2010-01-23T08:09:22Z</time>
      </trkpt>
      <trkpt lat="45.86425" lon="6.45484">
        <ele>1841.54</ele>
        <time>2010-01-23T08:09:34Z</time>
      </trkpt>
      <trkpt lat="45.86423" lon="6.45486">
        <ele>1842.98</ele>
        <time>2010-01-23T08:09:38Z</time>
      </trkpt>
      <trkpt lat="45.86422" lon="6.45486">
        <ele>1842.98</ele>
        <time>2010-01-23T08:09:40Z</time>
      </trkpt>
      <trkpt lat="45.86419" lon="6.45475">
        <ele>1845.39</ele>
        <time>2010-01-23T08:09:52Z</time>
      </trkpt>
      <trkpt lat="45.86418" lon="6.45464">
        <ele>1847.31</ele>
        <time>2010-01-23T08:10:05Z</time>
      </trkpt>
      <trkpt lat="45.86416" lon="6.45466">
        <ele>1849.71</ele>
        <time>2010-01-23T08:10:12Z</time>
      </trkpt>
      <trkpt lat="45.8641" lon="6.45473">
        <ele>1852.12</ele>
        <time>2010-01-23T08:10:24Z</time>
      </trkpt>
      <trkpt lat="45.86408" lon="6.45477">
        <ele>1853.56</ele>
        <time>2010-01-23T08:10:30Z</time>
      </trkpt>
      <trkpt lat="45.86406" lon="6.45478">
        <ele>1854.04</ele>
        <time>2010-01-23T08:10:33Z</time>
      </trkpt>
      <trkpt lat="45.86401" lon="6.45465">
        <ele>1856.44</ele>
        <time>2010-01-23T08:10:49Z</time>
      </trkpt>
      <trkpt lat="45.864" lon="6.45463">
        <ele>1857.4</ele>
        <time>2010-01-23T08:10:51Z</time>
      </trkpt>
      <trkpt lat="45.86401" lon="6.45462">
        <ele>1856.44</ele>
        <time>2010-01-23T08:10:52Z</time>
      </trkpt>
      <trkpt lat="45.86405" lon="6.45447">
        <ele>1860.77</ele>
        <time>2010-01-23T08:11:07Z</time>
      </trkpt>
      <trkpt lat="45.86406" lon="6.45435">
        <ele>1863.65</ele>
        <time>2010-01-23T08:11:23Z</time>
      </trkpt>
      <trkpt lat="45.86406" lon="6.45436">
        <ele>1862.69</ele>
        <time>2010-01-23T08:11:24Z</time>
      </trkpt>
      <trkpt lat="45.864" lon="6.45439">
        <ele>1865.09</ele>
        <time>2010-01-23T08:11:36Z</time>
      </trkpt>
      <trkpt lat="45.86397" lon="6.4544">
        <ele>1867.98</ele>
        <time>2010-01-23T08:11:41Z</time>
      </trkpt>
      <trkpt lat="45.86392" lon="6.45443">
        <ele>1868.46</ele>
        <time>2010-01-23T08:11:51Z</time>
      </trkpt>
      <trkpt lat="45.86387" lon="6.45447">
        <ele>1872.3</ele>
        <time>2010-01-23T08:12:02Z</time>
      </trkpt>
      <trkpt lat="45.86384" lon="6.4545">
        <ele>1871.82</ele>
        <time>2010-01-23T08:12:07Z</time>
      </trkpt>
      <trkpt lat="45.8638" lon="6.45456">
        <ele>1874.23</ele>
        <time>2010-01-23T08:12:17Z</time>
      </trkpt>
      <trkpt lat="45.86379" lon="6.45458">
        <ele>1875.19</ele>
        <time>2010-01-23T08:12:19Z</time>
      </trkpt>
      <trkpt lat="45.86377" lon="6.45458">
        <ele>1875.19</ele>
        <time>2010-01-23T08:12:27Z</time>
      </trkpt>
      <trkpt lat="45.86372" lon="6.45444">
        <ele>1878.07</ele>
        <time>2010-01-23T08:12:40Z</time>
      </trkpt>
      <trkpt lat="45.86371" lon="6.45439">
        <ele>1880</ele>
        <time>2010-01-23T08:12:48Z</time>
      </trkpt>
      <trkpt lat="45.86371" lon="6.45432">
        <ele>1883.36</ele>
        <time>2010-01-23T08:12:57Z</time>
      </trkpt>
      <trkpt lat="45.86369" lon="6.45423">
        <ele>1883.84</ele>
        <time>2010-01-23T08:13:05Z</time>
      </trkpt>
      <trkpt lat="45.8637" lon="6.45414">
        <ele>1886.72</ele>
        <time>2010-01-23T08:13:16Z</time>
      </trkpt>
      <trkpt lat="45.86369" lon="6.45412">
        <ele>1888.65</ele>
        <time>2010-01-23T08:13:28Z</time>
      </trkpt>
      <trkpt lat="45.86369" lon="6.45412">
        <ele>1892.01</ele>
        <time>2010-01-23T08:13:43Z</time>
      </trkpt>
      <trkpt lat="45.86369" lon="6.45412">
        <ele>1887.69</ele>
        <time>2010-01-23T08:13:44Z</time>
      </trkpt>
      <trkpt lat="45.8637" lon="6.45412">
        <ele>1888.17</ele>
        <time>2010-01-23T08:13:57Z</time>
      </trkpt>
      <trkpt lat="45.86371" lon="6.45413">
        <ele>1889.13</ele>
        <time>2010-01-23T08:14:22Z</time>
      </trkpt>
      <trkpt lat="45.86371" lon="6.45411">
        <ele>1888.17</ele>
        <time>2010-01-23T08:14:33Z</time>
      </trkpt>
      <trkpt lat="45.86372" lon="6.45413">
        <ele>1889.61</ele>
        <time>2010-01-23T08:14:57Z</time>
      </trkpt>
      <trkpt lat="45.86371" lon="6.45413">
        <ele>1889.61</ele>
        <time>2010-01-23T08:15:15Z</time>
      </trkpt>
      <trkpt lat="45.86368" lon="6.45414">
        <ele>1891.53</ele>
        <time>2010-01-23T08:15:20Z</time>
      </trkpt>
      <trkpt lat="45.86361" lon="6.45414">
        <ele>1894.42</ele>
        <time>2010-01-23T08:15:32Z</time>
      </trkpt>
      <trkpt lat="45.86353" lon="6.45414">
        <ele>1896.82</ele>
        <time>2010-01-23T08:15:44Z</time>
      </trkpt>
      <trkpt lat="45.86348" lon="6.45415">
        <ele>1899.7</ele>
        <time>2010-01-23T08:15:55Z</time>
      </trkpt>
      <trkpt lat="45.86342" lon="6.45415">
        <ele>1900.66</ele>
        <time>2010-01-23T08:16:06Z</time>
      </trkpt>
      <trkpt lat="45.86341" lon="6.45408">
        <ele>1904.51</ele>
        <time>2010-01-23T08:16:16Z</time>
      </trkpt>
      <trkpt lat="45.86338" lon="6.45401">
        <ele>1906.43</ele>
        <time>2010-01-23T08:16:26Z</time>
      </trkpt>
      <trkpt lat="45.86338" lon="6.4539">
        <ele>1908.35</ele>
        <time>2010-01-23T08:16:38Z</time>
      </trkpt>
      <trkpt lat="45.86338" lon="6.45388">
        <ele>1909.8</ele>
        <time>2010-01-23T08:16:41Z</time>
      </trkpt>
      <trkpt lat="45.86338" lon="6.45382">
        <ele>1912.2</ele>
        <time>2010-01-23T08:16:49Z</time>
      </trkpt>
      <trkpt lat="45.86338" lon="6.45374">
        <ele>1913.64</ele>
        <time>2010-01-23T08:16:59Z</time>
      </trkpt>
      <trkpt lat="45.86339" lon="6.45364">
        <ele>1916.04</ele>
        <time>2010-01-23T08:17:10Z</time>
      </trkpt>
      <trkpt lat="45.86338" lon="6.45355">
        <ele>1918.93</ele>
        <time>2010-01-23T08:17:21Z</time>
      </trkpt>
      <trkpt lat="45.86335" lon="6.45357">
        <ele>1919.89</ele>
        <time>2010-01-23T08:17:31Z</time>
      </trkpt>
      <trkpt lat="45.86333" lon="6.45358">
        <ele>1923.25</ele>
        <time>2010-01-23T08:17:39Z</time>
      </trkpt>
      <trkpt lat="45.86332" lon="6.45358">
        <ele>1923.25</ele>
        <time>2010-01-23T08:17:50Z</time>
      </trkpt>
      <trkpt lat="45.86332" lon="6.45358">
        <ele>1923.25</ele>
        <time>2010-01-23T08:17:51Z</time>
      </trkpt>
      <trkpt lat="45.86326" lon="6.45359">
        <ele>1925.66</ele>
        <time>2010-01-23T08:18:02Z</time>
      </trkpt>
      <trkpt lat="45.86325" lon="6.45359">
        <ele>1927.1</ele>
        <time>2010-01-23T08:18:05Z</time>
      </trkpt>
      <trkpt lat="45.86321" lon="6.45358">
        <ele>1929.02</ele>
        <time>2010-01-23T08:18:13Z</time>
      </trkpt>
      <trkpt lat="45.86316" lon="6.45359">
        <ele>1931.91</ele>
        <time>2010-01-23T08:18:23Z</time>
      </trkpt>
      <trkpt lat="45.86313" lon="6.4536">
        <ele>1933.35</ele>
        <time>2010-01-23T08:18:30Z</time>
      </trkpt>
      <trkpt lat="45.86308" lon="6.45362">
        <ele>1935.75</ele>
        <time>2010-01-23T08:18:40Z</time>
      </trkpt>
      <trkpt lat="45.86302" lon="6.45362">
        <ele>1936.71</ele>
        <time>2010-01-23T08:18:52Z</time>
      </trkpt>
      <trkpt lat="45.86301" lon="6.45353">
        <ele>1940.08</ele>
        <time>2010-01-23T08:19:01Z</time>
      </trkpt>
      <trkpt lat="45.86299" lon="6.45342">
        <ele>1941.04</ele>
        <time>2010-01-23T08:19:11Z</time>
      </trkpt>
      <trkpt lat="45.86299" lon="6.45328">
        <ele>1944.4</ele>
        <time>2010-01-23T08:19:26Z</time>
      </trkpt>
      <trkpt lat="45.86302" lon="6.45316">
        <ele>1947.29</ele>
        <time>2010-01-23T08:19:40Z</time>
      </trkpt>
      <trkpt lat="45.86305" lon="6.45304">
        <ele>1949.21</ele>
        <time>2010-01-23T08:19:53Z</time>
      </trkpt>
      <trkpt lat="45.86308" lon="6.45293">
        <ele>1952.57</ele>
        <time>2010-01-23T08:20:07Z</time>
      </trkpt>
      <trkpt lat="45.86311" lon="6.45286">
        <ele>1954.98</ele>
        <time>2010-01-23T08:20:20Z</time>
      </trkpt>
      <trkpt lat="45.86314" lon="6.45275">
        <ele>1957.38</ele>
        <time>2010-01-23T08:20:33Z</time>
      </trkpt>
      <trkpt lat="45.86314" lon="6.45275">
        <ele>1957.38</ele>
        <time>2010-01-23T08:20:37Z</time>
      </trkpt>
      <trkpt lat="45.86313" lon="6.45277">
        <ele>1958.34</ele>
        <time>2010-01-23T08:20:40Z</time>
      </trkpt>
      <trkpt lat="45.86307" lon="6.45281">
        <ele>1961.71</ele>
        <time>2010-01-23T08:20:52Z</time>
      </trkpt>
      <trkpt lat="45.86298" lon="6.45287">
        <ele>1964.11</ele>
        <time>2010-01-23T08:21:09Z</time>
      </trkpt>
      <trkpt lat="45.86293" lon="6.45289">
        <ele>1966.03</ele>
        <time>2010-01-23T08:21:20Z</time>
      </trkpt>
      <trkpt lat="45.86286" lon="6.45291">
        <ele>1969.4</ele>
        <time>2010-01-23T08:21:33Z</time>
      </trkpt>
      <trkpt lat="45.86286" lon="6.45284">
        <ele>1969.88</ele>
        <time>2010-01-23T08:21:45Z</time>
      </trkpt>
      <trkpt lat="45.86286" lon="6.45278">
        <ele>1972.76</ele>
        <time>2010-01-23T08:22:13Z</time>
      </trkpt>
      <trkpt lat="45.86286" lon="6.45277">
        <ele>1973.24</ele>
        <time>2010-01-23T08:22:14Z</time>
      </trkpt>
      <trkpt lat="45.86285" lon="6.45268">
        <ele>1975.17</ele>
        <time>2010-01-23T08:22:22Z</time>
      </trkpt>
      <trkpt lat="45.86286" lon="6.45263">
        <ele>1977.09</ele>
        <time>2010-01-23T08:22:29Z</time>
      </trkpt>
      <trkpt lat="45.86286" lon="6.45255">
        <ele>1980.45</ele>
        <time>2010-01-23T08:22:39Z</time>
      </trkpt>
      <trkpt lat="45.86286" lon="6.45247">
        <ele>1981.9</ele>
        <time>2010-01-23T08:22:48Z</time>
      </trkpt>
      <trkpt lat="45.86285" lon="6.45245">
        <ele>1982.86</ele>
        <time>2010-01-23T08:22:58Z</time>
      </trkpt>
      <trkpt lat="45.86283" lon="6.45245">
        <ele>1984.78</ele>
        <time>2010-01-23T08:23:03Z</time>
      </trkpt>
      <trkpt lat="45.86277" lon="6.45246">
        <ele>1987.66</ele>
        <time>2010-01-23T08:23:15Z</time>
      </trkpt>
      <trkpt lat="45.86272" lon="6.45248">
        <ele>1989.59</ele>
        <time>2010-01-23T08:23:25Z</time>
      </trkpt>
      <trkpt lat="45.86269" lon="6.45248">
        <ele>1990.55</ele>
        <time>2010-01-23T08:23:34Z</time>
      </trkpt>
      <trkpt lat="45.86265" lon="6.45249">
        <ele>1993.91</ele>
        <time>2010-01-23T08:23:44Z</time>
      </trkpt>
      <trkpt lat="45.86261" lon="6.45251">
        <ele>1994.39</ele>
        <time>2010-01-23T08:23:55Z</time>
      </trkpt>
      <trkpt lat="45.8626" lon="6.45251">
        <ele>1997.28</ele>
        <time>2010-01-23T08:23:58Z</time>
      </trkpt>
      <trkpt lat="45.86256" lon="6.45254">
        <ele>1999.2</ele>
        <time>2010-01-23T08:24:08Z</time>
      </trkpt>
      <trkpt lat="45.86252" lon="6.45251">
        <ele>2002.08</ele>
        <time>2010-01-23T08:24:22Z</time>
      </trkpt>
      <trkpt lat="45.86251" lon="6.45246">
        <ele>2003.52</ele>
        <time>2010-01-23T08:24:28Z</time>
      </trkpt>
      <trkpt lat="45.86248" lon="6.45239">
        <ele>2005.93</ele>
        <time>2010-01-23T08:24:38Z</time>
      </trkpt>
      <trkpt lat="45.86246" lon="6.4523">
        <ele>2009.29</ele>
        <time>2010-01-23T08:24:52Z</time>
      </trkpt>
      <trkpt lat="45.86245" lon="6.45217">
        <ele>2012.18</ele>
        <time>2010-01-23T08:25:09Z</time>
      </trkpt>
      <trkpt lat="45.86245" lon="6.45204">
        <ele>2015.54</ele>
        <time>2010-01-23T08:25:22Z</time>
      </trkpt>
      <trkpt lat="45.86252" lon="6.45195">
        <ele>2017.94</ele>
        <time>2010-01-23T08:25:33Z</time>
      </trkpt>
      <trkpt lat="45.86253" lon="6.45191">
        <ele>2018.91</ele>
        <time>2010-01-23T08:25:39Z</time>
      </trkpt>
      <trkpt lat="45.86252" lon="6.45191">
        <ele>2020.83</ele>
        <time>2010-01-23T08:25:47Z</time>
      </trkpt>
      <trkpt lat="45.86249" lon="6.45193">
        <ele>2021.79</ele>
        <time>2010-01-23T08:25:54Z</time>
      </trkpt>
      <trkpt lat="45.86241" lon="6.45195">
        <ele>2024.19</ele>
        <time>2010-01-23T08:26:06Z</time>
      </trkpt>
      <trkpt lat="45.86238" lon="6.45196">
        <ele>2026.12</ele>
        <time>2010-01-23T08:26:12Z</time>
      </trkpt>
      <trkpt lat="45.86236" lon="6.45197">
        <ele>2028.52</ele>
        <time>2010-01-23T08:26:16Z</time>
      </trkpt>
      <trkpt lat="45.86233" lon="6.45199">
        <ele>2026.12</ele>
        <time>2010-01-23T08:26:23Z</time>
      </trkpt>
      <trkpt lat="45.86231" lon="6.45185">
        <ele>2031.4</ele>
        <time>2010-01-23T08:26:37Z</time>
      </trkpt>
      <trkpt lat="45.8623" lon="6.45178">
        <ele>2032.84</ele>
        <time>2010-01-23T08:26:44Z</time>
      </trkpt>
      <trkpt lat="45.86228" lon="6.45171">
        <ele>2035.25</ele>
        <time>2010-01-23T08:26:55Z</time>
      </trkpt>
      <trkpt lat="45.86227" lon="6.45173">
        <ele>2034.29</ele>
        <time>2010-01-23T08:26:58Z</time>
      </trkpt>
      <trkpt lat="45.86226" lon="6.45176">
        <ele>2035.73</ele>
        <time>2010-01-23T08:27:01Z</time>
      </trkpt>
      <trkpt lat="45.86222" lon="6.45184">
        <ele>2037.65</ele>
        <time>2010-01-23T08:27:12Z</time>
      </trkpt>
      <trkpt lat="45.8622" lon="6.45188">
        <ele>2038.61</ele>
        <time>2010-01-23T08:27:18Z</time>
      </trkpt>
      <trkpt lat="45.86215" lon="6.45194">
        <ele>2041.5</ele>
        <time>2010-01-23T08:27:30Z</time>
      </trkpt>
      <trkpt lat="45.86211" lon="6.45201">
        <ele>2043.9</ele>
        <time>2010-01-23T08:27:42Z</time>
      </trkpt>
      <trkpt lat="45.86206" lon="6.45207">
        <ele>2045.82</ele>
        <time>2010-01-23T08:27:54Z</time>
      </trkpt>
      <trkpt lat="45.86202" lon="6.45212">
        <ele>2048.71</ele>
        <time>2010-01-23T08:28:02Z</time>
      </trkpt>
      <trkpt lat="45.86197" lon="6.45218">
        <ele>2050.63</ele>
        <time>2010-01-23T08:28:13Z</time>
      </trkpt>
      <trkpt lat="45.86191" lon="6.45224">
        <ele>2052.55</ele>
        <time>2010-01-23T08:28:26Z</time>
      </trkpt>
      <trkpt lat="45.86183" lon="6.45232">
        <ele>2054.96</ele>
        <time>2010-01-23T08:28:39Z</time>
      </trkpt>
      <trkpt lat="45.86178" lon="6.45239">
        <ele>2055.92</ele>
        <time>2010-01-23T08:28:50Z</time>
      </trkpt>
      <trkpt lat="45.86177" lon="6.45245">
        <ele>2059.28</ele>
        <time>2010-01-23T08:29:03Z</time>
      </trkpt>
      <trkpt lat="45.86176" lon="6.45247">
        <ele>2060.24</ele>
        <time>2010-01-23T08:29:07Z</time>
      </trkpt>
      <trkpt lat="45.86173" lon="6.45255">
        <ele>2061.68</ele>
        <time>2010-01-23T08:29:18Z</time>
      </trkpt>
      <trkpt lat="45.8617" lon="6.45266">
        <ele>2063.61</ele>
        <time>2010-01-23T08:29:31Z</time>
      </trkpt>
      <trkpt lat="45.8617" lon="6.45268">
        <ele>2063.13</ele>
        <time>2010-01-23T08:29:34Z</time>
      </trkpt>
      <trkpt lat="45.86168" lon="6.45281">
        <ele>2065.53</ele>
        <time>2010-01-23T08:29:47Z</time>
      </trkpt>
      <trkpt lat="45.86166" lon="6.45293">
        <ele>2066.49</ele>
        <time>2010-01-23T08:29:59Z</time>
      </trkpt>
      <trkpt lat="45.86166" lon="6.45295">
        <ele>2067.93</ele>
        <time>2010-01-23T08:30:01Z</time>
      </trkpt>
      <trkpt lat="45.86163" lon="6.45295">
        <ele>2068.89</ele>
        <time>2010-01-23T08:30:12Z</time>
      </trkpt>
      <trkpt lat="45.86158" lon="6.4529">
        <ele>2070.34</ele>
        <time>2010-01-23T08:30:20Z</time>
      </trkpt>
      <trkpt lat="45.86149" lon="6.45279">
        <ele>2073.7</ele>
        <time>2010-01-23T08:30:34Z</time>
      </trkpt>
      <trkpt lat="45.86148" lon="6.4528">
        <ele>2074.66</ele>
        <time>2010-01-23T08:30:46Z</time>
      </trkpt>
      <trkpt lat="45.86148" lon="6.45291">
        <ele>2077.07</ele>
        <time>2010-01-23T08:30:58Z</time>
      </trkpt>
      <trkpt lat="45.86148" lon="6.45297">
        <ele>2078.03</ele>
        <time>2010-01-23T08:31:05Z</time>
      </trkpt>
      <trkpt lat="45.8615" lon="6.45303">
        <ele>2079.47</ele>
        <time>2010-01-23T08:31:11Z</time>
      </trkpt>
      <trkpt lat="45.86143" lon="6.45299">
        <ele>2080.91</ele>
        <time>2010-01-23T08:31:24Z</time>
      </trkpt>
      <trkpt lat="45.86143" lon="6.45298">
        <ele>2080.91</ele>
        <time>2010-01-23T08:31:25Z</time>
      </trkpt>
      <trkpt lat="45.86139" lon="6.45292">
        <ele>2081.87</ele>
        <time>2010-01-23T08:31:33Z</time>
      </trkpt>
      <trkpt lat="45.86135" lon="6.45278">
        <ele>2084.76</ele>
        <time>2010-01-23T08:31:49Z</time>
      </trkpt>
      <trkpt lat="45.86135" lon="6.45277">
        <ele>2085.72</ele>
        <time>2010-01-23T08:31:51Z</time>
      </trkpt>
      <trkpt lat="45.86135" lon="6.45281">
        <ele>2087.16</ele>
        <time>2010-01-23T08:32:01Z</time>
      </trkpt>
      <trkpt lat="45.86134" lon="6.45291">
        <ele>2088.6</ele>
        <time>2010-01-23T08:32:13Z</time>
      </trkpt>
      <trkpt lat="45.86134" lon="6.45303">
        <ele>2090.04</ele>
        <time>2010-01-23T08:32:24Z</time>
      </trkpt>
      <trkpt lat="45.86137" lon="6.45309">
        <ele>2091</ele>
        <time>2010-01-23T08:32:32Z</time>
      </trkpt>
      <trkpt lat="45.86139" lon="6.45319">
        <ele>2093.89</ele>
        <time>2010-01-23T08:32:42Z</time>
      </trkpt>
      <trkpt lat="45.8614" lon="6.45324">
        <ele>2095.33</ele>
        <time>2010-01-23T08:32:48Z</time>
      </trkpt>
      <trkpt lat="45.86132" lon="6.45324">
        <ele>2097.73</ele>
        <time>2010-01-23T08:33:00Z</time>
      </trkpt>
      <trkpt lat="45.86122" lon="6.4532">
        <ele>2100.14</ele>
        <time>2010-01-23T08:33:15Z</time>
      </trkpt>
      <trkpt lat="45.86113" lon="6.45311">
        <ele>2101.58</ele>
        <time>2010-01-23T08:33:28Z</time>
      </trkpt>
      <trkpt lat="45.86111" lon="6.45307">
        <ele>2103.5</ele>
        <time>2010-01-23T08:33:33Z</time>
      </trkpt>
      <trkpt lat="45.86106" lon="6.45295">
        <ele>2105.42</ele>
        <time>2010-01-23T08:33:47Z</time>
      </trkpt>
      <trkpt lat="45.86108" lon="6.45294">
        <ele>2107.35</ele>
        <time>2010-01-23T08:34:00Z</time>
      </trkpt>
      <trkpt lat="45.86108" lon="6.45297">
        <ele>2107.83</ele>
        <time>2010-01-23T08:34:04Z</time>
      </trkpt>
      <trkpt lat="45.86107" lon="6.45311">
        <ele>2109.27</ele>
        <time>2010-01-23T08:34:18Z</time>
      </trkpt>
      <trkpt lat="45.86107" lon="6.45323">
        <ele>2111.67</ele>
        <time>2010-01-23T08:34:30Z</time>
      </trkpt>
      <trkpt lat="45.86105" lon="6.4533">
        <ele>2112.63</ele>
        <time>2010-01-23T08:34:43Z</time>
      </trkpt>
      <trkpt lat="45.86102" lon="6.45338">
        <ele>2114.56</ele>
        <time>2010-01-23T08:34:51Z</time>
      </trkpt>
      <trkpt lat="45.86091" lon="6.45341">
        <ele>2117.92</ele>
        <time>2010-01-23T08:35:03Z</time>
      </trkpt>
      <trkpt lat="45.86083" lon="6.4533">
        <ele>2119.36</ele>
        <time>2010-01-23T08:35:18Z</time>
      </trkpt>
      <trkpt lat="45.86079" lon="6.45316">
        <ele>2123.21</ele>
        <time>2010-01-23T08:35:33Z</time>
      </trkpt>
      <trkpt lat="45.86077" lon="6.45296">
        <ele>2124.65</ele>
        <time>2010-01-23T08:35:48Z</time>
      </trkpt>
      <trkpt lat="45.86076" lon="6.45285">
        <ele>2126.09</ele>
        <time>2010-01-23T08:35:58Z</time>
      </trkpt>
      <trkpt lat="45.86076" lon="6.45274">
        <ele>2128.5</ele>
        <time>2010-01-23T08:36:09Z</time>
      </trkpt>
      <trkpt lat="45.86079" lon="6.45259">
        <ele>2129.46</ele>
        <time>2010-01-23T08:36:22Z</time>
      </trkpt>
      <trkpt lat="45.8608" lon="6.45256">
        <ele>2131.38</ele>
        <time>2010-01-23T08:36:35Z</time>
      </trkpt>
      <trkpt lat="45.86079" lon="6.45259">
        <ele>2133.3</ele>
        <time>2010-01-23T08:36:38Z</time>
      </trkpt>
      <trkpt lat="45.86074" lon="6.45268">
        <ele>2133.3</ele>
        <time>2010-01-23T08:36:51Z</time>
      </trkpt>
      <trkpt lat="45.86071" lon="6.45274">
        <ele>2136.19</ele>
        <time>2010-01-23T08:37:00Z</time>
      </trkpt>
      <trkpt lat="45.86069" lon="6.45272">
        <ele>2139.07</ele>
        <time>2010-01-23T08:37:10Z</time>
      </trkpt>
      <trkpt lat="45.86065" lon="6.45258">
        <ele>2141.47</ele>
        <time>2010-01-23T08:37:26Z</time>
      </trkpt>
      <trkpt lat="45.86063" lon="6.45247">
        <ele>2143.4</ele>
        <time>2010-01-23T08:37:38Z</time>
      </trkpt>
      <trkpt lat="45.86062" lon="6.45245">
        <ele>2145.8</ele>
        <time>2010-01-23T08:37:52Z</time>
      </trkpt>
      <trkpt lat="45.8606" lon="6.45251">
        <ele>2148.2</ele>
        <time>2010-01-23T08:38:03Z</time>
      </trkpt>
      <trkpt lat="45.86059" lon="6.4524">
        <ele>2150.61</ele>
        <time>2010-01-23T08:38:15Z</time>
      </trkpt>
      <trkpt lat="45.8606" lon="6.45227">
        <ele>2153.01</ele>
        <time>2010-01-23T08:38:28Z</time>
      </trkpt>
      <trkpt lat="45.86059" lon="6.45228">
        <ele>2153.97</ele>
        <time>2010-01-23T08:38:43Z</time>
      </trkpt>
      <trkpt lat="45.86056" lon="6.45232">
        <ele>2155.89</ele>
        <time>2010-01-23T08:38:48Z</time>
      </trkpt>
      <trkpt lat="45.86052" lon="6.45242">
        <ele>2158.78</ele>
        <time>2010-01-23T08:39:00Z</time>
      </trkpt>
      <trkpt lat="45.86051" lon="6.45243">
        <ele>2158.78</ele>
        <time>2010-01-23T08:39:02Z</time>
      </trkpt>
      <trkpt lat="45.86048" lon="6.45232">
        <ele>2160.22</ele>
        <time>2010-01-23T08:39:15Z</time>
      </trkpt>
      <trkpt lat="45.86049" lon="6.45223">
        <ele>2162.62</ele>
        <time>2010-01-23T08:39:25Z</time>
      </trkpt>
      <trkpt lat="45.8605" lon="6.4521">
        <ele>2165.03</ele>
        <time>2010-01-23T08:39:40Z</time>
      </trkpt>
      <trkpt lat="45.8605" lon="6.45211">
        <ele>2164.06</ele>
        <time>2010-01-23T08:39:43Z</time>
      </trkpt>
      <trkpt lat="45.86043" lon="6.45222">
        <ele>2166.95</ele>
        <time>2010-01-23T08:39:57Z</time>
      </trkpt>
      <trkpt lat="45.86042" lon="6.45228">
        <ele>2166.47</ele>
        <time>2010-01-23T08:40:03Z</time>
      </trkpt>
      <trkpt lat="45.8604" lon="6.45237">
        <ele>2168.87</ele>
        <time>2010-01-23T08:40:11Z</time>
      </trkpt>
      <trkpt lat="45.86036" lon="6.45233">
        <ele>2170.79</ele>
        <time>2010-01-23T08:40:22Z</time>
      </trkpt>
      <trkpt lat="45.86036" lon="6.45215">
        <ele>2174.64</ele>
        <time>2010-01-23T08:40:38Z</time>
      </trkpt>
      <trkpt lat="45.86032" lon="6.45221">
        <ele>2175.6</ele>
        <time>2010-01-23T08:40:55Z</time>
      </trkpt>
      <trkpt lat="45.86029" lon="6.45229">
        <ele>2177.52</ele>
        <time>2010-01-23T08:41:06Z</time>
      </trkpt>
      <trkpt lat="45.86025" lon="6.45236">
        <ele>2178.97</ele>
        <time>2010-01-23T08:41:19Z</time>
      </trkpt>
      <trkpt lat="45.86023" lon="6.45221">
        <ele>2181.85</ele>
        <time>2010-01-23T08:41:34Z</time>
      </trkpt>
      <trkpt lat="45.8602" lon="6.45212">
        <ele>2185.21</ele>
        <time>2010-01-23T08:41:46Z</time>
      </trkpt>
      <trkpt lat="45.86018" lon="6.45217">
        <ele>2186.18</ele>
        <time>2010-01-23T08:41:58Z</time>
      </trkpt>
      <trkpt lat="45.86016" lon="6.45227">
        <ele>2187.62</ele>
        <time>2010-01-23T08:42:10Z</time>
      </trkpt>
      <trkpt lat="45.86015" lon="6.45232">
        <ele>2189.06</ele>
        <time>2010-01-23T08:42:16Z</time>
      </trkpt>
      <trkpt lat="45.86013" lon="6.45231">
        <ele>2190.5</ele>
        <time>2010-01-23T08:42:26Z</time>
      </trkpt>
      <trkpt lat="45.86009" lon="6.45221">
        <ele>2191.94</ele>
        <time>2010-01-23T08:42:40Z</time>
      </trkpt>
      <trkpt lat="45.86007" lon="6.45227">
        <ele>2193.87</ele>
        <time>2010-01-23T08:42:52Z</time>
      </trkpt>
      <trkpt lat="45.86005" lon="6.45235">
        <ele>2197.23</ele>
        <time>2010-01-23T08:43:04Z</time>
      </trkpt>
      <trkpt lat="45.86003" lon="6.45232">
        <ele>2197.71</ele>
        <time>2010-01-23T08:43:14Z</time>
      </trkpt>
      <trkpt lat="45.86001" lon="6.45221">
        <ele>2200.11</ele>
        <time>2010-01-23T08:43:24Z</time>
      </trkpt>
      <trkpt lat="45.86001" lon="6.45216">
        <ele>2200.59</ele>
        <time>2010-01-23T08:43:37Z</time>
      </trkpt>
      <trkpt lat="45.86001" lon="6.45217">
        <ele>2201.56</ele>
        <time>2010-01-23T08:43:39Z</time>
      </trkpt>
      <trkpt lat="45.85997" lon="6.45224">
        <ele>2203</ele>
        <time>2010-01-23T08:43:49Z</time>
      </trkpt>
      <trkpt lat="45.85996" lon="6.4523">
        <ele>2205.4</ele>
        <time>2010-01-23T08:43:57Z</time>
      </trkpt>
      <trkpt lat="45.86" lon="6.4524">
        <ele>2207.81</ele>
        <time>2010-01-23T08:44:09Z</time>
      </trkpt>
      <trkpt lat="45.86" lon="6.45242">
        <ele>2207.81</ele>
        <time>2010-01-23T08:44:12Z</time>
      </trkpt>
      <trkpt lat="45.85992" lon="6.45231">
        <ele>2210.69</ele>
        <time>2010-01-23T08:44:24Z</time>
      </trkpt>
      <trkpt lat="45.85988" lon="6.45218">
        <ele>2211.17</ele>
        <time>2010-01-23T08:44:37Z</time>
      </trkpt>
      <trkpt lat="45.85987" lon="6.45216">
        <ele>2212.13</ele>
        <time>2010-01-23T08:44:39Z</time>
      </trkpt>
      <trkpt lat="45.85985" lon="6.4521">
        <ele>2214.53</ele>
        <time>2010-01-23T08:44:56Z</time>
      </trkpt>
      <trkpt lat="45.85984" lon="6.45218">
        <ele>2215.5</ele>
        <time>2010-01-23T08:45:05Z</time>
      </trkpt>
      <trkpt lat="45.85985" lon="6.45225">
        <ele>2215.98</ele>
        <time>2010-01-23T08:45:18Z</time>
      </trkpt>
      <trkpt lat="45.85984" lon="6.45224">
        <ele>2217.42</ele>
        <time>2010-01-23T08:45:21Z</time>
      </trkpt>
      <trkpt lat="45.85982" lon="6.45219">
        <ele>2218.86</ele>
        <time>2010-01-23T08:45:27Z</time>
      </trkpt>
      <trkpt lat="45.8598" lon="6.45216">
        <ele>2219.82</ele>
        <time>2010-01-23T08:45:32Z</time>
      </trkpt>
      <trkpt lat="45.85976" lon="6.45211">
        <ele>2220.3</ele>
        <time>2010-01-23T08:45:45Z</time>
      </trkpt>
      <trkpt lat="45.85976" lon="6.45216">
        <ele>2222.71</ele>
        <time>2010-01-23T08:45:54Z</time>
      </trkpt>
      <trkpt lat="45.85976" lon="6.45217">
        <ele>2222.71</ele>
        <time>2010-01-23T08:45:57Z</time>
      </trkpt>
      <trkpt lat="45.85978" lon="6.45226">
        <ele>2223.67</ele>
        <time>2010-01-23T08:46:09Z</time>
      </trkpt>
      <trkpt lat="45.85979" lon="6.4523">
        <ele>2225.59</ele>
        <time>2010-01-23T08:46:22Z</time>
      </trkpt>
      <trkpt lat="45.85977" lon="6.45227">
        <ele>2227.03</ele>
        <time>2010-01-23T08:46:40Z</time>
      </trkpt>
      <trkpt lat="45.85968" lon="6.45219">
        <ele>2228.95</ele>
        <time>2010-01-23T08:46:55Z</time>
      </trkpt>
      <trkpt lat="45.85968" lon="6.45218">
        <ele>2229.92</ele>
        <time>2010-01-23T08:46:57Z</time>
      </trkpt>
      <trkpt lat="45.85964" lon="6.45211">
        <ele>2231.84</ele>
        <time>2010-01-23T08:47:09Z</time>
      </trkpt>
      <trkpt lat="45.85964" lon="6.452">
        <ele>2233.76</ele>
        <time>2010-01-23T08:47:20Z</time>
      </trkpt>
      <trkpt lat="45.85964" lon="6.452">
        <ele>2233.76</ele>
        <time>2010-01-23T08:47:22Z</time>
      </trkpt>
      <trkpt lat="45.8596" lon="6.45209">
        <ele>2235.68</ele>
        <time>2010-01-23T08:47:32Z</time>
      </trkpt>
      <trkpt lat="45.8596" lon="6.45212">
        <ele>2237.13</ele>
        <time>2010-01-23T08:47:35Z</time>
      </trkpt>
      <trkpt lat="45.8596" lon="6.45218">
        <ele>2238.09</ele>
        <time>2010-01-23T08:47:47Z</time>
      </trkpt>
      <trkpt lat="45.85959" lon="6.45215">
        <ele>2238.57</ele>
        <time>2010-01-23T08:47:50Z</time>
      </trkpt>
      <trkpt lat="45.85953" lon="6.45203">
        <ele>2242.41</ele>
        <time>2010-01-23T08:48:03Z</time>
      </trkpt>
      <trkpt lat="45.85951" lon="6.45199">
        <ele>2244.33</ele>
        <time>2010-01-23T08:48:11Z</time>
      </trkpt>
      <trkpt lat="45.85948" lon="6.45199">
        <ele>2244.82</ele>
        <time>2010-01-23T08:48:22Z</time>
      </trkpt>
      <trkpt lat="45.85948" lon="6.45201">
        <ele>2243.37</ele>
        <time>2010-01-23T08:48:37Z</time>
      </trkpt>
      <trkpt lat="45.85948" lon="6.45201">
        <ele>2244.82</ele>
        <time>2010-01-23T08:48:50Z</time>
      </trkpt>
      <trkpt lat="45.8595" lon="6.45199">
        <ele>2243.85</ele>
        <time>2010-01-23T08:49:04Z</time>
      </trkpt>
      <trkpt lat="45.85949" lon="6.452">
        <ele>2243.37</ele>
        <time>2010-01-23T08:49:27Z</time>
      </trkpt>
      <trkpt lat="45.85949" lon="6.45201">
        <ele>2242.89</ele>
        <time>2010-01-23T08:49:40Z</time>
      </trkpt>
      <trkpt lat="45.85949" lon="6.45201">
        <ele>2238.09</ele>
        <time>2010-01-23T08:50:23Z</time>
      </trkpt>
      <trkpt lat="45.85949" lon="6.45201">
        <ele>2241.93</ele>
        <time>2010-01-23T08:50:24Z</time>
      </trkpt>
      <trkpt lat="45.85949" lon="6.45201">
        <ele>2243.37</ele>
        <time>2010-01-23T08:50:26Z</time>
      </trkpt>
      <trkpt lat="45.85949" lon="6.45201">
        <ele>2243.85</ele>
        <time>2010-01-23T08:50:34Z</time>
      </trkpt>
      <trkpt lat="45.85947" lon="6.45203">
        <ele>2242.41</ele>
        <time>2010-01-23T08:50:49Z</time>
      </trkpt>
      <trkpt lat="45.85947" lon="6.45203">
        <ele>2243.85</ele>
        <time>2010-01-23T08:50:52Z</time>
      </trkpt>
      <trkpt lat="45.85947" lon="6.45203">
        <ele>2242.89</ele>
        <time>2010-01-23T08:51:17Z</time>
      </trkpt>
      <trkpt lat="45.85947" lon="6.45203">
        <ele>2242.41</ele>
        <time>2010-01-23T08:51:32Z</time>
      </trkpt>
      <trkpt lat="45.85947" lon="6.45203">
        <ele>2242.41</ele>
        <time>2010-01-23T08:52:09Z</time>
      </trkpt>
      <trkpt lat="45.85946" lon="6.45203">
        <ele>2241.93</ele>
        <time>2010-01-23T08:53:37Z</time>
      </trkpt>
      <trkpt lat="45.85947" lon="6.45203">
        <ele>2242.41</ele>
        <time>2010-01-23T08:54:31Z</time>
      </trkpt>
      <trkpt lat="45.85946" lon="6.45201">
        <ele>2241.45</ele>
        <time>2010-01-23T08:54:48Z</time>
      </trkpt>
      <trkpt lat="45.85946" lon="6.452">
        <ele>2240.49</ele>
        <time>2010-01-23T08:55:14Z</time>
      </trkpt>
      <trkpt lat="45.85943" lon="6.45197">
        <ele>2239.53</ele>
        <time>2010-01-23T08:55:19Z</time>
      </trkpt>
      <trkpt lat="45.85946" lon="6.45192">
        <ele>2238.09</ele>
        <time>2010-01-23T08:55:33Z</time>
      </trkpt>
      <trkpt lat="45.85946" lon="6.45192">
        <ele>2236.16</ele>
        <time>2010-01-23T08:55:49Z</time>
      </trkpt>
      <trkpt lat="45.85941" lon="6.45189">
        <ele>2233.76</ele>
        <time>2010-01-23T08:55:54Z</time>
      </trkpt>
      <trkpt lat="45.85935" lon="6.45187">
        <ele>2232.32</ele>
        <time>2010-01-23T08:55:58Z</time>
      </trkpt>
      <trkpt lat="45.85934" lon="6.45185">
        <ele>2230.4</ele>
        <time>2010-01-23T08:56:00Z</time>
      </trkpt>
      <trkpt lat="45.85934" lon="6.4518">
        <ele>2227.03</ele>
        <time>2010-01-23T08:56:03Z</time>
      </trkpt>
      <trkpt lat="45.85934" lon="6.45177">
        <ele>2227.99</ele>
        <time>2010-01-23T08:56:04Z</time>
      </trkpt>
      <trkpt lat="45.85938" lon="6.45171">
        <ele>2224.15</ele>
        <time>2010-01-23T08:56:07Z</time>
      </trkpt>
      <trkpt lat="45.85928" lon="6.45166">
        <ele>2220.78</ele>
        <time>2010-01-23T08:56:13Z</time>
      </trkpt>
      <trkpt lat="45.85924" lon="6.45169">
        <ele>2220.3</ele>
        <time>2010-01-23T08:56:25Z</time>
      </trkpt>
      <trkpt lat="45.85924" lon="6.45168">
        <ele>2221.26</ele>
        <time>2010-01-23T08:56:42Z</time>
      </trkpt>
      <trkpt lat="45.85921" lon="6.45167">
        <ele>2219.34</ele>
        <time>2010-01-23T08:56:45Z</time>
      </trkpt>
      <trkpt lat="45.85918" lon="6.45163">
        <ele>2214.53</ele>
        <time>2010-01-23T08:56:48Z</time>
      </trkpt>
      <trkpt lat="45.85918" lon="6.45156">
        <ele>2211.17</ele>
        <time>2010-01-23T08:56:51Z</time>
      </trkpt>
      <trkpt lat="45.85917" lon="6.45152">
        <ele>2210.21</ele>
        <time>2010-01-23T08:56:53Z</time>
      </trkpt>
      <trkpt lat="45.85903" lon="6.45142">
        <ele>2203.96</ele>
        <time>2010-01-23T08:57:01Z</time>
      </trkpt>
      <trkpt lat="45.85902" lon="6.45143">
        <ele>2203</ele>
        <time>2010-01-23T08:57:14Z</time>
      </trkpt>
      <trkpt lat="45.85902" lon="6.45141">
        <ele>2198.19</ele>
        <time>2010-01-23T08:57:16Z</time>
      </trkpt>
      <trkpt lat="45.85902" lon="6.45139">
        <ele>2198.19</ele>
        <time>2010-01-23T08:57:17Z</time>
      </trkpt>
      <trkpt lat="45.85902" lon="6.45132">
        <ele>2193.39</ele>
        <time>2010-01-23T08:57:19Z</time>
      </trkpt>
      <trkpt lat="45.85901" lon="6.45125">
        <ele>2189.06</ele>
        <time>2010-01-23T08:57:21Z</time>
      </trkpt>
      <trkpt lat="45.85897" lon="6.45113">
        <ele>2183.29</ele>
        <time>2010-01-23T08:57:24Z</time>
      </trkpt>
      <trkpt lat="45.85896" lon="6.45109">
        <ele>2182.81</ele>
        <time>2010-01-23T08:57:25Z</time>
      </trkpt>
      <trkpt lat="45.85894" lon="6.45104">
        <ele>2178.97</ele>
        <time>2010-01-23T08:57:26Z</time>
      </trkpt>
      <trkpt lat="45.85893" lon="6.45098">
        <ele>2174.64</ele>
        <time>2010-01-23T08:57:27Z</time>
      </trkpt>
      <trkpt lat="45.85889" lon="6.45086">
        <ele>2170.31</ele>
        <time>2010-01-23T08:57:29Z</time>
      </trkpt>
      <trkpt lat="45.85887" lon="6.45075">
        <ele>2169.35</ele>
        <time>2010-01-23T08:57:31Z</time>
      </trkpt>
      <trkpt lat="45.85886" lon="6.45069">
        <ele>2167.91</ele>
        <time>2010-01-23T08:57:34Z</time>
      </trkpt>
      <trkpt lat="45.85887" lon="6.4507">
        <ele>2168.39</ele>
        <time>2010-01-23T08:57:53Z</time>
      </trkpt>
      <trkpt lat="45.85886" lon="6.4507">
        <ele>2168.39</ele>
        <time>2010-01-23T08:58:21Z</time>
      </trkpt>
      <trkpt lat="45.85881" lon="6.4506">
        <ele>2163.58</ele>
        <time>2010-01-23T08:58:25Z</time>
      </trkpt>
      <trkpt lat="45.85877" lon="6.45051">
        <ele>2159.74</ele>
        <time>2010-01-23T08:58:27Z</time>
      </trkpt>
      <trkpt lat="45.85874" lon="6.45042">
        <ele>2154.45</ele>
        <time>2010-01-23T08:58:29Z</time>
      </trkpt>
      <trkpt lat="45.85874" lon="6.45037">
        <ele>2154.45</ele>
        <time>2010-01-23T08:58:30Z</time>
      </trkpt>
      <trkpt lat="45.85874" lon="6.45032">
        <ele>2149.65</ele>
        <time>2010-01-23T08:58:31Z</time>
      </trkpt>
      <trkpt lat="45.85874" lon="6.45028">
        <ele>2150.13</ele>
        <time>2010-01-23T08:58:32Z</time>
      </trkpt>
      <trkpt lat="45.85875" lon="6.45023">
        <ele>2146.28</ele>
        <time>2010-01-23T08:58:33Z</time>
      </trkpt>
      <trkpt lat="45.85875" lon="6.4502">
        <ele>2147.72</ele>
        <time>2010-01-23T08:58:34Z</time>
      </trkpt>
      <trkpt lat="45.85875" lon="6.45018">
        <ele>2145.8</ele>
        <time>2010-01-23T08:58:45Z</time>
      </trkpt>
      <trkpt lat="45.85876" lon="6.45014">
        <ele>2140.51</ele>
        <time>2010-01-23T08:58:48Z</time>
      </trkpt>
      <trkpt lat="45.85877" lon="6.45007">
        <ele>2137.63</ele>
        <time>2010-01-23T08:58:50Z</time>
      </trkpt>
      <trkpt lat="45.85876" lon="6.45003">
        <ele>2137.15</ele>
        <time>2010-01-23T08:58:51Z</time>
      </trkpt>
      <trkpt lat="45.85876" lon="6.44998">
        <ele>2134.26</ele>
        <time>2010-01-23T08:58:52Z</time>
      </trkpt>
      <trkpt lat="45.85877" lon="6.44995">
        <ele>2134.74</ele>
        <time>2010-01-23T08:58:53Z</time>
      </trkpt>
      <trkpt lat="45.85883" lon="6.44994">
        <ele>2132.82</ele>
        <time>2010-01-23T08:59:08Z</time>
      </trkpt>
      <trkpt lat="45.85882" lon="6.44994">
        <ele>2131.86</ele>
        <time>2010-01-23T08:59:21Z</time>
      </trkpt>
      <trkpt lat="45.85884" lon="6.44994">
        <ele>2132.34</ele>
        <time>2010-01-23T08:59:43Z</time>
      </trkpt>
      <trkpt lat="45.85883" lon="6.44994">
        <ele>2132.34</ele>
        <time>2010-01-23T08:59:54Z</time>
      </trkpt>
      <trkpt lat="45.85883" lon="6.44994">
        <ele>2130.42</ele>
        <time>2010-01-23T08:59:57Z</time>
      </trkpt>
      <trkpt lat="45.85883" lon="6.44992">
        <ele>2127.53</ele>
        <time>2010-01-23T08:59:59Z</time>
      </trkpt>
      <trkpt lat="45.85882" lon="6.44985">
        <ele>2122.73</ele>
        <time>2010-01-23T09:00:01Z</time>
      </trkpt>
      <trkpt lat="45.85881" lon="6.44975">
        <ele>2117.92</ele>
        <time>2010-01-23T09:00:03Z</time>
      </trkpt>
      <trkpt lat="45.85879" lon="6.44961">
        <ele>2113.6</ele>
        <time>2010-01-23T09:00:05Z</time>
      </trkpt>
      <trkpt lat="45.85879" lon="6.44953">
        <ele>2109.75</ele>
        <time>2010-01-23T09:00:06Z</time>
      </trkpt>
      <trkpt lat="45.85878" lon="6.44946">
        <ele>2109.75</ele>
        <time>2010-01-23T09:00:07Z</time>
      </trkpt>
      <trkpt lat="45.85877" lon="6.44939">
        <ele>2105.42</ele>
        <time>2010-01-23T09:00:08Z</time>
      </trkpt>
      <trkpt lat="45.85874" lon="6.44926">
        <ele>2099.18</ele>
        <time>2010-01-23T09:00:10Z</time>
      </trkpt>
      <trkpt lat="45.85869" lon="6.449">
        <ele>2091.97</ele>
        <time>2010-01-23T09:00:14Z</time>
      </trkpt>
      <trkpt lat="45.85868" lon="6.44881">
        <ele>2082.83</ele>
        <time>2010-01-23T09:00:17Z</time>
      </trkpt>
      <trkpt lat="45.85867" lon="6.44873">
        <ele>2081.39</ele>
        <time>2010-01-23T09:00:18Z</time>
      </trkpt>
      <trkpt lat="45.85864" lon="6.44851">
        <ele>2075.62</ele>
        <time>2010-01-23T09:00:20Z</time>
      </trkpt>
      <trkpt lat="45.85861" lon="6.44842">
        <ele>2074.18</ele>
        <time>2010-01-23T09:00:22Z</time>
      </trkpt>
      <trkpt lat="45.85862" lon="6.44846">
        <ele>2074.18</ele>
        <time>2010-01-23T09:00:49Z</time>
      </trkpt>
      <trkpt lat="45.85863" lon="6.44847">
        <ele>2074.66</ele>
        <time>2010-01-23T09:01:08Z</time>
      </trkpt>
      <trkpt lat="45.85862" lon="6.44846">
        <ele>2073.7</ele>
        <time>2010-01-23T09:01:24Z</time>
      </trkpt>
      <trkpt lat="45.85862" lon="6.44846">
        <ele>2074.66</ele>
        <time>2010-01-23T09:01:37Z</time>
      </trkpt>
      <trkpt lat="45.85863" lon="6.44838">
        <ele>2070.82</ele>
        <time>2010-01-23T09:01:40Z</time>
      </trkpt>
      <trkpt lat="45.85864" lon="6.44831">
        <ele>2067.93</ele>
        <time>2010-01-23T09:01:41Z</time>
      </trkpt>
      <trkpt lat="45.85863" lon="6.44817">
        <ele>2063.61</ele>
        <time>2010-01-23T09:01:43Z</time>
      </trkpt>
      <trkpt lat="45.85861" lon="6.44811">
        <ele>2063.61</ele>
        <time>2010-01-23T09:01:44Z</time>
      </trkpt>
      <trkpt lat="45.85858" lon="6.44805">
        <ele>2058.8</ele>
        <time>2010-01-23T09:01:45Z</time>
      </trkpt>
      <trkpt lat="45.85856" lon="6.44792">
        <ele>2054.96</ele>
        <time>2010-01-23T09:01:47Z</time>
      </trkpt>
      <trkpt lat="45.85856" lon="6.4478">
        <ele>2051.59</ele>
        <time>2010-01-23T09:01:49Z</time>
      </trkpt>
      <trkpt lat="45.85855" lon="6.44777">
        <ele>2052.07</ele>
        <time>2010-01-23T09:01:50Z</time>
      </trkpt>
      <trkpt lat="45.85855" lon="6.44776">
        <ele>2051.11</ele>
        <time>2010-01-23T09:01:55Z</time>
      </trkpt>
      <trkpt lat="45.85854" lon="6.44775">
        <ele>2050.63</ele>
        <time>2010-01-23T09:01:59Z</time>
      </trkpt>
      <trkpt lat="45.85852" lon="6.44765">
        <ele>2047.75</ele>
        <time>2010-01-23T09:02:01Z</time>
      </trkpt>
      <trkpt lat="45.8585" lon="6.44757">
        <ele>2041.98</ele>
        <time>2010-01-23T09:02:02Z</time>
      </trkpt>
      <trkpt lat="45.85846" lon="6.4474">
        <ele>2041.02</ele>
        <time>2010-01-23T09:02:04Z</time>
      </trkpt>
      <trkpt lat="45.85845" lon="6.44732">
        <ele>2036.69</ele>
        <time>2010-01-23T09:02:05Z</time>
      </trkpt>
      <trkpt lat="45.85841" lon="6.44717">
        <ele>2033.33</ele>
        <time>2010-01-23T09:02:07Z</time>
      </trkpt>
      <trkpt lat="45.85839" lon="6.4471">
        <ele>2029</ele>
        <time>2010-01-23T09:02:08Z</time>
      </trkpt>
      <trkpt lat="45.8583" lon="6.4468">
        <ele>2020.83</ele>
        <time>2010-01-23T09:02:12Z</time>
      </trkpt>
      <trkpt lat="45.85826" lon="6.44669">
        <ele>2019.39</ele>
        <time>2010-01-23T09:02:14Z</time>
      </trkpt>
      <trkpt lat="45.85822" lon="6.44666">
        <ele>2014.58</ele>
        <time>2010-01-23T09:02:15Z</time>
      </trkpt>
      <trkpt lat="45.85819" lon="6.44661">
        <ele>2016.02</ele>
        <time>2010-01-23T09:02:16Z</time>
      </trkpt>
      <trkpt lat="45.85816" lon="6.44657">
        <ele>2011.7</ele>
        <time>2010-01-23T09:02:17Z</time>
      </trkpt>
      <trkpt lat="45.85805" lon="6.44642">
        <ele>2004.97</ele>
        <time>2010-01-23T09:02:20Z</time>
      </trkpt>
      <trkpt lat="45.85798" lon="6.44621">
        <ele>1997.76</ele>
        <time>2010-01-23T09:02:23Z</time>
      </trkpt>
      <trkpt lat="45.85796" lon="6.44613">
        <ele>1996.32</ele>
        <time>2010-01-23T09:02:24Z</time>
      </trkpt>
      <trkpt lat="45.85792" lon="6.44598">
        <ele>1990.55</ele>
        <time>2010-01-23T09:02:26Z</time>
      </trkpt>
      <trkpt lat="45.8579" lon="6.44589">
        <ele>1991.51</ele>
        <time>2010-01-23T09:02:27Z</time>
      </trkpt>
      <trkpt lat="45.85787" lon="6.44581">
        <ele>1986.7</ele>
        <time>2010-01-23T09:02:28Z</time>
      </trkpt>
      <trkpt lat="45.85782" lon="6.44556">
        <ele>1979.97</ele>
        <time>2010-01-23T09:02:31Z</time>
      </trkpt>
      <trkpt lat="45.8578" lon="6.44547">
        <ele>1979.01</ele>
        <time>2010-01-23T09:02:32Z</time>
      </trkpt>
      <trkpt lat="45.85777" lon="6.44538">
        <ele>1977.57</ele>
        <time>2010-01-23T09:02:41Z</time>
      </trkpt>
      <trkpt lat="45.85777" lon="6.44538">
        <ele>1978.05</ele>
        <time>2010-01-23T09:02:59Z</time>
      </trkpt>
      <trkpt lat="45.85777" lon="6.44537">
        <ele>1972.76</ele>
        <time>2010-01-23T09:03:02Z</time>
      </trkpt>
      <trkpt lat="45.85776" lon="6.44537">
        <ele>1979.49</ele>
        <time>2010-01-23T09:03:03Z</time>
      </trkpt>
      <trkpt lat="45.85776" lon="6.44536">
        <ele>1979.01</ele>
        <time>2010-01-23T09:03:50Z</time>
      </trkpt>
      <trkpt lat="45.85776" lon="6.44535">
        <ele>1979.97</ele>
        <time>2010-01-23T09:04:21Z</time>
      </trkpt>
      <trkpt lat="45.85776" lon="6.44536">
        <ele>1979.49</ele>
        <time>2010-01-23T09:04:43Z</time>
      </trkpt>
      <trkpt lat="45.85774" lon="6.44524">
        <ele>1978.53</ele>
        <time>2010-01-23T09:05:55Z</time>
      </trkpt>
      <trkpt lat="45.8577" lon="6.44513">
        <ele>1975.65</ele>
        <time>2010-01-23T09:05:57Z</time>
      </trkpt>
      <trkpt lat="45.85767" lon="6.44507">
        <ele>1972.76</ele>
        <time>2010-01-23T09:05:58Z</time>
      </trkpt>
      <trkpt lat="45.8576" lon="6.44494">
        <ele>1970.36</ele>
        <time>2010-01-23T09:06:00Z</time>
      </trkpt>
      <trkpt lat="45.85757" lon="6.44487">
        <ele>1966.03</ele>
        <time>2010-01-23T09:06:01Z</time>
      </trkpt>
      <trkpt lat="45.85753" lon="6.44479">
        <ele>1964.59</ele>
        <time>2010-01-23T09:06:02Z</time>
      </trkpt>
      <trkpt lat="45.85742" lon="6.44453">
        <ele>1962.19</ele>
        <time>2010-01-23T09:06:08Z</time>
      </trkpt>
      <trkpt lat="45.85733" lon="6.44443">
        <ele>1959.3</ele>
        <time>2010-01-23T09:06:11Z</time>
      </trkpt>
      <trkpt lat="45.85727" lon="6.44429">
        <ele>1957.38</ele>
        <time>2010-01-23T09:06:13Z</time>
      </trkpt>
      <trkpt lat="45.8572" lon="6.44405">
        <ele>1953.06</ele>
        <time>2010-01-23T09:06:17Z</time>
      </trkpt>
      <trkpt lat="45.85718" lon="6.444">
        <ele>1953.06</ele>
        <time>2010-01-23T09:06:18Z</time>
      </trkpt>
      <trkpt lat="45.85716" lon="6.44399">
        <ele>1954.02</ele>
        <time>2010-01-23T09:06:29Z</time>
      </trkpt>
      <trkpt lat="45.85716" lon="6.44399">
        <ele>1954.02</ele>
        <time>2010-01-23T09:06:46Z</time>
      </trkpt>
      <trkpt lat="45.85715" lon="6.44383">
        <ele>1949.69</ele>
        <time>2010-01-23T09:06:50Z</time>
      </trkpt>
      <trkpt lat="45.85713" lon="6.44376">
        <ele>1946.81</ele>
        <time>2010-01-23T09:06:51Z</time>
      </trkpt>
      <trkpt lat="45.85706" lon="6.44358">
        <ele>1940.08</ele>
        <time>2010-01-23T09:06:55Z</time>
      </trkpt>
      <trkpt lat="45.85704" lon="6.44356">
        <ele>1940.56</ele>
        <time>2010-01-23T09:06:56Z</time>
      </trkpt>
      <trkpt lat="45.85702" lon="6.44354">
        <ele>1935.27</ele>
        <time>2010-01-23T09:06:57Z</time>
      </trkpt>
      <trkpt lat="45.85703" lon="6.4435">
        <ele>1936.23</ele>
        <time>2010-01-23T09:06:58Z</time>
      </trkpt>
      <trkpt lat="45.85704" lon="6.44347">
        <ele>1932.39</ele>
        <time>2010-01-23T09:06:59Z</time>
      </trkpt>
      <trkpt lat="45.85705" lon="6.44343">
        <ele>1932.39</ele>
        <time>2010-01-23T09:07:00Z</time>
      </trkpt>
      <trkpt lat="45.85702" lon="6.44335">
        <ele>1927.1</ele>
        <time>2010-01-23T09:07:02Z</time>
      </trkpt>
      <trkpt lat="45.85701" lon="6.4433">
        <ele>1925.66</ele>
        <time>2010-01-23T09:07:03Z</time>
      </trkpt>
      <trkpt lat="45.85703" lon="6.44318">
        <ele>1921.33</ele>
        <time>2010-01-23T09:07:05Z</time>
      </trkpt>
      <trkpt lat="45.85704" lon="6.44306">
        <ele>1915.56</ele>
        <time>2010-01-23T09:07:07Z</time>
      </trkpt>
      <trkpt lat="45.85703" lon="6.44301">
        <ele>1915.56</ele>
        <time>2010-01-23T09:07:08Z</time>
      </trkpt>
      <trkpt lat="45.85702" lon="6.44295">
        <ele>1910.28</ele>
        <time>2010-01-23T09:07:09Z</time>
      </trkpt>
      <trkpt lat="45.85702" lon="6.4428">
        <ele>1907.39</ele>
        <time>2010-01-23T09:07:11Z</time>
      </trkpt>
      <trkpt lat="45.85701" lon="6.44272">
        <ele>1905.47</ele>
        <time>2010-01-23T09:07:12Z</time>
      </trkpt>
      <trkpt lat="45.85697" lon="6.44247">
        <ele>1898.74</ele>
        <time>2010-01-23T09:07:15Z</time>
      </trkpt>
      <trkpt lat="45.85692" lon="6.44226">
        <ele>1893.93</ele>
        <time>2010-01-23T09:07:18Z</time>
      </trkpt>
      <trkpt lat="45.85691" lon="6.44223">
        <ele>1893.93</ele>
        <time>2010-01-23T09:07:19Z</time>
      </trkpt>
      <trkpt lat="45.85691" lon="6.44225">
        <ele>1894.42</ele>
        <time>2010-01-23T09:07:38Z</time>
      </trkpt>
      <trkpt lat="45.8569" lon="6.44225">
        <ele>1892.97</ele>
        <time>2010-01-23T09:07:55Z</time>
      </trkpt>
      <trkpt lat="45.85682" lon="6.44214">
        <ele>1887.69</ele>
        <time>2010-01-23T09:07:58Z</time>
      </trkpt>
      <trkpt lat="45.85674" lon="6.442">
        <ele>1884.8</ele>
        <time>2010-01-23T09:08:00Z</time>
      </trkpt>
      <trkpt lat="45.8567" lon="6.44196">
        <ele>1885.28</ele>
        <time>2010-01-23T09:08:01Z</time>
      </trkpt>
      <trkpt lat="45.85658" lon="6.44186">
        <ele>1879.51</ele>
        <time>2010-01-23T09:08:04Z</time>
      </trkpt>
      <trkpt lat="45.85655" lon="6.44179">
        <ele>1879.03</ele>
        <time>2010-01-23T09:08:05Z</time>
      </trkpt>
      <trkpt lat="45.85648" lon="6.44165">
        <ele>1877.11</ele>
        <time>2010-01-23T09:08:07Z</time>
      </trkpt>
      <trkpt lat="45.85643" lon="6.44152">
        <ele>1875.67</ele>
        <time>2010-01-23T09:08:09Z</time>
      </trkpt>
      <trkpt lat="45.85633" lon="6.4414">
        <ele>1876.15</ele>
        <time>2010-01-23T09:08:17Z</time>
      </trkpt>
      <trkpt lat="45.85633" lon="6.4414">
        <ele>1874.71</ele>
        <time>2010-01-23T09:08:41Z</time>
      </trkpt>
      <trkpt lat="45.85631" lon="6.44132">
        <ele>1870.86</ele>
        <time>2010-01-23T09:08:44Z</time>
      </trkpt>
      <trkpt lat="45.85629" lon="6.44118">
        <ele>1864.61</ele>
        <time>2010-01-23T09:08:46Z</time>
      </trkpt>
      <trkpt lat="45.85629" lon="6.4411">
        <ele>1864.61</ele>
        <time>2010-01-23T09:08:47Z</time>
      </trkpt>
      <trkpt lat="45.85628" lon="6.44102">
        <ele>1861.25</ele>
        <time>2010-01-23T09:08:48Z</time>
      </trkpt>
      <trkpt lat="45.85626" lon="6.44095">
        <ele>1860.77</ele>
        <time>2010-01-23T09:08:49Z</time>
      </trkpt>
      <trkpt lat="45.85621" lon="6.44083">
        <ele>1855.48</ele>
        <time>2010-01-23T09:08:51Z</time>
      </trkpt>
      <trkpt lat="45.8561" lon="6.44068">
        <ele>1851.64</ele>
        <time>2010-01-23T09:08:54Z</time>
      </trkpt>
      <trkpt lat="45.85606" lon="6.44062">
        <ele>1850.68</ele>
        <time>2010-01-23T09:08:55Z</time>
      </trkpt>
      <trkpt lat="45.85592" lon="6.44035">
        <ele>1845.39</ele>
        <time>2010-01-23T09:08:59Z</time>
      </trkpt>
      <trkpt lat="45.85588" lon="6.44028">
        <ele>1845.87</ele>
        <time>2010-01-23T09:09:00Z</time>
      </trkpt>
      <trkpt lat="45.85577" lon="6.44014">
        <ele>1842.5</ele>
        <time>2010-01-23T09:09:03Z</time>
      </trkpt>
      <trkpt lat="45.85574" lon="6.4401">
        <ele>1842.5</ele>
        <time>2010-01-23T09:09:04Z</time>
      </trkpt>
      <trkpt lat="45.85567" lon="6.43998">
        <ele>1840.58</ele>
        <time>2010-01-23T09:09:07Z</time>
      </trkpt>
      <trkpt lat="45.85551" lon="6.43975">
        <ele>1838.66</ele>
        <time>2010-01-23T09:09:17Z</time>
      </trkpt>
      <trkpt lat="45.85551" lon="6.43975">
        <ele>1834.81</ele>
        <time>2010-01-23T09:09:33Z</time>
      </trkpt>
      <trkpt lat="45.85551" lon="6.43975">
        <ele>1838.18</ele>
        <time>2010-01-23T09:09:34Z</time>
      </trkpt>
      <trkpt lat="45.85551" lon="6.43975">
        <ele>1838.66</ele>
        <time>2010-01-23T09:10:28Z</time>
      </trkpt>
      <trkpt lat="45.85551" lon="6.43975">
        <ele>1839.14</ele>
        <time>2010-01-23T09:11:01Z</time>
      </trkpt>
      <trkpt lat="45.85551" lon="6.43975">
        <ele>1839.14</ele>
        <time>2010-01-23T09:11:27Z</time>
      </trkpt>
      <trkpt lat="45.8555" lon="6.43972">
        <ele>1838.18</ele>
        <time>2010-01-23T09:11:50Z</time>
      </trkpt>
      <trkpt lat="45.85543" lon="6.43954">
        <ele>1831.93</ele>
        <time>2010-01-23T09:11:53Z</time>
      </trkpt>
      <trkpt lat="45.85535" lon="6.4394">
        <ele>1829.05</ele>
        <time>2010-01-23T09:11:55Z</time>
      </trkpt>
      <trkpt lat="45.85522" lon="6.43919">
        <ele>1825.2</ele>
        <time>2010-01-23T09:11:58Z</time>
      </trkpt>
      <trkpt lat="45.85513" lon="6.43896">
        <ele>1823.28</ele>
        <time>2010-01-23T09:12:03Z</time>
      </trkpt>
      <trkpt lat="45.85511" lon="6.43887">
        <ele>1820.39</ele>
        <time>2010-01-23T09:12:05Z</time>
      </trkpt>
      <trkpt lat="45.85506" lon="6.43869">
        <ele>1818.47</ele>
        <time>2010-01-23T09:12:08Z</time>
      </trkpt>
      <trkpt lat="45.85507" lon="6.43866">
        <ele>1817.51</ele>
        <time>2010-01-23T09:12:15Z</time>
      </trkpt>
      <trkpt lat="45.855" lon="6.43856">
        <ele>1815.59</ele>
        <time>2010-01-23T09:12:24Z</time>
      </trkpt>
      <trkpt lat="45.85499" lon="6.43855">
        <ele>1815.59</ele>
        <time>2010-01-23T09:12:36Z</time>
      </trkpt>
      <trkpt lat="45.85504" lon="6.43851">
        <ele>1811.74</ele>
        <time>2010-01-23T09:12:39Z</time>
      </trkpt>
      <trkpt lat="45.85507" lon="6.43851">
        <ele>1812.22</ele>
        <time>2010-01-23T09:12:40Z</time>
      </trkpt>
      <trkpt lat="45.85512" lon="6.43848">
        <ele>1809.82</ele>
        <time>2010-01-23T09:12:42Z</time>
      </trkpt>
      <trkpt lat="45.85512" lon="6.43841">
        <ele>1806.94</ele>
        <time>2010-01-23T09:12:44Z</time>
      </trkpt>
      <trkpt lat="45.85514" lon="6.43833">
        <ele>1802.13</ele>
        <time>2010-01-23T09:12:47Z</time>
      </trkpt>
      <trkpt lat="45.85514" lon="6.43823">
        <ele>1795.88</ele>
        <time>2010-01-23T09:12:50Z</time>
      </trkpt>
      <trkpt lat="45.85515" lon="6.43809">
        <ele>1790.11</ele>
        <time>2010-01-23T09:12:53Z</time>
      </trkpt>
      <trkpt lat="45.85515" lon="6.43802">
        <ele>1784.82</ele>
        <time>2010-01-23T09:12:55Z</time>
      </trkpt>
      <trkpt lat="45.85516" lon="6.4379">
        <ele>1778.58</ele>
        <time>2010-01-23T09:12:58Z</time>
      </trkpt>
      <trkpt lat="45.85518" lon="6.43781">
        <ele>1772.81</ele>
        <time>2010-01-23T09:13:00Z</time>
      </trkpt>
      <trkpt lat="45.85512" lon="6.4377">
        <ele>1768.96</ele>
        <time>2010-01-23T09:13:03Z</time>
      </trkpt>
      <trkpt lat="45.85502" lon="6.43762">
        <ele>1765.6</ele>
        <time>2010-01-23T09:13:06Z</time>
      </trkpt>
      <trkpt lat="45.85497" lon="6.43753">
        <ele>1761.75</ele>
        <time>2010-01-23T09:13:08Z</time>
      </trkpt>
      <trkpt lat="45.85493" lon="6.43745">
        <ele>1760.79</ele>
        <time>2010-01-23T09:13:10Z</time>
      </trkpt>
      <trkpt lat="45.8549" lon="6.43737">
        <ele>1758.39</ele>
        <time>2010-01-23T09:13:12Z</time>
      </trkpt>
      <trkpt lat="45.85479" lon="6.4372">
        <ele>1754.06</ele>
        <time>2010-01-23T09:13:16Z</time>
      </trkpt>
      <trkpt lat="45.85477" lon="6.43719">
        <ele>1753.58</ele>
        <time>2010-01-23T09:13:17Z</time>
      </trkpt>
      <trkpt lat="45.85476" lon="6.43719">
        <ele>1754.06</ele>
        <time>2010-01-23T09:13:19Z</time>
      </trkpt>
      <trkpt lat="45.85471" lon="6.4371">
        <ele>1749.74</ele>
        <time>2010-01-23T09:13:23Z</time>
      </trkpt>
      <trkpt lat="45.85465" lon="6.43704">
        <ele>1746.37</ele>
        <time>2010-01-23T09:13:29Z</time>
      </trkpt>
      <trkpt lat="45.85465" lon="6.43702">
        <ele>1746.85</ele>
        <time>2010-01-23T09:13:30Z</time>
      </trkpt>
      <trkpt lat="45.85464" lon="6.43702">
        <ele>1745.89</ele>
        <time>2010-01-23T09:13:34Z</time>
      </trkpt>
      <trkpt lat="45.85465" lon="6.43702">
        <ele>1746.85</ele>
        <time>2010-01-23T09:13:38Z</time>
      </trkpt>
      <trkpt lat="45.85464" lon="6.43698">
        <ele>1741.57</ele>
        <time>2010-01-23T09:13:41Z</time>
      </trkpt>
      <trkpt lat="45.85464" lon="6.43691">
        <ele>1740.6</ele>
        <time>2010-01-23T09:13:43Z</time>
      </trkpt>
      <trkpt lat="45.8546" lon="6.43685">
        <ele>1736.28</ele>
        <time>2010-01-23T09:13:45Z</time>
      </trkpt>
      <trkpt lat="45.85459" lon="6.43681">
        <ele>1736.28</ele>
        <time>2010-01-23T09:13:46Z</time>
      </trkpt>
      <trkpt lat="45.85457" lon="6.43675">
        <ele>1731.47</ele>
        <time>2010-01-23T09:13:48Z</time>
      </trkpt>
      <trkpt lat="45.85454" lon="6.43671">
        <ele>1730.99</ele>
        <time>2010-01-23T09:13:50Z</time>
      </trkpt>
      <trkpt lat="45.8545" lon="6.43667">
        <ele>1729.55</ele>
        <time>2010-01-23T09:13:52Z</time>
      </trkpt>
      <trkpt lat="45.85445" lon="6.43663">
        <ele>1726.18</ele>
        <time>2010-01-23T09:14:01Z</time>
      </trkpt>
      <trkpt lat="45.85441" lon="6.4366">
        <ele>1721.38</ele>
        <time>2010-01-23T09:14:03Z</time>
      </trkpt>
      <trkpt lat="45.85439" lon="6.43657">
        <ele>1721.86</ele>
        <time>2010-01-23T09:14:04Z</time>
      </trkpt>
      <trkpt lat="45.85436" lon="6.43647">
        <ele>1718.49</ele>
        <time>2010-01-23T09:14:07Z</time>
      </trkpt>
      <trkpt lat="45.85434" lon="6.43639">
        <ele>1715.13</ele>
        <time>2010-01-23T09:14:09Z</time>
      </trkpt>
      <trkpt lat="45.85433" lon="6.4363">
        <ele>1714.17</ele>
        <time>2010-01-23T09:14:11Z</time>
      </trkpt>
      <trkpt lat="45.85431" lon="6.43626">
        <ele>1713.69</ele>
        <time>2010-01-23T09:14:23Z</time>
      </trkpt>
      <trkpt lat="45.8543" lon="6.43623">
        <ele>1715.13</ele>
        <time>2010-01-23T09:14:44Z</time>
      </trkpt>
      <trkpt lat="45.85429" lon="6.43623">
        <ele>1711.76</ele>
        <time>2010-01-23T09:14:45Z</time>
      </trkpt>
      <trkpt lat="45.85429" lon="6.43623">
        <ele>1715.13</ele>
        <time>2010-01-23T09:14:55Z</time>
      </trkpt>
      <trkpt lat="45.85425" lon="6.4362">
        <ele>1712.25</ele>
        <time>2010-01-23T09:15:10Z</time>
      </trkpt>
      <trkpt lat="45.85427" lon="6.43623">
        <ele>1713.69</ele>
        <time>2010-01-23T09:15:29Z</time>
      </trkpt>
      <trkpt lat="45.85428" lon="6.43622">
        <ele>1713.21</ele>
        <time>2010-01-23T09:16:23Z</time>
      </trkpt>
      <trkpt lat="45.85426" lon="6.4362">
        <ele>1714.17</ele>
        <time>2010-01-23T09:16:43Z</time>
      </trkpt>
      <trkpt lat="45.85426" lon="6.4362">
        <ele>1714.17</ele>
        <time>2010-01-23T09:16:53Z</time>
      </trkpt>
      <trkpt lat="45.85427" lon="6.43621">
        <ele>1715.13</ele>
        <time>2010-01-23T09:16:55Z</time>
      </trkpt>
      <trkpt lat="45.85426" lon="6.4362">
        <ele>1713.69</ele>
        <time>2010-01-23T09:17:35Z</time>
      </trkpt>
      <trkpt lat="45.85428" lon="6.43625">
        <ele>1713.69</ele>
        <time>2010-01-23T09:18:20Z</time>
      </trkpt>
      <trkpt lat="45.85426" lon="6.43623">
        <ele>1715.13</ele>
        <time>2010-01-23T09:18:40Z</time>
      </trkpt>
      <trkpt lat="45.85424" lon="6.43614">
        <ele>1715.13</ele>
        <time>2010-01-23T09:19:06Z</time>
      </trkpt>
      <trkpt lat="45.85428" lon="6.43614">
        <ele>1715.61</ele>
        <time>2010-01-23T09:20:27Z</time>
      </trkpt>
      <trkpt lat="45.85427" lon="6.43613">
        <ele>1715.61</ele>
        <time>2010-01-23T09:20:28Z</time>
      </trkpt>
      <trkpt lat="45.85424" lon="6.436">
        <ele>1716.57</ele>
        <time>2010-01-23T09:20:39Z</time>
      </trkpt>
      <trkpt lat="45.8542" lon="6.43596">
        <ele>1717.53</ele>
        <time>2010-01-23T09:20:49Z</time>
      </trkpt>
      <trkpt lat="45.85415" lon="6.43594">
        <ele>1719.46</ele>
        <time>2010-01-23T09:21:06Z</time>
      </trkpt>
      <trkpt lat="45.85407" lon="6.43584">
        <ele>1718.97</ele>
        <time>2010-01-23T09:21:18Z</time>
      </trkpt>
      <trkpt lat="45.85398" lon="6.43571">
        <ele>1721.38</ele>
        <time>2010-01-23T09:21:30Z</time>
      </trkpt>
      <trkpt lat="45.85388" lon="6.43564">
        <ele>1724.26</ele>
        <time>2010-01-23T09:21:43Z</time>
      </trkpt>
      <trkpt lat="45.85385" lon="6.43563">
        <ele>1724.74</ele>
        <time>2010-01-23T09:22:01Z</time>
      </trkpt>
      <trkpt lat="45.85379" lon="6.43557">
        <ele>1727.63</ele>
        <time>2010-01-23T09:22:17Z</time>
      </trkpt>
      <trkpt lat="45.85368" lon="6.43557">
        <ele>1729.07</ele>
        <time>2010-01-23T09:22:29Z</time>
      </trkpt>
      <trkpt lat="45.85359" lon="6.43555">
        <ele>1730.99</ele>
        <time>2010-01-23T09:22:40Z</time>
      </trkpt>
      <trkpt lat="45.8535" lon="6.43551">
        <ele>1734.36</ele>
        <time>2010-01-23T09:22:50Z</time>
      </trkpt>
      <trkpt lat="45.85351" lon="6.43552">
        <ele>1735.32</ele>
        <time>2010-01-23T09:22:57Z</time>
      </trkpt>
      <trkpt lat="45.85359" lon="6.43561">
        <ele>1735.8</ele>
        <time>2010-01-23T09:23:07Z</time>
      </trkpt>
      <trkpt lat="45.85367" lon="6.4357">
        <ele>1738.68</ele>
        <time>2010-01-23T09:23:19Z</time>
      </trkpt>
      <trkpt lat="45.85368" lon="6.43574">
        <ele>1738.2</ele>
        <time>2010-01-23T09:23:24Z</time>
      </trkpt>
      <trkpt lat="45.85369" lon="6.43579">
        <ele>1739.16</ele>
        <time>2010-01-23T09:23:29Z</time>
      </trkpt>
      <trkpt lat="45.85372" lon="6.43583">
        <ele>1741.08</ele>
        <time>2010-01-23T09:23:34Z</time>
      </trkpt>
      <trkpt lat="45.85375" lon="6.43587">
        <ele>1742.05</ele>
        <time>2010-01-23T09:23:39Z</time>
      </trkpt>
      <trkpt lat="45.85378" lon="6.43601">
        <ele>1744.93</ele>
        <time>2010-01-23T09:23:52Z</time>
      </trkpt>
      <trkpt lat="45.85378" lon="6.43604">
        <ele>1745.89</ele>
        <time>2010-01-23T09:23:55Z</time>
      </trkpt>
      <trkpt lat="45.85378" lon="6.43617">
        <ele>1746.85</ele>
        <time>2010-01-23T09:24:06Z</time>
      </trkpt>
      <trkpt lat="45.85377" lon="6.43627">
        <ele>1750.22</ele>
        <time>2010-01-23T09:24:17Z</time>
      </trkpt>
      <trkpt lat="45.85377" lon="6.43631">
        <ele>1751.18</ele>
        <time>2010-01-23T09:24:21Z</time>
      </trkpt>
      <trkpt lat="45.85372" lon="6.43632">
        <ele>1751.66</ele>
        <time>2010-01-23T09:24:28Z</time>
      </trkpt>
      <trkpt lat="45.85362" lon="6.4362">
        <ele>1753.58</ele>
        <time>2010-01-23T09:24:41Z</time>
      </trkpt>
      <trkpt lat="45.85359" lon="6.43615">
        <ele>1755.02</ele>
        <time>2010-01-23T09:24:46Z</time>
      </trkpt>
      <trkpt lat="45.85349" lon="6.43614">
        <ele>1757.43</ele>
        <time>2010-01-23T09:24:58Z</time>
      </trkpt>
      <trkpt lat="45.85341" lon="6.43609">
        <ele>1758.87</ele>
        <time>2010-01-23T09:25:10Z</time>
      </trkpt>
      <trkpt lat="45.85338" lon="6.43602">
        <ele>1761.27</ele>
        <time>2010-01-23T09:25:23Z</time>
      </trkpt>
      <trkpt lat="45.85344" lon="6.43613">
        <ele>1762.71</ele>
        <time>2010-01-23T09:25:35Z</time>
      </trkpt>
      <trkpt lat="45.85345" lon="6.43615">
        <ele>1764.16</ele>
        <time>2010-01-23T09:25:38Z</time>
      </trkpt>
      <trkpt lat="45.85348" lon="6.43624">
        <ele>1764.64</ele>
        <time>2010-01-23T09:25:45Z</time>
      </trkpt>
      <trkpt lat="45.85348" lon="6.43629">
        <ele>1766.08</ele>
        <time>2010-01-23T09:25:49Z</time>
      </trkpt>
      <trkpt lat="45.85343" lon="6.43631">
        <ele>1767.52</ele>
        <time>2010-01-23T09:25:59Z</time>
      </trkpt>
      <trkpt lat="45.85335" lon="6.43625">
        <ele>1769.92</ele>
        <time>2010-01-23T09:26:09Z</time>
      </trkpt>
      <trkpt lat="45.85327" lon="6.43618">
        <ele>1773.77</ele>
        <time>2010-01-23T09:26:21Z</time>
      </trkpt>
      <trkpt lat="45.8533" lon="6.43622">
        <ele>1773.77</ele>
        <time>2010-01-23T09:26:31Z</time>
      </trkpt>
      <trkpt lat="45.8533" lon="6.43625">
        <ele>1774.73</ele>
        <time>2010-01-23T09:26:34Z</time>
      </trkpt>
      <trkpt lat="45.85331" lon="6.43629">
        <ele>1776.65</ele>
        <time>2010-01-23T09:26:39Z</time>
      </trkpt>
      <trkpt lat="45.85332" lon="6.43639">
        <ele>1777.61</ele>
        <time>2010-01-23T09:26:49Z</time>
      </trkpt>
      <trkpt lat="45.85331" lon="6.4364">
        <ele>1779.06</ele>
        <time>2010-01-23T09:26:52Z</time>
      </trkpt>
      <trkpt lat="45.85322" lon="6.43633">
        <ele>1781.46</ele>
        <time>2010-01-23T09:27:06Z</time>
      </trkpt>
      <trkpt lat="45.85318" lon="6.43629">
        <ele>1782.9</ele>
        <time>2010-01-23T09:27:19Z</time>
      </trkpt>
      <trkpt lat="45.85319" lon="6.43634">
        <ele>1784.82</ele>
        <time>2010-01-23T09:27:30Z</time>
      </trkpt>
      <trkpt lat="45.85319" lon="6.4364">
        <ele>1786.27</ele>
        <time>2010-01-23T09:27:37Z</time>
      </trkpt>
      <trkpt lat="45.85319" lon="6.43649">
        <ele>1788.19</ele>
        <time>2010-01-23T09:27:48Z</time>
      </trkpt>
      <trkpt lat="45.85317" lon="6.43646">
        <ele>1789.15</ele>
        <time>2010-01-23T09:27:53Z</time>
      </trkpt>
      <trkpt lat="45.85309" lon="6.43642">
        <ele>1791.07</ele>
        <time>2010-01-23T09:28:04Z</time>
      </trkpt>
      <trkpt lat="45.85307" lon="6.43641">
        <ele>1792.52</ele>
        <time>2010-01-23T09:28:07Z</time>
      </trkpt>
      <trkpt lat="45.85307" lon="6.43642">
        <ele>1795.4</ele>
        <time>2010-01-23T09:28:18Z</time>
      </trkpt>
      <trkpt lat="45.85307" lon="6.43646">
        <ele>1794.92</ele>
        <time>2010-01-23T09:28:22Z</time>
      </trkpt>
      <trkpt lat="45.85308" lon="6.43648">
        <ele>1796.36</ele>
        <time>2010-01-23T09:28:25Z</time>
      </trkpt>
      <trkpt lat="45.85308" lon="6.43658">
        <ele>1797.8</ele>
        <time>2010-01-23T09:28:37Z</time>
      </trkpt>
      <trkpt lat="45.85307" lon="6.43657">
        <ele>1798.76</ele>
        <time>2010-01-23T09:28:39Z</time>
      </trkpt>
      <trkpt lat="45.85296" lon="6.43654">
        <ele>1801.65</ele>
        <time>2010-01-23T09:28:52Z</time>
      </trkpt>
      <trkpt lat="45.8529" lon="6.43647">
        <ele>1804.05</ele>
        <time>2010-01-23T09:29:05Z</time>
      </trkpt>
      <trkpt lat="45.85286" lon="6.43644">
        <ele>1805.97</ele>
        <time>2010-01-23T09:29:10Z</time>
      </trkpt>
      <trkpt lat="45.85287" lon="6.43641">
        <ele>1807.9</ele>
        <time>2010-01-23T09:29:23Z</time>
      </trkpt>
      <trkpt lat="45.85288" lon="6.43652">
        <ele>1811.26</ele>
        <time>2010-01-23T09:29:36Z</time>
      </trkpt>
      <trkpt lat="45.85288" lon="6.43662">
        <ele>1813.18</ele>
        <time>2010-01-23T09:29:47Z</time>
      </trkpt>
      <trkpt lat="45.85289" lon="6.43664">
        <ele>1814.15</ele>
        <time>2010-01-23T09:29:49Z</time>
      </trkpt>
      <trkpt lat="45.8529" lon="6.43676">
        <ele>1817.03</ele>
        <time>2010-01-23T09:30:02Z</time>
      </trkpt>
      <trkpt lat="45.85279" lon="6.43669">
        <ele>1819.43</ele>
        <time>2010-01-23T09:30:17Z</time>
      </trkpt>
      <trkpt lat="45.85278" lon="6.43668">
        <ele>1819.91</ele>
        <time>2010-01-23T09:30:18Z</time>
      </trkpt>
      <trkpt lat="45.85267" lon="6.43664">
        <ele>1823.28</ele>
        <time>2010-01-23T09:30:34Z</time>
      </trkpt>
      <trkpt lat="45.85272" lon="6.43667">
        <ele>1825.2</ele>
        <time>2010-01-23T09:30:44Z</time>
      </trkpt>
      <trkpt lat="45.85275" lon="6.43678">
        <ele>1827.12</ele>
        <time>2010-01-23T09:30:57Z</time>
      </trkpt>
      <trkpt lat="45.85276" lon="6.43683">
        <ele>1828.56</ele>
        <time>2010-01-23T09:31:09Z</time>
      </trkpt>
      <trkpt lat="45.85267" lon="6.43679">
        <ele>1831.45</ele>
        <time>2010-01-23T09:31:21Z</time>
      </trkpt>
      <trkpt lat="45.85259" lon="6.43678">
        <ele>1833.37</ele>
        <time>2010-01-23T09:31:36Z</time>
      </trkpt>
      <trkpt lat="45.8526" lon="6.43681">
        <ele>1834.81</ele>
        <time>2010-01-23T09:31:49Z</time>
      </trkpt>
      <trkpt lat="45.85262" lon="6.43686">
        <ele>1837.7</ele>
        <time>2010-01-23T09:31:57Z</time>
      </trkpt>
      <trkpt lat="45.85264" lon="6.43691">
        <ele>1839.14</ele>
        <time>2010-01-23T09:32:06Z</time>
      </trkpt>
      <trkpt lat="45.85264" lon="6.43692">
        <ele>1838.66</ele>
        <time>2010-01-23T09:32:10Z</time>
      </trkpt>
      <trkpt lat="45.8526" lon="6.43692">
        <ele>1840.58</ele>
        <time>2010-01-23T09:32:16Z</time>
      </trkpt>
      <trkpt lat="45.85249" lon="6.43692">
        <ele>1842.5</ele>
        <time>2010-01-23T09:32:31Z</time>
      </trkpt>
      <trkpt lat="45.85248" lon="6.43691">
        <ele>1843.95</ele>
        <time>2010-01-23T09:32:37Z</time>
      </trkpt>
      <trkpt lat="45.85249" lon="6.43691">
        <ele>1843.95</ele>
        <time>2010-01-23T09:32:49Z</time>
      </trkpt>
      <trkpt lat="45.85247" lon="6.43692">
        <ele>1845.87</ele>
        <time>2010-01-23T09:32:59Z</time>
      </trkpt>
      <trkpt lat="45.85241" lon="6.43686">
        <ele>1847.79</ele>
        <time>2010-01-23T09:33:07Z</time>
      </trkpt>
      <trkpt lat="45.85238" lon="6.4367">
        <ele>1849.71</ele>
        <time>2010-01-23T09:33:20Z</time>
      </trkpt>
      <trkpt lat="45.85237" lon="6.43666">
        <ele>1849.71</ele>
        <time>2010-01-23T09:33:27Z</time>
      </trkpt>
      <trkpt lat="45.85236" lon="6.43674">
        <ele>1852.12</ele>
        <time>2010-01-23T09:33:38Z</time>
      </trkpt>
      <trkpt lat="45.85233" lon="6.43682">
        <ele>1853.08</ele>
        <time>2010-01-23T09:33:44Z</time>
      </trkpt>
      <trkpt lat="45.85235" lon="6.43692">
        <ele>1855.48</ele>
        <time>2010-01-23T09:33:54Z</time>
      </trkpt>
      <trkpt lat="45.85231" lon="6.43683">
        <ele>1857.89</ele>
        <time>2010-01-23T09:34:06Z</time>
      </trkpt>
      <trkpt lat="45.85229" lon="6.43676">
        <ele>1858.85</ele>
        <time>2010-01-23T09:34:21Z</time>
      </trkpt>
      <trkpt lat="45.85227" lon="6.43687">
        <ele>1862.21</ele>
        <time>2010-01-23T09:34:33Z</time>
      </trkpt>
      <trkpt lat="45.85221" lon="6.43694">
        <ele>1862.69</ele>
        <time>2010-01-23T09:34:44Z</time>
      </trkpt>
      <trkpt lat="45.85216" lon="6.4369">
        <ele>1863.65</ele>
        <time>2010-01-23T09:34:47Z</time>
      </trkpt>
      <trkpt lat="45.85213" lon="6.43687">
        <ele>1864.13</ele>
        <time>2010-01-23T09:34:49Z</time>
      </trkpt>
      <trkpt lat="45.85208" lon="6.43674">
        <ele>1867.02</ele>
        <time>2010-01-23T09:35:04Z</time>
      </trkpt>
      <trkpt lat="45.85206" lon="6.4367">
        <ele>1869.42</ele>
        <time>2010-01-23T09:35:24Z</time>
      </trkpt>
      <trkpt lat="45.85205" lon="6.43677">
        <ele>1871.34</ele>
        <time>2010-01-23T09:35:33Z</time>
      </trkpt>
      <trkpt lat="45.85203" lon="6.43684">
        <ele>1873.75</ele>
        <time>2010-01-23T09:35:43Z</time>
      </trkpt>
      <trkpt lat="45.85204" lon="6.43686">
        <ele>1873.27</ele>
        <time>2010-01-23T09:36:03Z</time>
      </trkpt>
      <trkpt lat="45.85203" lon="6.43693">
        <ele>1876.63</ele>
        <time>2010-01-23T09:36:15Z</time>
      </trkpt>
      <trkpt lat="45.852" lon="6.43692">
        <ele>1876.63</ele>
        <time>2010-01-23T09:36:19Z</time>
      </trkpt>
      <trkpt lat="45.8518" lon="6.4367">
        <ele>1878.55</ele>
        <time>2010-01-23T09:36:31Z</time>
      </trkpt>
      <trkpt lat="45.85175" lon="6.43671">
        <ele>1881.92</ele>
        <time>2010-01-23T09:36:43Z</time>
      </trkpt>
      <trkpt lat="45.85168" lon="6.43673">
        <ele>1883.84</ele>
        <time>2010-01-23T09:36:57Z</time>
      </trkpt>
      <trkpt lat="45.85165" lon="6.43674">
        <ele>1885.28</ele>
        <time>2010-01-23T09:37:09Z</time>
      </trkpt>
      <trkpt lat="45.85159" lon="6.4367">
        <ele>1887.69</ele>
        <time>2010-01-23T09:37:22Z</time>
      </trkpt>
      <trkpt lat="45.85157" lon="6.4368">
        <ele>1890.57</ele>
        <time>2010-01-23T09:37:36Z</time>
      </trkpt>
      <trkpt lat="45.85151" lon="6.43678">
        <ele>1890.57</ele>
        <time>2010-01-23T09:37:45Z</time>
      </trkpt>
      <trkpt lat="45.8515" lon="6.43678">
        <ele>1891.53</ele>
        <time>2010-01-23T09:37:47Z</time>
      </trkpt>
      <trkpt lat="45.85143" lon="6.43677">
        <ele>1893.45</ele>
        <time>2010-01-23T09:37:59Z</time>
      </trkpt>
      <trkpt lat="45.85139" lon="6.43676">
        <ele>1893.45</ele>
        <time>2010-01-23T09:38:03Z</time>
      </trkpt>
      <trkpt lat="45.85111" lon="6.43648">
        <ele>1895.38</ele>
        <time>2010-01-23T09:38:16Z</time>
      </trkpt>
      <trkpt lat="45.85103" lon="6.43649">
        <ele>1897.3</ele>
        <time>2010-01-23T09:38:27Z</time>
      </trkpt>
      <trkpt lat="45.85101" lon="6.43646">
        <ele>1897.3</ele>
        <time>2010-01-23T09:38:29Z</time>
      </trkpt>
      <trkpt lat="45.85084" lon="6.43636">
        <ele>1899.22</ele>
        <time>2010-01-23T09:38:48Z</time>
      </trkpt>
      <trkpt lat="45.85078" lon="6.43634">
        <ele>1900.66</ele>
        <time>2010-01-23T09:38:54Z</time>
      </trkpt>
      <trkpt lat="45.85073" lon="6.43634">
        <ele>1901.14</ele>
        <time>2010-01-23T09:38:59Z</time>
      </trkpt>
      <trkpt lat="45.85058" lon="6.43626">
        <ele>1903.07</ele>
        <time>2010-01-23T09:39:11Z</time>
      </trkpt>
      <trkpt lat="45.85058" lon="6.43626">
        <ele>1903.07</ele>
        <time>2010-01-23T09:39:12Z</time>
      </trkpt>
      <trkpt lat="45.85059" lon="6.43629">
        <ele>1903.07</ele>
        <time>2010-01-23T09:39:14Z</time>
      </trkpt>
      <trkpt lat="45.85058" lon="6.43629">
        <ele>1904.51</ele>
        <time>2010-01-23T09:39:22Z</time>
      </trkpt>
      <trkpt lat="45.85052" lon="6.43631">
        <ele>1905.47</ele>
        <time>2010-01-23T09:39:35Z</time>
      </trkpt>
      <trkpt lat="45.85038" lon="6.43624">
        <ele>1906.91</ele>
        <time>2010-01-23T09:39:58Z</time>
      </trkpt>
      <trkpt lat="45.85038" lon="6.43624">
        <ele>1906.91</ele>
        <time>2010-01-23T09:39:59Z</time>
      </trkpt>
      <trkpt lat="45.8504" lon="6.43627">
        <ele>1907.87</ele>
        <time>2010-01-23T09:40:05Z</time>
      </trkpt>
      <trkpt lat="45.85035" lon="6.4363">
        <ele>1908.35</ele>
        <time>2010-01-23T09:40:15Z</time>
      </trkpt>
      <trkpt lat="45.85035" lon="6.43631">
        <ele>1907.39</ele>
        <time>2010-01-23T09:40:18Z</time>
      </trkpt>
      <trkpt lat="45.85028" lon="6.43625">
        <ele>1909.32</ele>
        <time>2010-01-23T09:40:31Z</time>
      </trkpt>
      <trkpt lat="45.85024" lon="6.43624">
        <ele>1911.72</ele>
        <time>2010-01-23T09:40:49Z</time>
      </trkpt>
      <trkpt lat="45.85024" lon="6.43625">
        <ele>1911.72</ele>
        <time>2010-01-23T09:40:50Z</time>
      </trkpt>
      <trkpt lat="45.85021" lon="6.43629">
        <ele>1913.16</ele>
        <time>2010-01-23T09:41:08Z</time>
      </trkpt>
      <trkpt lat="45.85023" lon="6.43635">
        <ele>1915.08</ele>
        <time>2010-01-23T09:41:20Z</time>
      </trkpt>
      <trkpt lat="45.85017" lon="6.43632">
        <ele>1917.01</ele>
        <time>2010-01-23T09:41:44Z</time>
      </trkpt>
      <trkpt lat="45.85017" lon="6.43633">
        <ele>1917.01</ele>
        <time>2010-01-23T09:41:45Z</time>
      </trkpt>
      <trkpt lat="45.85016" lon="6.43635">
        <ele>1917.97</ele>
        <time>2010-01-23T09:41:55Z</time>
      </trkpt>
      <trkpt lat="45.85014" lon="6.43627">
        <ele>1918.45</ele>
        <time>2010-01-23T09:42:07Z</time>
      </trkpt>
      <trkpt lat="45.85013" lon="6.43628">
        <ele>1918.45</ele>
        <time>2010-01-23T09:42:16Z</time>
      </trkpt>
      <trkpt lat="45.85025" lon="6.43636">
        <ele>1918.45</ele>
        <time>2010-01-23T09:42:48Z</time>
      </trkpt>
      <trkpt lat="45.85023" lon="6.43639">
        <ele>1919.89</ele>
        <time>2010-01-23T09:43:05Z</time>
      </trkpt>
      <trkpt lat="45.85024" lon="6.43639">
        <ele>1916.53</ele>
        <time>2010-01-23T09:43:16Z</time>
      </trkpt>
      <trkpt lat="45.8503" lon="6.43647">
        <ele>1918.45</ele>
        <time>2010-01-23T09:43:46Z</time>
      </trkpt>
      <trkpt lat="45.8503" lon="6.43647">
        <ele>1917.97</ele>
        <time>2010-01-23T09:43:48Z</time>
      </trkpt>
      <trkpt lat="45.85036" lon="6.4365">
        <ele>1917.01</ele>
        <time>2010-01-23T09:44:13Z</time>
      </trkpt>
      <trkpt lat="45.85042" lon="6.43651">
        <ele>1921.33</ele>
        <time>2010-01-23T09:44:56Z</time>
      </trkpt>
      <trkpt lat="45.85042" lon="6.43651">
        <ele>1912.68</ele>
        <time>2010-01-23T09:44:57Z</time>
      </trkpt>
      <trkpt lat="45.85042" lon="6.43651">
        <ele>1917.01</ele>
        <time>2010-01-23T09:44:58Z</time>
      </trkpt>
      <trkpt lat="45.85035" lon="6.4364">
        <ele>1907.87</ele>
        <time>2010-01-23T09:45:23Z</time>
      </trkpt>
      <trkpt lat="45.85034" lon="6.4364">
        <ele>1914.12</ele>
        <time>2010-01-23T09:45:24Z</time>
      </trkpt>
      <trkpt lat="45.85032" lon="6.43638">
        <ele>1910.76</ele>
        <time>2010-01-23T09:45:54Z</time>
      </trkpt>
      <trkpt lat="45.85032" lon="6.43638">
        <ele>1914.6</ele>
        <time>2010-01-23T09:45:55Z</time>
      </trkpt>
      <trkpt lat="45.85029" lon="6.4364">
        <ele>1917.97</ele>
        <time>2010-01-23T09:46:17Z</time>
      </trkpt>
      <trkpt lat="45.85031" lon="6.43646">
        <ele>1921.33</ele>
        <time>2010-01-23T09:46:31Z</time>
      </trkpt>
      <trkpt lat="45.85028" lon="6.43651">
        <ele>1924.7</ele>
        <time>2010-01-23T09:46:48Z</time>
      </trkpt>
      <trkpt lat="45.85036" lon="6.43662">
        <ele>1928.06</ele>
        <time>2010-01-23T09:47:08Z</time>
      </trkpt>
      <trkpt lat="45.85037" lon="6.43667">
        <ele>1930.46</ele>
        <time>2010-01-23T09:47:19Z</time>
      </trkpt>
      <trkpt lat="45.85036" lon="6.43668">
        <ele>1933.35</ele>
        <time>2010-01-23T09:47:36Z</time>
      </trkpt>
      <trkpt lat="45.85035" lon="6.43668">
        <ele>1933.35</ele>
        <time>2010-01-23T09:47:37Z</time>
      </trkpt>
      <trkpt lat="45.85033" lon="6.43669">
        <ele>1935.27</ele>
        <time>2010-01-23T09:47:48Z</time>
      </trkpt>
      <trkpt lat="45.85035" lon="6.43673">
        <ele>1938.16</ele>
        <time>2010-01-23T09:48:01Z</time>
      </trkpt>
      <trkpt lat="45.85033" lon="6.43674">
        <ele>1939.6</ele>
        <time>2010-01-23T09:48:13Z</time>
      </trkpt>
      <trkpt lat="45.85032" lon="6.43676">
        <ele>1941.04</ele>
        <time>2010-01-23T09:48:25Z</time>
      </trkpt>
      <trkpt lat="45.8503" lon="6.43678">
        <ele>1944.4</ele>
        <time>2010-01-23T09:48:36Z</time>
      </trkpt>
      <trkpt lat="45.85029" lon="6.43679">
        <ele>1944.88</ele>
        <time>2010-01-23T09:48:40Z</time>
      </trkpt>
      <trkpt lat="45.85027" lon="6.43682">
        <ele>1948.25</ele>
        <time>2010-01-23T09:48:56Z</time>
      </trkpt>
      <trkpt lat="45.85028" lon="6.43687">
        <ele>1951.61</ele>
        <time>2010-01-23T09:49:13Z</time>
      </trkpt>
      <trkpt lat="45.85028" lon="6.4369">
        <ele>1954.98</ele>
        <time>2010-01-23T09:49:28Z</time>
      </trkpt>
      <trkpt lat="45.85032" lon="6.43696">
        <ele>1958.34</ele>
        <time>2010-01-23T09:49:51Z</time>
      </trkpt>
      <trkpt lat="45.85032" lon="6.43702">
        <ele>1961.23</ele>
        <time>2010-01-23T09:50:13Z</time>
      </trkpt>
      <trkpt lat="45.85032" lon="6.43706">
        <ele>1964.11</ele>
        <time>2010-01-23T09:50:33Z</time>
      </trkpt>
      <trkpt lat="45.85035" lon="6.4371">
        <ele>1967.96</ele>
        <time>2010-01-23T09:50:50Z</time>
      </trkpt>
      <trkpt lat="45.85036" lon="6.43715">
        <ele>1971.8</ele>
        <time>2010-01-23T09:51:08Z</time>
      </trkpt>
      <trkpt lat="45.85025" lon="6.43715">
        <ele>1974.2</ele>
        <time>2010-01-23T09:51:28Z</time>
      </trkpt>
      <trkpt lat="45.85027" lon="6.4372">
        <ele>1977.57</ele>
        <time>2010-01-23T09:51:47Z</time>
      </trkpt>
      <trkpt lat="45.85029" lon="6.43726">
        <ele>1980.93</ele>
        <time>2010-01-23T09:52:09Z</time>
      </trkpt>
      <trkpt lat="45.85026" lon="6.43726">
        <ele>1984.3</ele>
        <time>2010-01-23T09:52:26Z</time>
      </trkpt>
      <trkpt lat="45.85015" lon="6.43728">
        <ele>1987.66</ele>
        <time>2010-01-23T09:52:49Z</time>
      </trkpt>
      <trkpt lat="45.85016" lon="6.4373">
        <ele>1991.03</ele>
        <time>2010-01-23T09:53:10Z</time>
      </trkpt>
      <trkpt lat="45.85021" lon="6.43735">
        <ele>1993.91</ele>
        <time>2010-01-23T09:53:25Z</time>
      </trkpt>
      <trkpt lat="45.85019" lon="6.43736">
        <ele>1995.83</ele>
        <time>2010-01-23T09:53:40Z</time>
      </trkpt>
      <trkpt lat="45.85021" lon="6.43739">
        <ele>1998.72</ele>
        <time>2010-01-23T09:53:56Z</time>
      </trkpt>
      <trkpt lat="45.85021" lon="6.43741">
        <ele>2000.16</ele>
        <time>2010-01-23T09:54:10Z</time>
      </trkpt>
      <trkpt lat="45.85018" lon="6.43741">
        <ele>2002.56</ele>
        <time>2010-01-23T09:54:18Z</time>
      </trkpt>
      <trkpt lat="45.85026" lon="6.4375">
        <ele>2005.93</ele>
        <time>2010-01-23T09:54:40Z</time>
      </trkpt>
      <trkpt lat="45.85025" lon="6.4375">
        <ele>2006.89</ele>
        <time>2010-01-23T09:54:49Z</time>
      </trkpt>
      <trkpt lat="45.85025" lon="6.43754">
        <ele>2010.73</ele>
        <time>2010-01-23T09:55:13Z</time>
      </trkpt>
      <trkpt lat="45.85024" lon="6.43754">
        <ele>2010.73</ele>
        <time>2010-01-23T09:55:14Z</time>
      </trkpt>
      <trkpt lat="45.85015" lon="6.4375">
        <ele>2013.14</ele>
        <time>2010-01-23T09:55:30Z</time>
      </trkpt>
      <trkpt lat="45.85013" lon="6.4375">
        <ele>2016.02</ele>
        <time>2010-01-23T09:55:50Z</time>
      </trkpt>
      <trkpt lat="45.85012" lon="6.4375">
        <ele>2017.46</ele>
        <time>2010-01-23T09:55:53Z</time>
      </trkpt>
      <trkpt lat="45.85009" lon="6.43752">
        <ele>2021.31</ele>
        <time>2010-01-23T09:56:11Z</time>
      </trkpt>
      <trkpt lat="45.85005" lon="6.4375">
        <ele>2021.79</ele>
        <time>2010-01-23T09:56:21Z</time>
      </trkpt>
      <trkpt lat="45.85001" lon="6.43747">
        <ele>2024.19</ele>
        <time>2010-01-23T09:56:29Z</time>
      </trkpt>
      <trkpt lat="45.84999" lon="6.43745">
        <ele>2024.19</ele>
        <time>2010-01-23T09:56:34Z</time>
      </trkpt>
      <trkpt lat="45.84998" lon="6.43746">
        <ele>2025.15</ele>
        <time>2010-01-23T09:56:38Z</time>
      </trkpt>
      <trkpt lat="45.84994" lon="6.43744">
        <ele>2027.08</ele>
        <time>2010-01-23T09:56:50Z</time>
      </trkpt>
      <trkpt lat="45.8499" lon="6.43745">
        <ele>2029</ele>
        <time>2010-01-23T09:57:03Z</time>
      </trkpt>
      <trkpt lat="45.84983" lon="6.43749">
        <ele>2032.84</ele>
        <time>2010-01-23T09:57:20Z</time>
      </trkpt>
      <trkpt lat="45.84967" lon="6.43748">
        <ele>2035.73</ele>
        <time>2010-01-23T09:57:39Z</time>
      </trkpt>
      <trkpt lat="45.84965" lon="6.4375">
        <ele>2038.61</ele>
        <time>2010-01-23T09:57:57Z</time>
      </trkpt>
      <trkpt lat="45.84986" lon="6.43776">
        <ele>2040.05</ele>
        <time>2010-01-23T09:58:09Z</time>
      </trkpt>
      <trkpt lat="45.84994" lon="6.43785">
        <ele>2042.46</ele>
        <time>2010-01-23T09:58:16Z</time>
      </trkpt>
      <trkpt lat="45.84999" lon="6.43796">
        <ele>2043.9</ele>
        <time>2010-01-23T09:58:24Z</time>
      </trkpt>
      <trkpt lat="45.85002" lon="6.43804">
        <ele>2046.3</ele>
        <time>2010-01-23T09:58:31Z</time>
      </trkpt>
      <trkpt lat="45.85005" lon="6.43807">
        <ele>2047.26</ele>
        <time>2010-01-23T09:58:46Z</time>
      </trkpt>
      <trkpt lat="45.85005" lon="6.43807">
        <ele>2048.71</ele>
        <time>2010-01-23T09:58:48Z</time>
      </trkpt>
      <trkpt lat="45.85004" lon="6.43806">
        <ele>2046.78</ele>
        <time>2010-01-23T09:58:58Z</time>
      </trkpt>
      <trkpt lat="45.85005" lon="6.43808">
        <ele>2048.71</ele>
        <time>2010-01-23T09:59:17Z</time>
      </trkpt>
      <trkpt lat="45.85005" lon="6.43808">
        <ele>2048.71</ele>
        <time>2010-01-23T10:00:45Z</time>
      </trkpt>
      <trkpt lat="45.85006" lon="6.4381">
        <ele>2051.11</ele>
        <time>2010-01-23T10:01:12Z</time>
      </trkpt>
      <trkpt lat="45.85011" lon="6.43813">
        <ele>2049.67</ele>
        <time>2010-01-23T10:01:59Z</time>
      </trkpt>
      <trkpt lat="45.85016" lon="6.43818">
        <ele>2051.59</ele>
        <time>2010-01-23T10:02:15Z</time>
      </trkpt>
      <trkpt lat="45.85015" lon="6.43818">
        <ele>2052.55</ele>
        <time>2010-01-23T10:03:13Z</time>
      </trkpt>
      <trkpt lat="45.85016" lon="6.43817">
        <ele>2052.07</ele>
        <time>2010-01-23T10:03:38Z</time>
      </trkpt>
      <trkpt lat="45.85017" lon="6.43817">
        <ele>2052.55</ele>
        <time>2010-01-23T10:04:01Z</time>
      </trkpt>
      <trkpt lat="45.85016" lon="6.43816">
        <ele>2053.51</ele>
        <time>2010-01-23T10:04:40Z</time>
      </trkpt>
      <trkpt lat="45.85015" lon="6.43817">
        <ele>2054.47</ele>
        <time>2010-01-23T10:05:44Z</time>
      </trkpt>
      <trkpt lat="45.85015" lon="6.43818">
        <ele>2055.92</ele>
        <time>2010-01-23T10:05:47Z</time>
      </trkpt>
      <trkpt lat="45.85016" lon="6.4382">
        <ele>2057.36</ele>
        <time>2010-01-23T10:06:31Z</time>
      </trkpt>
      <trkpt lat="45.85016" lon="6.4382">
        <ele>2056.4</ele>
        <time>2010-01-23T10:06:33Z</time>
      </trkpt>
      <trkpt lat="45.85017" lon="6.43818">
        <ele>2056.4</ele>
        <time>2010-01-23T10:06:46Z</time>
      </trkpt>
      <trkpt lat="45.85019" lon="6.43821">
        <ele>2059.76</ele>
        <time>2010-01-23T10:08:26Z</time>
      </trkpt>
      <trkpt lat="45.85019" lon="6.4382">
        <ele>2056.4</ele>
        <time>2010-01-23T10:08:28Z</time>
      </trkpt>
      <trkpt lat="45.85019" lon="6.4382">
        <ele>2056.88</ele>
        <time>2010-01-23T10:08:29Z</time>
      </trkpt>
      <trkpt lat="45.85021" lon="6.43817">
        <ele>2053.51</ele>
        <time>2010-01-23T10:08:34Z</time>
      </trkpt>
      <trkpt lat="45.85022" lon="6.43816">
        <ele>2053.51</ele>
        <time>2010-01-23T10:08:36Z</time>
      </trkpt>
      <trkpt lat="45.85023" lon="6.43814">
        <ele>2051.59</ele>
        <time>2010-01-23T10:08:39Z</time>
      </trkpt>
      <trkpt lat="45.85025" lon="6.43804">
        <ele>2048.71</ele>
        <time>2010-01-23T10:08:53Z</time>
      </trkpt>
      <trkpt lat="45.85026" lon="6.43799">
        <ele>2044.86</ele>
        <time>2010-01-23T10:08:57Z</time>
      </trkpt>
      <trkpt lat="45.85026" lon="6.43798">
        <ele>2044.86</ele>
        <time>2010-01-23T10:08:58Z</time>
      </trkpt>
      <trkpt lat="45.85027" lon="6.43796">
        <ele>2043.9</ele>
        <time>2010-01-23T10:08:59Z</time>
      </trkpt>
      <trkpt lat="45.85026" lon="6.4379">
        <ele>2042.46</ele>
        <time>2010-01-23T10:09:01Z</time>
      </trkpt>
      <trkpt lat="45.85026" lon="6.43783">
        <ele>2040.05</ele>
        <time>2010-01-23T10:09:09Z</time>
      </trkpt>
      <trkpt lat="45.85029" lon="6.43787">
        <ele>2040.54</ele>
        <time>2010-01-23T10:09:14Z</time>
      </trkpt>
      <trkpt lat="45.8503" lon="6.43788">
        <ele>2041.5</ele>
        <time>2010-01-23T10:09:26Z</time>
      </trkpt>
      <trkpt lat="45.85001" lon="6.43749">
        <ele>2041.5</ele>
        <time>2010-01-23T10:09:48Z</time>
      </trkpt>
      <trkpt lat="45.85001" lon="6.4375">
        <ele>2041.02</ele>
        <time>2010-01-23T10:10:01Z</time>
      </trkpt>
      <trkpt lat="45.85002" lon="6.43751">
        <ele>2038.13</ele>
        <time>2010-01-23T10:10:16Z</time>
      </trkpt>
      <trkpt lat="45.85009" lon="6.43753">
        <ele>2034.77</ele>
        <time>2010-01-23T10:10:21Z</time>
      </trkpt>
      <trkpt lat="45.8501" lon="6.43751">
        <ele>2033.33</ele>
        <time>2010-01-23T10:10:24Z</time>
      </trkpt>
      <trkpt lat="45.85011" lon="6.43756">
        <ele>2030.44</ele>
        <time>2010-01-23T10:10:44Z</time>
      </trkpt>
      <trkpt lat="45.85012" lon="6.43755">
        <ele>2029.48</ele>
        <time>2010-01-23T10:10:45Z</time>
      </trkpt>
      <trkpt lat="45.8502" lon="6.43752">
        <ele>2022.75</ele>
        <time>2010-01-23T10:10:49Z</time>
      </trkpt>
      <trkpt lat="45.85029" lon="6.4375">
        <ele>2018.91</ele>
        <time>2010-01-23T10:10:52Z</time>
      </trkpt>
      <trkpt lat="45.85037" lon="6.43751">
        <ele>2013.62</ele>
        <time>2010-01-23T10:10:54Z</time>
      </trkpt>
      <trkpt lat="45.85041" lon="6.43752">
        <ele>2013.14</ele>
        <time>2010-01-23T10:10:55Z</time>
      </trkpt>
      <trkpt lat="45.85047" lon="6.43752">
        <ele>2009.29</ele>
        <time>2010-01-23T10:10:57Z</time>
      </trkpt>
      <trkpt lat="45.85053" lon="6.43752">
        <ele>2005.45</ele>
        <time>2010-01-23T10:10:59Z</time>
      </trkpt>
      <trkpt lat="45.85058" lon="6.43748">
        <ele>2001.6</ele>
        <time>2010-01-23T10:11:02Z</time>
      </trkpt>
      <trkpt lat="45.8506" lon="6.43746">
        <ele>1997.28</ele>
        <time>2010-01-23T10:11:05Z</time>
      </trkpt>
      <trkpt lat="45.85063" lon="6.43744">
        <ele>1995.83</ele>
        <time>2010-01-23T10:11:07Z</time>
      </trkpt>
      <trkpt lat="45.85067" lon="6.43743">
        <ele>1991.51</ele>
        <time>2010-01-23T10:11:09Z</time>
      </trkpt>
      <trkpt lat="45.8507" lon="6.43741">
        <ele>1989.59</ele>
        <time>2010-01-23T10:11:11Z</time>
      </trkpt>
      <trkpt lat="45.85073" lon="6.4374">
        <ele>1986.7</ele>
        <time>2010-01-23T10:11:13Z</time>
      </trkpt>
      <trkpt lat="45.85076" lon="6.43736">
        <ele>1985.26</ele>
        <time>2010-01-23T10:11:23Z</time>
      </trkpt>
      <trkpt lat="45.85076" lon="6.43736">
        <ele>1984.78</ele>
        <time>2010-01-23T10:11:24Z</time>
      </trkpt>
      <trkpt lat="45.85077" lon="6.43737">
        <ele>1986.7</ele>
        <time>2010-01-23T10:11:37Z</time>
      </trkpt>
      <trkpt lat="45.85057" lon="6.43713">
        <ele>1986.7</ele>
        <time>2010-01-23T10:12:10Z</time>
      </trkpt>
      <trkpt lat="45.8503" lon="6.43678">
        <ele>1988.62</ele>
        <time>2010-01-23T10:12:45Z</time>
      </trkpt>
      <trkpt lat="45.85048" lon="6.43705">
        <ele>1989.1</ele>
        <time>2010-01-23T10:13:30Z</time>
      </trkpt>
      <trkpt lat="45.8506" lon="6.43721">
        <ele>1987.18</ele>
        <time>2010-01-23T10:13:56Z</time>
      </trkpt>
      <trkpt lat="45.85065" lon="6.4372">
        <ele>1983.82</ele>
        <time>2010-01-23T10:14:00Z</time>
      </trkpt>
      <trkpt lat="45.85067" lon="6.43719">
        <ele>1982.38</ele>
        <time>2010-01-23T10:14:01Z</time>
      </trkpt>
      <trkpt lat="45.85071" lon="6.43717">
        <ele>1979.97</ele>
        <time>2010-01-23T10:14:03Z</time>
      </trkpt>
      <trkpt lat="45.85073" lon="6.43717">
        <ele>1977.57</ele>
        <time>2010-01-23T10:14:04Z</time>
      </trkpt>
      <trkpt lat="45.85079" lon="6.43713">
        <ele>1971.8</ele>
        <time>2010-01-23T10:14:09Z</time>
      </trkpt>
      <trkpt lat="45.85083" lon="6.43713">
        <ele>1968.44</ele>
        <time>2010-01-23T10:14:11Z</time>
      </trkpt>
      <trkpt lat="45.85086" lon="6.43712">
        <ele>1964.59</ele>
        <time>2010-01-23T10:14:14Z</time>
      </trkpt>
      <trkpt lat="45.85087" lon="6.43712">
        <ele>1965.55</ele>
        <time>2010-01-23T10:14:15Z</time>
      </trkpt>
      <trkpt lat="45.85081" lon="6.43711">
        <ele>1965.55</ele>
        <time>2010-01-23T10:14:31Z</time>
      </trkpt>
      <trkpt lat="45.85074" lon="6.43694">
        <ele>1966.03</ele>
        <time>2010-01-23T10:14:59Z</time>
      </trkpt>
      <trkpt lat="45.85084" lon="6.43707">
        <ele>1966.99</ele>
        <time>2010-01-23T10:15:40Z</time>
      </trkpt>
      <trkpt lat="45.85087" lon="6.43713">
        <ele>1967.96</ele>
        <time>2010-01-23T10:16:36Z</time>
      </trkpt>
      <trkpt lat="45.85083" lon="6.43707">
        <ele>1967.96</ele>
        <time>2010-01-23T10:16:59Z</time>
      </trkpt>
      <trkpt lat="45.85083" lon="6.43703">
        <ele>1963.63</ele>
        <time>2010-01-23T10:17:20Z</time>
      </trkpt>
      <trkpt lat="45.85088" lon="6.43697">
        <ele>1957.86</ele>
        <time>2010-01-23T10:17:24Z</time>
      </trkpt>
      <trkpt lat="45.85089" lon="6.43694">
        <ele>1958.82</ele>
        <time>2010-01-23T10:17:25Z</time>
      </trkpt>
      <trkpt lat="45.85093" lon="6.43688">
        <ele>1957.86</ele>
        <time>2010-01-23T10:17:31Z</time>
      </trkpt>
      <trkpt lat="45.85095" lon="6.4369">
        <ele>1953.06</ele>
        <time>2010-01-23T10:17:33Z</time>
      </trkpt>
      <trkpt lat="45.85097" lon="6.43691">
        <ele>1953.06</ele>
        <time>2010-01-23T10:17:34Z</time>
      </trkpt>
      <trkpt lat="45.85098" lon="6.43692">
        <ele>1950.65</ele>
        <time>2010-01-23T10:17:35Z</time>
      </trkpt>
      <trkpt lat="45.85106" lon="6.43687">
        <ele>1945.85</ele>
        <time>2010-01-23T10:17:40Z</time>
      </trkpt>
      <trkpt lat="45.85109" lon="6.43686">
        <ele>1942.48</ele>
        <time>2010-01-23T10:17:43Z</time>
      </trkpt>
      <trkpt lat="45.85111" lon="6.43684">
        <ele>1938.16</ele>
        <time>2010-01-23T10:17:47Z</time>
      </trkpt>
      <trkpt lat="45.8511" lon="6.43681">
        <ele>1936.71</ele>
        <time>2010-01-23T10:17:50Z</time>
      </trkpt>
      <trkpt lat="45.8511" lon="6.4367">
        <ele>1934.31</ele>
        <time>2010-01-23T10:17:58Z</time>
      </trkpt>
      <trkpt lat="45.85103" lon="6.43663">
        <ele>1932.39</ele>
        <time>2010-01-23T10:19:12Z</time>
      </trkpt>
      <trkpt lat="45.85104" lon="6.43657">
        <ele>1927.58</ele>
        <time>2010-01-23T10:19:15Z</time>
      </trkpt>
      <trkpt lat="45.85104" lon="6.43656">
        <ele>1927.1</ele>
        <time>2010-01-23T10:19:16Z</time>
      </trkpt>
      <trkpt lat="45.85103" lon="6.43654">
        <ele>1925.66</ele>
        <time>2010-01-23T10:19:18Z</time>
      </trkpt>
      <trkpt lat="45.85111" lon="6.4365">
        <ele>1920.37</ele>
        <time>2010-01-23T10:19:22Z</time>
      </trkpt>
      <trkpt lat="45.85114" lon="6.43649">
        <ele>1920.85</ele>
        <time>2010-01-23T10:19:23Z</time>
      </trkpt>
      <trkpt lat="45.85116" lon="6.43648">
        <ele>1918.93</ele>
        <time>2010-01-23T10:19:24Z</time>
      </trkpt>
      <trkpt lat="45.85123" lon="6.43645">
        <ele>1915.08</ele>
        <time>2010-01-23T10:19:27Z</time>
      </trkpt>
      <trkpt lat="45.85129" lon="6.43644">
        <ele>1910.76</ele>
        <time>2010-01-23T10:19:29Z</time>
      </trkpt>
      <trkpt lat="45.85132" lon="6.43643">
        <ele>1910.28</ele>
        <time>2010-01-23T10:19:30Z</time>
      </trkpt>
      <trkpt lat="45.85133" lon="6.43643">
        <ele>1907.39</ele>
        <time>2010-01-23T10:19:31Z</time>
      </trkpt>
      <trkpt lat="45.85145" lon="6.43643">
        <ele>1903.55</ele>
        <time>2010-01-23T10:19:36Z</time>
      </trkpt>
      <trkpt lat="45.8515" lon="6.43645">
        <ele>1901.14</ele>
        <time>2010-01-23T10:19:38Z</time>
      </trkpt>
      <trkpt lat="45.85154" lon="6.43642">
        <ele>1895.38</ele>
        <time>2010-01-23T10:19:42Z</time>
      </trkpt>
      <trkpt lat="45.85156" lon="6.43642">
        <ele>1896.34</ele>
        <time>2010-01-23T10:19:43Z</time>
      </trkpt>
      <trkpt lat="45.85158" lon="6.43641">
        <ele>1895.86</ele>
        <time>2010-01-23T10:19:54Z</time>
      </trkpt>
      <trkpt lat="45.85162" lon="6.43644">
        <ele>1895.38</ele>
        <time>2010-01-23T10:20:09Z</time>
      </trkpt>
      <trkpt lat="45.85166" lon="6.4365">
        <ele>1893.93</ele>
        <time>2010-01-23T10:20:28Z</time>
      </trkpt>
      <trkpt lat="45.85186" lon="6.43658">
        <ele>1888.65</ele>
        <time>2010-01-23T10:20:31Z</time>
      </trkpt>
      <trkpt lat="45.85214" lon="6.43678">
        <ele>1886.24</ele>
        <time>2010-01-23T10:20:37Z</time>
      </trkpt>
      <trkpt lat="45.85222" lon="6.43681">
        <ele>1881.92</ele>
        <time>2010-01-23T10:20:40Z</time>
      </trkpt>
      <trkpt lat="45.85224" lon="6.43683">
        <ele>1881.92</ele>
        <time>2010-01-23T10:20:41Z</time>
      </trkpt>
      <trkpt lat="45.85229" lon="6.43684">
        <ele>1879.51</ele>
        <time>2010-01-23T10:20:43Z</time>
      </trkpt>
      <trkpt lat="45.85233" lon="6.43686">
        <ele>1875.19</ele>
        <time>2010-01-23T10:20:45Z</time>
      </trkpt>
      <trkpt lat="45.85239" lon="6.43689">
        <ele>1871.82</ele>
        <time>2010-01-23T10:20:48Z</time>
      </trkpt>
      <trkpt lat="45.85244" lon="6.43689">
        <ele>1867.98</ele>
        <time>2010-01-23T10:20:50Z</time>
      </trkpt>
      <trkpt lat="45.85252" lon="6.4369">
        <ele>1863.65</ele>
        <time>2010-01-23T10:20:53Z</time>
      </trkpt>
      <trkpt lat="45.85256" lon="6.43685">
        <ele>1860.29</ele>
        <time>2010-01-23T10:20:55Z</time>
      </trkpt>
      <trkpt lat="45.85259" lon="6.43682">
        <ele>1856.92</ele>
        <time>2010-01-23T10:20:56Z</time>
      </trkpt>
      <trkpt lat="45.85266" lon="6.43683">
        <ele>1852.6</ele>
        <time>2010-01-23T10:20:59Z</time>
      </trkpt>
      <trkpt lat="45.85272" lon="6.4368">
        <ele>1847.31</ele>
        <time>2010-01-23T10:21:02Z</time>
      </trkpt>
      <trkpt lat="45.85278" lon="6.43672">
        <ele>1847.31</ele>
        <time>2010-01-23T10:21:09Z</time>
      </trkpt>
      <trkpt lat="45.85277" lon="6.43671">
        <ele>1846.83</ele>
        <time>2010-01-23T10:21:22Z</time>
      </trkpt>
      <trkpt lat="45.85278" lon="6.43672">
        <ele>1845.87</ele>
        <time>2010-01-23T10:21:25Z</time>
      </trkpt>
      <trkpt lat="45.85279" lon="6.43671">
        <ele>1841.06</ele>
        <time>2010-01-23T10:21:28Z</time>
      </trkpt>
      <trkpt lat="45.85279" lon="6.43668">
        <ele>1840.58</ele>
        <time>2010-01-23T10:21:29Z</time>
      </trkpt>
      <trkpt lat="45.85284" lon="6.43664">
        <ele>1832.89</ele>
        <time>2010-01-23T10:21:32Z</time>
      </trkpt>
      <trkpt lat="45.85288" lon="6.43661">
        <ele>1828.56</ele>
        <time>2010-01-23T10:21:34Z</time>
      </trkpt>
      <trkpt lat="45.85295" lon="6.43647">
        <ele>1821.35</ele>
        <time>2010-01-23T10:21:38Z</time>
      </trkpt>
      <trkpt lat="45.853" lon="6.43643">
        <ele>1817.51</ele>
        <time>2010-01-23T10:21:41Z</time>
      </trkpt>
      <trkpt lat="45.85302" lon="6.43639">
        <ele>1812.7</ele>
        <time>2010-01-23T10:21:43Z</time>
      </trkpt>
      <trkpt lat="45.85305" lon="6.43634">
        <ele>1809.34</ele>
        <time>2010-01-23T10:21:45Z</time>
      </trkpt>
      <trkpt lat="45.85306" lon="6.4363">
        <ele>1809.34</ele>
        <time>2010-01-23T10:21:46Z</time>
      </trkpt>
      <trkpt lat="45.85306" lon="6.43614">
        <ele>1808.38</ele>
        <time>2010-01-23T10:21:56Z</time>
      </trkpt>
      <trkpt lat="45.85306" lon="6.43615">
        <ele>1808.38</ele>
        <time>2010-01-23T10:21:58Z</time>
      </trkpt>
      <trkpt lat="45.85309" lon="6.43615">
        <ele>1802.61</ele>
        <time>2010-01-23T10:22:01Z</time>
      </trkpt>
      <trkpt lat="45.85314" lon="6.43615">
        <ele>1797.32</ele>
        <time>2010-01-23T10:22:03Z</time>
      </trkpt>
      <trkpt lat="45.85319" lon="6.43614">
        <ele>1793</ele>
        <time>2010-01-23T10:22:05Z</time>
      </trkpt>
      <trkpt lat="45.85324" lon="6.43611">
        <ele>1788.19</ele>
        <time>2010-01-23T10:22:07Z</time>
      </trkpt>
      <trkpt lat="45.85332" lon="6.43611">
        <ele>1786.75</ele>
        <time>2010-01-23T10:22:10Z</time>
      </trkpt>
      <trkpt lat="45.85336" lon="6.43618">
        <ele>1785.79</ele>
        <time>2010-01-23T10:22:33Z</time>
      </trkpt>
      <trkpt lat="45.85336" lon="6.43619">
        <ele>1784.82</ele>
        <time>2010-01-23T10:22:54Z</time>
      </trkpt>
      <trkpt lat="45.85339" lon="6.43621">
        <ele>1781.46</ele>
        <time>2010-01-23T10:22:57Z</time>
      </trkpt>
      <trkpt lat="45.85342" lon="6.43623">
        <ele>1781.94</ele>
        <time>2010-01-23T10:22:58Z</time>
      </trkpt>
      <trkpt lat="45.85347" lon="6.43628">
        <ele>1778.58</ele>
        <time>2010-01-23T10:23:00Z</time>
      </trkpt>
      <trkpt lat="45.85353" lon="6.43618">
        <ele>1772.33</ele>
        <time>2010-01-23T10:23:04Z</time>
      </trkpt>
      <trkpt lat="45.85355" lon="6.43608">
        <ele>1768.96</ele>
        <time>2010-01-23T10:23:06Z</time>
      </trkpt>
      <trkpt lat="45.85356" lon="6.43604">
        <ele>1767.52</ele>
        <time>2010-01-23T10:23:07Z</time>
      </trkpt>
      <trkpt lat="45.85364" lon="6.43597">
        <ele>1760.31</ele>
        <time>2010-01-23T10:23:10Z</time>
      </trkpt>
      <trkpt lat="45.85371" lon="6.43593">
        <ele>1753.58</ele>
        <time>2010-01-23T10:23:12Z</time>
      </trkpt>
      <trkpt lat="45.85379" lon="6.43585">
        <ele>1747.33</ele>
        <time>2010-01-23T10:23:15Z</time>
      </trkpt>
      <trkpt lat="45.85382" lon="6.43582">
        <ele>1744.93</ele>
        <time>2010-01-23T10:23:16Z</time>
      </trkpt>
      <trkpt lat="45.85387" lon="6.43573">
        <ele>1739.64</ele>
        <time>2010-01-23T10:23:18Z</time>
      </trkpt>
      <trkpt lat="45.85392" lon="6.43564">
        <ele>1734.84</ele>
        <time>2010-01-23T10:23:20Z</time>
      </trkpt>
      <trkpt lat="45.85395" lon="6.4356">
        <ele>1731.95</ele>
        <time>2010-01-23T10:23:21Z</time>
      </trkpt>
      <trkpt lat="45.85398" lon="6.43555">
        <ele>1728.11</ele>
        <time>2010-01-23T10:23:22Z</time>
      </trkpt>
      <trkpt lat="45.85405" lon="6.43547">
        <ele>1723.78</ele>
        <time>2010-01-23T10:23:24Z</time>
      </trkpt>
      <trkpt lat="45.85415" lon="6.43535">
        <ele>1716.57</ele>
        <time>2010-01-23T10:23:27Z</time>
      </trkpt>
      <trkpt lat="45.85417" lon="6.43531">
        <ele>1715.61</ele>
        <time>2010-01-23T10:23:28Z</time>
      </trkpt>
      <trkpt lat="45.85423" lon="6.43524">
        <ele>1711.28</ele>
        <time>2010-01-23T10:23:30Z</time>
      </trkpt>
      <trkpt lat="45.85436" lon="6.4352">
        <ele>1702.15</ele>
        <time>2010-01-23T10:23:33Z</time>
      </trkpt>
      <trkpt lat="45.85442" lon="6.43519">
        <ele>1699.75</ele>
        <time>2010-01-23T10:23:34Z</time>
      </trkpt>
      <trkpt lat="45.85461" lon="6.4352">
        <ele>1696.86</ele>
        <time>2010-01-23T10:23:36Z</time>
      </trkpt>
      <trkpt lat="45.85467" lon="6.43521">
        <ele>1694.94</ele>
        <time>2010-01-23T10:23:37Z</time>
      </trkpt>
      <trkpt lat="45.85476" lon="6.43524">
        <ele>1691.1</ele>
        <time>2010-01-23T10:23:39Z</time>
      </trkpt>
      <trkpt lat="45.85491" lon="6.43528">
        <ele>1687.73</ele>
        <time>2010-01-23T10:23:42Z</time>
      </trkpt>
      <trkpt lat="45.8551" lon="6.43533">
        <ele>1680.52</ele>
        <time>2010-01-23T10:23:46Z</time>
      </trkpt>
      <trkpt lat="45.85516" lon="6.43537">
        <ele>1680.04</ele>
        <time>2010-01-23T10:23:47Z</time>
      </trkpt>
      <trkpt lat="45.85527" lon="6.43552">
        <ele>1677.16</ele>
        <time>2010-01-23T10:23:50Z</time>
      </trkpt>
      <trkpt lat="45.85531" lon="6.43558">
        <ele>1675.72</ele>
        <time>2010-01-23T10:23:51Z</time>
      </trkpt>
      <trkpt lat="45.85552" lon="6.43571">
        <ele>1672.83</ele>
        <time>2010-01-23T10:23:55Z</time>
      </trkpt>
      <trkpt lat="45.85574" lon="6.43575">
        <ele>1671.39</ele>
        <time>2010-01-23T10:23:59Z</time>
      </trkpt>
      <trkpt lat="45.85584" lon="6.43575">
        <ele>1670.91</ele>
        <time>2010-01-23T10:24:01Z</time>
      </trkpt>
      <trkpt lat="45.85594" lon="6.43572">
        <ele>1670.43</ele>
        <time>2010-01-23T10:24:04Z</time>
      </trkpt>
      <trkpt lat="45.85601" lon="6.4357">
        <ele>1668.99</ele>
        <time>2010-01-23T10:24:08Z</time>
      </trkpt>
      <trkpt lat="45.85617" lon="6.43569">
        <ele>1669.47</ele>
        <time>2010-01-23T10:24:14Z</time>
      </trkpt>
      <trkpt lat="45.85625" lon="6.43568">
        <ele>1668.99</ele>
        <time>2010-01-23T10:24:26Z</time>
      </trkpt>
      <trkpt lat="45.85624" lon="6.43568">
        <ele>1668.99</ele>
        <time>2010-01-23T10:24:53Z</time>
      </trkpt>
      <trkpt lat="45.85624" lon="6.43567">
        <ele>1662.74</ele>
        <time>2010-01-23T10:25:06Z</time>
      </trkpt>
      <trkpt lat="45.85624" lon="6.43567">
        <ele>1670.43</ele>
        <time>2010-01-23T10:25:07Z</time>
      </trkpt>
      <trkpt lat="45.85624" lon="6.43567">
        <ele>1669.47</ele>
        <time>2010-01-23T10:25:22Z</time>
      </trkpt>
      <trkpt lat="45.85625" lon="6.43566">
        <ele>1668.51</ele>
        <time>2010-01-23T10:26:00Z</time>
      </trkpt>
      <trkpt lat="45.85624" lon="6.43563">
        <ele>1670.43</ele>
        <time>2010-01-23T10:26:47Z</time>
      </trkpt>
      <trkpt lat="45.85624" lon="6.43564">
        <ele>1668.99</ele>
        <time>2010-01-23T10:26:50Z</time>
      </trkpt>
      <trkpt lat="45.85625" lon="6.43563">
        <ele>1668.02</ele>
        <time>2010-01-23T10:27:28Z</time>
      </trkpt>
      <trkpt lat="45.85627" lon="6.43564">
        <ele>1670.43</ele>
        <time>2010-01-23T10:28:39Z</time>
      </trkpt>
      <trkpt lat="45.85627" lon="6.43564">
        <ele>1668.99</ele>
        <time>2010-01-23T10:28:46Z</time>
      </trkpt>
      <trkpt lat="45.85626" lon="6.43564">
        <ele>1669.95</ele>
        <time>2010-01-23T10:29:16Z</time>
      </trkpt>
      <trkpt lat="45.85626" lon="6.43564">
        <ele>1670.43</ele>
        <time>2010-01-23T10:30:09Z</time>
      </trkpt>
      <trkpt lat="45.85627" lon="6.43564">
        <ele>1670.43</ele>
        <time>2010-01-23T10:31:18Z</time>
      </trkpt>
      <trkpt lat="45.85629" lon="6.43562">
        <ele>1671.39</ele>
        <time>2010-01-23T10:31:33Z</time>
      </trkpt>
      <trkpt lat="45.85637" lon="6.4356">
        <ele>1671.87</ele>
        <time>2010-01-23T10:31:49Z</time>
      </trkpt>
      <trkpt lat="45.85654" lon="6.43574">
        <ele>1675.72</ele>
        <time>2010-01-23T10:32:07Z</time>
      </trkpt>
      <trkpt lat="45.85664" lon="6.43583">
        <ele>1676.68</ele>
        <time>2010-01-23T10:32:20Z</time>
      </trkpt>
      <trkpt lat="45.85675" lon="6.43591">
        <ele>1679.56</ele>
        <time>2010-01-23T10:32:34Z</time>
      </trkpt>
      <trkpt lat="45.85685" lon="6.43606">
        <ele>1679.56</ele>
        <time>2010-01-23T10:32:48Z</time>
      </trkpt>
      <trkpt lat="45.85691" lon="6.43613">
        <ele>1680.52</ele>
        <time>2010-01-23T10:32:54Z</time>
      </trkpt>
      <trkpt lat="45.85698" lon="6.43623">
        <ele>1680.04</ele>
        <time>2010-01-23T10:33:01Z</time>
      </trkpt>
      <trkpt lat="45.85708" lon="6.43618">
        <ele>1680.04</ele>
        <time>2010-01-23T10:33:15Z</time>
      </trkpt>
      <trkpt lat="45.85713" lon="6.43614">
        <ele>1683.89</ele>
        <time>2010-01-23T10:33:22Z</time>
      </trkpt>
      <trkpt lat="45.85726" lon="6.43617">
        <ele>1683.41</ele>
        <time>2010-01-23T10:33:35Z</time>
      </trkpt>
      <trkpt lat="45.85738" lon="6.43628">
        <ele>1684.37</ele>
        <time>2010-01-23T10:33:47Z</time>
      </trkpt>
      <trkpt lat="45.85739" lon="6.43632">
        <ele>1684.85</ele>
        <time>2010-01-23T10:33:53Z</time>
      </trkpt>
      <trkpt lat="45.85733" lon="6.43637">
        <ele>1687.25</ele>
        <time>2010-01-23T10:34:08Z</time>
      </trkpt>
      <trkpt lat="45.85725" lon="6.43641">
        <ele>1690.14</ele>
        <time>2010-01-23T10:34:26Z</time>
      </trkpt>
      <trkpt lat="45.85723" lon="6.43653">
        <ele>1693.98</ele>
        <time>2010-01-23T10:34:40Z</time>
      </trkpt>
      <trkpt lat="45.8572" lon="6.43662">
        <ele>1695.9</ele>
        <time>2010-01-23T10:34:53Z</time>
      </trkpt>
      <trkpt lat="45.85722" lon="6.43664">
        <ele>1696.86</ele>
        <time>2010-01-23T10:34:55Z</time>
      </trkpt>
      <trkpt lat="45.85726" lon="6.43674">
        <ele>1697.83</ele>
        <time>2010-01-23T10:35:13Z</time>
      </trkpt>
      <trkpt lat="45.85725" lon="6.43674">
        <ele>1696.86</ele>
        <time>2010-01-23T10:35:18Z</time>
      </trkpt>
      <trkpt lat="45.85726" lon="6.43674">
        <ele>1700.71</ele>
        <time>2010-01-23T10:35:34Z</time>
      </trkpt>
      <trkpt lat="45.85727" lon="6.43678">
        <ele>1697.34</ele>
        <time>2010-01-23T10:35:44Z</time>
      </trkpt>
      <trkpt lat="45.85728" lon="6.43683">
        <ele>1701.19</ele>
        <time>2010-01-23T10:35:51Z</time>
      </trkpt>
      <trkpt lat="45.85722" lon="6.43698">
        <ele>1702.63</ele>
        <time>2010-01-23T10:36:08Z</time>
      </trkpt>
      <trkpt lat="45.85714" lon="6.43708">
        <ele>1705.52</ele>
        <time>2010-01-23T10:36:21Z</time>
      </trkpt>
      <trkpt lat="45.85705" lon="6.43715">
        <ele>1709.84</ele>
        <time>2010-01-23T10:36:36Z</time>
      </trkpt>
      <trkpt lat="45.85703" lon="6.43718">
        <ele>1710.32</ele>
        <time>2010-01-23T10:36:40Z</time>
      </trkpt>
      <trkpt lat="45.85705" lon="6.43722">
        <ele>1713.69</ele>
        <time>2010-01-23T10:36:53Z</time>
      </trkpt>
      <trkpt lat="45.85709" lon="6.4373">
        <ele>1715.13</ele>
        <time>2010-01-23T10:37:05Z</time>
      </trkpt>
      <trkpt lat="45.85712" lon="6.43739">
        <ele>1717.53</ele>
        <time>2010-01-23T10:37:16Z</time>
      </trkpt>
      <trkpt lat="45.85715" lon="6.43746">
        <ele>1720.9</ele>
        <time>2010-01-23T10:37:26Z</time>
      </trkpt>
      <trkpt lat="45.85718" lon="6.43755">
        <ele>1721.86</ele>
        <time>2010-01-23T10:37:37Z</time>
      </trkpt>
      <trkpt lat="45.85721" lon="6.43762">
        <ele>1723.78</ele>
        <time>2010-01-23T10:37:48Z</time>
      </trkpt>
      <trkpt lat="45.85723" lon="6.43769">
        <ele>1725.22</ele>
        <time>2010-01-23T10:38:00Z</time>
      </trkpt>
      <trkpt lat="45.85727" lon="6.43772">
        <ele>1727.63</ele>
        <time>2010-01-23T10:38:07Z</time>
      </trkpt>
      <trkpt lat="45.85731" lon="6.43778">
        <ele>1729.55</ele>
        <time>2010-01-23T10:38:17Z</time>
      </trkpt>
      <trkpt lat="45.85726" lon="6.43784">
        <ele>1730.99</ele>
        <time>2010-01-23T10:38:27Z</time>
      </trkpt>
      <trkpt lat="45.85722" lon="6.43788">
        <ele>1731.47</ele>
        <time>2010-01-23T10:38:31Z</time>
      </trkpt>
      <trkpt lat="45.85713" lon="6.43789">
        <ele>1733.88</ele>
        <time>2010-01-23T10:38:42Z</time>
      </trkpt>
      <trkpt lat="45.85711" lon="6.43788">
        <ele>1735.32</ele>
        <time>2010-01-23T10:38:45Z</time>
      </trkpt>
      <trkpt lat="45.85701" lon="6.43786">
        <ele>1738.2</ele>
        <time>2010-01-23T10:39:00Z</time>
      </trkpt>
      <trkpt lat="45.85692" lon="6.43785">
        <ele>1740.12</ele>
        <time>2010-01-23T10:39:13Z</time>
      </trkpt>
      <trkpt lat="45.85685" lon="6.43788">
        <ele>1743.49</ele>
        <time>2010-01-23T10:39:31Z</time>
      </trkpt>
      <trkpt lat="45.85683" lon="6.43793">
        <ele>1744.93</ele>
        <time>2010-01-23T10:39:41Z</time>
      </trkpt>
      <trkpt lat="45.85674" lon="6.43806">
        <ele>1748.29</ele>
        <time>2010-01-23T10:39:56Z</time>
      </trkpt>
      <trkpt lat="45.85669" lon="6.43812">
        <ele>1750.7</ele>
        <time>2010-01-23T10:40:08Z</time>
      </trkpt>
      <trkpt lat="45.85661" lon="6.43802">
        <ele>1752.62</ele>
        <time>2010-01-23T10:40:23Z</time>
      </trkpt>
      <trkpt lat="45.85657" lon="6.43803">
        <ele>1755.5</ele>
        <time>2010-01-23T10:40:32Z</time>
      </trkpt>
      <trkpt lat="45.85649" lon="6.43806">
        <ele>1757.43</ele>
        <time>2010-01-23T10:40:47Z</time>
      </trkpt>
      <trkpt lat="45.85637" lon="6.43802">
        <ele>1760.79</ele>
        <time>2010-01-23T10:41:03Z</time>
      </trkpt>
      <trkpt lat="45.8563" lon="6.438">
        <ele>1761.75</ele>
        <time>2010-01-23T10:41:14Z</time>
      </trkpt>
      <trkpt lat="45.85628" lon="6.438">
        <ele>1763.2</ele>
        <time>2010-01-23T10:41:16Z</time>
      </trkpt>
      <trkpt lat="45.85618" lon="6.43801">
        <ele>1766.08</ele>
        <time>2010-01-23T10:41:30Z</time>
      </trkpt>
      <trkpt lat="45.85621" lon="6.43805">
        <ele>1767.52</ele>
        <time>2010-01-23T10:41:43Z</time>
      </trkpt>
      <trkpt lat="45.85628" lon="6.43811">
        <ele>1768.96</ele>
        <time>2010-01-23T10:41:53Z</time>
      </trkpt>
      <trkpt lat="45.85639" lon="6.43824">
        <ele>1772.81</ele>
        <time>2010-01-23T10:42:08Z</time>
      </trkpt>
      <trkpt lat="45.85644" lon="6.43834">
        <ele>1775.21</ele>
        <time>2010-01-23T10:42:19Z</time>
      </trkpt>
      <trkpt lat="45.85647" lon="6.43837">
        <ele>1775.69</ele>
        <time>2010-01-23T10:42:23Z</time>
      </trkpt>
      <trkpt lat="45.85651" lon="6.43848">
        <ele>1778.58</ele>
        <time>2010-01-23T10:42:37Z</time>
      </trkpt>
      <trkpt lat="45.85653" lon="6.43856">
        <ele>1779.54</ele>
        <time>2010-01-23T10:42:46Z</time>
      </trkpt>
      <trkpt lat="45.85656" lon="6.43864">
        <ele>1782.42</ele>
        <time>2010-01-23T10:42:58Z</time>
      </trkpt>
      <trkpt lat="45.85658" lon="6.43873">
        <ele>1784.82</ele>
        <time>2010-01-23T10:43:09Z</time>
      </trkpt>
      <trkpt lat="45.8566" lon="6.43878">
        <ele>1786.75</ele>
        <time>2010-01-23T10:43:19Z</time>
      </trkpt>
      <trkpt lat="45.85668" lon="6.43888">
        <ele>1789.15</ele>
        <time>2010-01-23T10:43:32Z</time>
      </trkpt>
      <trkpt lat="45.85675" lon="6.43899">
        <ele>1790.59</ele>
        <time>2010-01-23T10:43:46Z</time>
      </trkpt>
      <trkpt lat="45.85682" lon="6.43909">
        <ele>1793.96</ele>
        <time>2010-01-23T10:44:00Z</time>
      </trkpt>
      <trkpt lat="45.8569" lon="6.43917">
        <ele>1796.36</ele>
        <time>2010-01-23T10:44:13Z</time>
      </trkpt>
      <trkpt lat="45.85691" lon="6.4392">
        <ele>1797.32</ele>
        <time>2010-01-23T10:44:18Z</time>
      </trkpt>
      <trkpt lat="45.85678" lon="6.43925">
        <ele>1798.28</ele>
        <time>2010-01-23T10:44:32Z</time>
      </trkpt>
      <trkpt lat="45.85677" lon="6.43926">
        <ele>1800.69</ele>
        <time>2010-01-23T10:44:38Z</time>
      </trkpt>
      <trkpt lat="45.85686" lon="6.43932">
        <ele>1803.09</ele>
        <time>2010-01-23T10:44:50Z</time>
      </trkpt>
      <trkpt lat="45.85695" lon="6.43935">
        <ele>1804.53</ele>
        <time>2010-01-23T10:45:03Z</time>
      </trkpt>
      <trkpt lat="45.85699" lon="6.43939">
        <ele>1807.9</ele>
        <time>2010-01-23T10:45:15Z</time>
      </trkpt>
      <trkpt lat="45.85706" lon="6.43944">
        <ele>1810.3</ele>
        <time>2010-01-23T10:45:27Z</time>
      </trkpt>
      <trkpt lat="45.85711" lon="6.43947">
        <ele>1812.7</ele>
        <time>2010-01-23T10:45:37Z</time>
      </trkpt>
      <trkpt lat="45.85714" lon="6.43949">
        <ele>1813.18</ele>
        <time>2010-01-23T10:45:41Z</time>
      </trkpt>
      <trkpt lat="45.8572" lon="6.43957">
        <ele>1814.63</ele>
        <time>2010-01-23T10:45:52Z</time>
      </trkpt>
      <trkpt lat="45.85726" lon="6.43967">
        <ele>1816.07</ele>
        <time>2010-01-23T10:46:04Z</time>
      </trkpt>
      <trkpt lat="45.85729" lon="6.43976">
        <ele>1819.43</ele>
        <time>2010-01-23T10:46:16Z</time>
      </trkpt>
      <trkpt lat="45.85731" lon="6.43981">
        <ele>1821.84</ele>
        <time>2010-01-23T10:46:23Z</time>
      </trkpt>
      <trkpt lat="45.85733" lon="6.43989">
        <ele>1822.8</ele>
        <time>2010-01-23T10:46:34Z</time>
      </trkpt>
      <trkpt lat="45.85729" lon="6.43999">
        <ele>1826.16</ele>
        <time>2010-01-23T10:46:47Z</time>
      </trkpt>
      <trkpt lat="45.85728" lon="6.44001">
        <ele>1825.68</ele>
        <time>2010-01-23T10:46:50Z</time>
      </trkpt>
      <trkpt lat="45.85718" lon="6.44018">
        <ele>1828.56</ele>
        <time>2010-01-23T10:47:06Z</time>
      </trkpt>
      <trkpt lat="45.85718" lon="6.4402">
        <ele>1829.05</ele>
        <time>2010-01-23T10:47:08Z</time>
      </trkpt>
      <trkpt lat="45.8572" lon="6.44024">
        <ele>1830.49</ele>
        <time>2010-01-23T10:47:15Z</time>
      </trkpt>
      <trkpt lat="45.85727" lon="6.44032">
        <ele>1832.41</ele>
        <time>2010-01-23T10:47:29Z</time>
      </trkpt>
      <trkpt lat="45.85735" lon="6.4404">
        <ele>1834.81</ele>
        <time>2010-01-23T10:47:43Z</time>
      </trkpt>
      <trkpt lat="45.85743" lon="6.44046">
        <ele>1836.26</ele>
        <time>2010-01-23T10:47:56Z</time>
      </trkpt>
      <trkpt lat="45.85752" lon="6.44054">
        <ele>1839.62</ele>
        <time>2010-01-23T10:48:10Z</time>
      </trkpt>
      <trkpt lat="45.85754" lon="6.44057">
        <ele>1840.58</ele>
        <time>2010-01-23T10:48:14Z</time>
      </trkpt>
      <trkpt lat="45.85755" lon="6.44066">
        <ele>1842.02</ele>
        <time>2010-01-23T10:48:23Z</time>
      </trkpt>
      <trkpt lat="45.85755" lon="6.44078">
        <ele>1845.39</ele>
        <time>2010-01-23T10:48:39Z</time>
      </trkpt>
      <trkpt lat="45.85754" lon="6.44089">
        <ele>1847.79</ele>
        <time>2010-01-23T10:48:52Z</time>
      </trkpt>
      <trkpt lat="45.85756" lon="6.44093">
        <ele>1849.23</ele>
        <time>2010-01-23T10:49:04Z</time>
      </trkpt>
      <trkpt lat="45.85756" lon="6.44094">
        <ele>1849.23</ele>
        <time>2010-01-23T10:49:05Z</time>
      </trkpt>
      <trkpt lat="45.85761" lon="6.44101">
        <ele>1851.64</ele>
        <time>2010-01-23T10:49:16Z</time>
      </trkpt>
      <trkpt lat="45.85766" lon="6.44108">
        <ele>1854.04</ele>
        <time>2010-01-23T10:49:28Z</time>
      </trkpt>
      <trkpt lat="45.85772" lon="6.44114">
        <ele>1855.96</ele>
        <time>2010-01-23T10:49:40Z</time>
      </trkpt>
      <trkpt lat="45.85777" lon="6.44123">
        <ele>1858.85</ele>
        <time>2010-01-23T10:49:53Z</time>
      </trkpt>
      <trkpt lat="45.85783" lon="6.44129">
        <ele>1861.25</ele>
        <time>2010-01-23T10:50:06Z</time>
      </trkpt>
      <trkpt lat="45.85788" lon="6.44132">
        <ele>1861.25</ele>
        <time>2010-01-23T10:50:17Z</time>
      </trkpt>
      <trkpt lat="45.85789" lon="6.44133">
        <ele>1862.69</ele>
        <time>2010-01-23T10:50:20Z</time>
      </trkpt>
      <trkpt lat="45.85791" lon="6.44143">
        <ele>1865.09</ele>
        <time>2010-01-23T10:50:32Z</time>
      </trkpt>
      <trkpt lat="45.85789" lon="6.44156">
        <ele>1868.46</ele>
        <time>2010-01-23T10:50:48Z</time>
      </trkpt>
      <trkpt lat="45.85787" lon="6.44163">
        <ele>1870.38</ele>
        <time>2010-01-23T10:50:59Z</time>
      </trkpt>
      <trkpt lat="45.85784" lon="6.4417">
        <ele>1873.75</ele>
        <time>2010-01-23T10:51:10Z</time>
      </trkpt>
      <trkpt lat="45.8578" lon="6.4418">
        <ele>1875.67</ele>
        <time>2010-01-23T10:51:23Z</time>
      </trkpt>
      <trkpt lat="45.85779" lon="6.44181">
        <ele>1875.19</ele>
        <time>2010-01-23T10:51:25Z</time>
      </trkpt>
      <trkpt lat="45.85781" lon="6.44184">
        <ele>1877.59</ele>
        <time>2010-01-23T10:51:33Z</time>
      </trkpt>
      <trkpt lat="45.85784" lon="6.44187">
        <ele>1879.03</ele>
        <time>2010-01-23T10:51:41Z</time>
      </trkpt>
      <trkpt lat="45.85788" lon="6.44193">
        <ele>1880</ele>
        <time>2010-01-23T10:51:52Z</time>
      </trkpt>
      <trkpt lat="45.85786" lon="6.44202">
        <ele>1883.36</ele>
        <time>2010-01-23T10:52:04Z</time>
      </trkpt>
      <trkpt lat="45.85788" lon="6.44209">
        <ele>1883.84</ele>
        <time>2010-01-23T10:52:16Z</time>
      </trkpt>
      <trkpt lat="45.85793" lon="6.44217">
        <ele>1886.72</ele>
        <time>2010-01-23T10:52:29Z</time>
      </trkpt>
      <trkpt lat="45.85798" lon="6.4422">
        <ele>1889.61</ele>
        <time>2010-01-23T10:52:41Z</time>
      </trkpt>
      <trkpt lat="45.85804" lon="6.44222">
        <ele>1891.53</ele>
        <time>2010-01-23T10:52:52Z</time>
      </trkpt>
      <trkpt lat="45.85806" lon="6.44222">
        <ele>1891.53</ele>
        <time>2010-01-23T10:53:05Z</time>
      </trkpt>
      <trkpt lat="45.85812" lon="6.44223">
        <ele>1893.45</ele>
        <time>2010-01-23T10:53:18Z</time>
      </trkpt>
      <trkpt lat="45.85815" lon="6.44225">
        <ele>1894.9</ele>
        <time>2010-01-23T10:53:31Z</time>
      </trkpt>
      <trkpt lat="45.85822" lon="6.44229">
        <ele>1897.3</ele>
        <time>2010-01-23T10:53:43Z</time>
      </trkpt>
      <trkpt lat="45.85827" lon="6.44231">
        <ele>1898.74</ele>
        <time>2010-01-23T10:53:50Z</time>
      </trkpt>
      <trkpt lat="45.85833" lon="6.44233">
        <ele>1900.18</ele>
        <time>2010-01-23T10:54:03Z</time>
      </trkpt>
      <trkpt lat="45.85831" lon="6.44237">
        <ele>1902.11</ele>
        <time>2010-01-23T10:54:09Z</time>
      </trkpt>
      <trkpt lat="45.85824" lon="6.4425">
        <ele>1904.99</ele>
        <time>2010-01-23T10:54:24Z</time>
      </trkpt>
      <trkpt lat="45.85816" lon="6.4426">
        <ele>1908.35</ele>
        <time>2010-01-23T10:54:43Z</time>
      </trkpt>
      <trkpt lat="45.85808" lon="6.4427">
        <ele>1911.24</ele>
        <time>2010-01-23T10:55:00Z</time>
      </trkpt>
      <trkpt lat="45.85807" lon="6.44273">
        <ele>1911.24</ele>
        <time>2010-01-23T10:55:04Z</time>
      </trkpt>
      <trkpt lat="45.85807" lon="6.44287">
        <ele>1914.12</ele>
        <time>2010-01-23T10:55:19Z</time>
      </trkpt>
      <trkpt lat="45.85805" lon="6.44291">
        <ele>1914.6</ele>
        <time>2010-01-23T10:55:24Z</time>
      </trkpt>
      <trkpt lat="45.85797" lon="6.44297">
        <ele>1918.93</ele>
        <time>2010-01-23T10:55:39Z</time>
      </trkpt>
      <trkpt lat="45.85802" lon="6.44298">
        <ele>1919.41</ele>
        <time>2010-01-23T10:55:50Z</time>
      </trkpt>
      <trkpt lat="45.85806" lon="6.44297">
        <ele>1922.77</ele>
        <time>2010-01-23T10:55:59Z</time>
      </trkpt>
      <trkpt lat="45.85812" lon="6.44296">
        <ele>1923.74</ele>
        <time>2010-01-23T10:56:10Z</time>
      </trkpt>
      <trkpt lat="45.8582" lon="6.44295">
        <ele>1926.62</ele>
        <time>2010-01-23T10:56:25Z</time>
      </trkpt>
      <trkpt lat="45.85823" lon="6.44295">
        <ele>1928.06</ele>
        <time>2010-01-23T10:56:30Z</time>
      </trkpt>
      <trkpt lat="45.85824" lon="6.44305">
        <ele>1929.5</ele>
        <time>2010-01-23T10:56:41Z</time>
      </trkpt>
      <trkpt lat="45.85825" lon="6.44316">
        <ele>1932.87</ele>
        <time>2010-01-23T10:57:01Z</time>
      </trkpt>
      <trkpt lat="45.85824" lon="6.44327">
        <ele>1934.79</ele>
        <time>2010-01-23T10:57:13Z</time>
      </trkpt>
      <trkpt lat="45.85824" lon="6.44338">
        <ele>1937.19</ele>
        <time>2010-01-23T10:57:26Z</time>
      </trkpt>
      <trkpt lat="45.85823" lon="6.44349">
        <ele>1939.6</ele>
        <time>2010-01-23T10:57:39Z</time>
      </trkpt>
      <trkpt lat="45.85823" lon="6.44357">
        <ele>1942</ele>
        <time>2010-01-23T10:57:48Z</time>
      </trkpt>
      <trkpt lat="45.85822" lon="6.4437">
        <ele>1943.92</ele>
        <time>2010-01-23T10:58:05Z</time>
      </trkpt>
      <trkpt lat="45.85822" lon="6.44379">
        <ele>1946.33</ele>
        <time>2010-01-23T10:58:16Z</time>
      </trkpt>
      <trkpt lat="45.85825" lon="6.44381">
        <ele>1948.25</ele>
        <time>2010-01-23T10:58:26Z</time>
      </trkpt>
      <trkpt lat="45.85828" lon="6.44381">
        <ele>1949.21</ele>
        <time>2010-01-23T10:58:39Z</time>
      </trkpt>
      <trkpt lat="45.85831" lon="6.44381">
        <ele>1950.65</ele>
        <time>2010-01-23T10:58:48Z</time>
      </trkpt>
      <trkpt lat="45.85834" lon="6.44383">
        <ele>1953.06</ele>
        <time>2010-01-23T10:58:58Z</time>
      </trkpt>
      <trkpt lat="45.85841" lon="6.44387">
        <ele>1954.98</ele>
        <time>2010-01-23T10:59:10Z</time>
      </trkpt>
      <trkpt lat="45.85849" lon="6.4439">
        <ele>1957.38</ele>
        <time>2010-01-23T10:59:24Z</time>
      </trkpt>
      <trkpt lat="45.85854" lon="6.44397">
        <ele>1959.78</ele>
        <time>2010-01-23T10:59:36Z</time>
      </trkpt>
      <trkpt lat="45.85855" lon="6.44411">
        <ele>1963.15</ele>
        <time>2010-01-23T10:59:51Z</time>
      </trkpt>
      <trkpt lat="45.85853" lon="6.44419">
        <ele>1964.59</ele>
        <time>2010-01-23T11:00:00Z</time>
      </trkpt>
      <trkpt lat="45.85854" lon="6.44425">
        <ele>1966.51</ele>
        <time>2010-01-23T11:00:07Z</time>
      </trkpt>
      <trkpt lat="45.85856" lon="6.44441">
        <ele>1969.88</ele>
        <time>2010-01-23T11:00:24Z</time>
      </trkpt>
      <trkpt lat="45.85857" lon="6.44453">
        <ele>1971.32</ele>
        <time>2010-01-23T11:00:36Z</time>
      </trkpt>
      <trkpt lat="45.85854" lon="6.44468">
        <ele>1974.2</ele>
        <time>2010-01-23T11:00:52Z</time>
      </trkpt>
      <trkpt lat="45.85853" lon="6.4447">
        <ele>1975.17</ele>
        <time>2010-01-23T11:00:54Z</time>
      </trkpt>
      <trkpt lat="45.85854" lon="6.44477">
        <ele>1976.61</ele>
        <time>2010-01-23T11:01:05Z</time>
      </trkpt>
      <trkpt lat="45.85854" lon="6.44487">
        <ele>1979.97</ele>
        <time>2010-01-23T11:01:17Z</time>
      </trkpt>
      <trkpt lat="45.85857" lon="6.44503">
        <ele>1982.38</ele>
        <time>2010-01-23T11:01:35Z</time>
      </trkpt>
      <trkpt lat="45.85857" lon="6.44504">
        <ele>1982.38</ele>
        <time>2010-01-23T11:01:36Z</time>
      </trkpt>
      <trkpt lat="45.85854" lon="6.44511">
        <ele>1985.26</ele>
        <time>2010-01-23T11:01:47Z</time>
      </trkpt>
      <trkpt lat="45.85855" lon="6.44512">
        <ele>1987.18</ele>
        <time>2010-01-23T11:01:59Z</time>
      </trkpt>
      <trkpt lat="45.85858" lon="6.44515">
        <ele>1990.55</ele>
        <time>2010-01-23T11:02:11Z</time>
      </trkpt>
      <trkpt lat="45.85862" lon="6.44517">
        <ele>1992.95</ele>
        <time>2010-01-23T11:02:23Z</time>
      </trkpt>
      <trkpt lat="45.85867" lon="6.44517">
        <ele>1992.95</ele>
        <time>2010-01-23T11:02:33Z</time>
      </trkpt>
      <trkpt lat="45.85869" lon="6.44524">
        <ele>1996.32</ele>
        <time>2010-01-23T11:02:42Z</time>
      </trkpt>
      <trkpt lat="45.8587" lon="6.44537">
        <ele>1998.24</ele>
        <time>2010-01-23T11:02:54Z</time>
      </trkpt>
      <trkpt lat="45.85874" lon="6.44552">
        <ele>1998.72</ele>
        <time>2010-01-23T11:03:05Z</time>
      </trkpt>
      <trkpt lat="45.85871" lon="6.44566">
        <ele>2001.6</ele>
        <time>2010-01-23T11:03:19Z</time>
      </trkpt>
      <trkpt lat="45.85876" lon="6.44565">
        <ele>2003.52</ele>
        <time>2010-01-23T11:03:30Z</time>
      </trkpt>
      <trkpt lat="45.85878" lon="6.44565">
        <ele>2004.97</ele>
        <time>2010-01-23T11:03:37Z</time>
      </trkpt>
      <trkpt lat="45.85876" lon="6.44576">
        <ele>2006.41</ele>
        <time>2010-01-23T11:03:52Z</time>
      </trkpt>
      <trkpt lat="45.85876" lon="6.44589">
        <ele>2009.77</ele>
        <time>2010-01-23T11:04:05Z</time>
      </trkpt>
      <trkpt lat="45.85876" lon="6.4459">
        <ele>2010.25</ele>
        <time>2010-01-23T11:04:06Z</time>
      </trkpt>
      <trkpt lat="45.85878" lon="6.4459">
        <ele>2012.18</ele>
        <time>2010-01-23T11:04:17Z</time>
      </trkpt>
      <trkpt lat="45.85879" lon="6.4459">
        <ele>2011.7</ele>
        <time>2010-01-23T11:04:19Z</time>
      </trkpt>
      <trkpt lat="45.85881" lon="6.44589">
        <ele>2014.1</ele>
        <time>2010-01-23T11:04:32Z</time>
      </trkpt>
      <trkpt lat="45.85879" lon="6.44598">
        <ele>2016.5</ele>
        <time>2010-01-23T11:04:44Z</time>
      </trkpt>
      <trkpt lat="45.85876" lon="6.44612">
        <ele>2019.87</ele>
        <time>2010-01-23T11:04:58Z</time>
      </trkpt>
      <trkpt lat="45.85878" lon="6.4461">
        <ele>2021.79</ele>
        <time>2010-01-23T11:05:10Z</time>
      </trkpt>
      <trkpt lat="45.85881" lon="6.44609">
        <ele>2023.23</ele>
        <time>2010-01-23T11:05:20Z</time>
      </trkpt>
      <trkpt lat="45.85878" lon="6.44615">
        <ele>2025.64</ele>
        <time>2010-01-23T11:05:34Z</time>
      </trkpt>
      <trkpt lat="45.85873" lon="6.44624">
        <ele>2028.52</ele>
        <time>2010-01-23T11:05:48Z</time>
      </trkpt>
      <trkpt lat="45.85857" lon="6.44635">
        <ele>2031.88</ele>
        <time>2010-01-23T11:06:11Z</time>
      </trkpt>
      <trkpt lat="45.85856" lon="6.44639">
        <ele>2031.4</ele>
        <time>2010-01-23T11:06:38Z</time>
      </trkpt>
      <trkpt lat="45.85858" lon="6.44642">
        <ele>2031.88</ele>
        <time>2010-01-23T11:07:07Z</time>
      </trkpt>
      <trkpt lat="45.85857" lon="6.4464">
        <ele>2033.33</ele>
        <time>2010-01-23T11:09:24Z</time>
      </trkpt>
      <trkpt lat="45.85858" lon="6.44646">
        <ele>2036.69</ele>
        <time>2010-01-23T11:13:39Z</time>
      </trkpt>
      <trkpt lat="45.8586" lon="6.44655">
        <ele>2039.09</ele>
        <time>2010-01-23T11:13:52Z</time>
      </trkpt>
      <trkpt lat="45.85862" lon="6.44664">
        <ele>2040.05</ele>
        <time>2010-01-23T11:14:07Z</time>
      </trkpt>
      <trkpt lat="45.85862" lon="6.4468">
        <ele>2043.9</ele>
        <time>2010-01-23T11:14:25Z</time>
      </trkpt>
      <trkpt lat="45.8586" lon="6.44686">
        <ele>2046.3</ele>
        <time>2010-01-23T11:14:38Z</time>
      </trkpt>
      <trkpt lat="45.85861" lon="6.44687">
        <ele>2048.23</ele>
        <time>2010-01-23T11:14:53Z</time>
      </trkpt>
      <trkpt lat="45.85865" lon="6.44692">
        <ele>2050.63</ele>
        <time>2010-01-23T11:15:06Z</time>
      </trkpt>
      <trkpt lat="45.85871" lon="6.44698">
        <ele>2053.03</ele>
        <time>2010-01-23T11:15:20Z</time>
      </trkpt>
      <trkpt lat="45.85873" lon="6.4471">
        <ele>2055.44</ele>
        <time>2010-01-23T11:15:33Z</time>
      </trkpt>
      <trkpt lat="45.85874" lon="6.44725">
        <ele>2058.32</ele>
        <time>2010-01-23T11:15:48Z</time>
      </trkpt>
      <trkpt lat="45.85871" lon="6.44735">
        <ele>2059.76</ele>
        <time>2010-01-23T11:16:03Z</time>
      </trkpt>
      <trkpt lat="45.85871" lon="6.44738">
        <ele>2061.2</ele>
        <time>2010-01-23T11:16:06Z</time>
      </trkpt>
      <trkpt lat="45.85868" lon="6.44742">
        <ele>2064.57</ele>
        <time>2010-01-23T11:16:19Z</time>
      </trkpt>
      <trkpt lat="45.85872" lon="6.44746">
        <ele>2066.49</ele>
        <time>2010-01-23T11:16:32Z</time>
      </trkpt>
      <trkpt lat="45.85874" lon="6.44746">
        <ele>2066.97</ele>
        <time>2010-01-23T11:16:36Z</time>
      </trkpt>
      <trkpt lat="45.85877" lon="6.44748">
        <ele>2069.38</ele>
        <time>2010-01-23T11:16:47Z</time>
      </trkpt>
      <trkpt lat="45.85877" lon="6.44758">
        <ele>2070.34</ele>
        <time>2010-01-23T11:17:00Z</time>
      </trkpt>
      <trkpt lat="45.85879" lon="6.44772">
        <ele>2073.7</ele>
        <time>2010-01-23T11:17:15Z</time>
      </trkpt>
      <trkpt lat="45.85878" lon="6.44773">
        <ele>2074.18</ele>
        <time>2010-01-23T11:17:16Z</time>
      </trkpt>
      <trkpt lat="45.85875" lon="6.44774">
        <ele>2075.62</ele>
        <time>2010-01-23T11:17:29Z</time>
      </trkpt>
      <trkpt lat="45.8588" lon="6.44775">
        <ele>2078.51</ele>
        <time>2010-01-23T11:17:44Z</time>
      </trkpt>
      <trkpt lat="45.85881" lon="6.44779">
        <ele>2079.95</ele>
        <time>2010-01-23T11:17:51Z</time>
      </trkpt>
      <trkpt lat="45.85879" lon="6.44789">
        <ele>2082.35</ele>
        <time>2010-01-23T11:18:03Z</time>
      </trkpt>
      <trkpt lat="45.85876" lon="6.44806">
        <ele>2085.72</ele>
        <time>2010-01-23T11:18:22Z</time>
      </trkpt>
      <trkpt lat="45.85873" lon="6.44818">
        <ele>2088.12</ele>
        <time>2010-01-23T11:18:37Z</time>
      </trkpt>
      <trkpt lat="45.85872" lon="6.44833">
        <ele>2091.49</ele>
        <time>2010-01-23T11:18:53Z</time>
      </trkpt>
      <trkpt lat="45.85873" lon="6.44835">
        <ele>2092.45</ele>
        <time>2010-01-23T11:18:58Z</time>
      </trkpt>
      <trkpt lat="45.85876" lon="6.44833">
        <ele>2094.37</ele>
        <time>2010-01-23T11:19:13Z</time>
      </trkpt>
      <trkpt lat="45.85877" lon="6.44833">
        <ele>2098.7</ele>
        <time>2010-01-23T11:19:14Z</time>
      </trkpt>
      <trkpt lat="45.85877" lon="6.44833">
        <ele>2092.45</ele>
        <time>2010-01-23T11:19:15Z</time>
      </trkpt>
      <trkpt lat="45.85877" lon="6.44833">
        <ele>2095.81</ele>
        <time>2010-01-23T11:19:16Z</time>
      </trkpt>
      <trkpt lat="45.85878" lon="6.44834">
        <ele>2097.25</ele>
        <time>2010-01-23T11:19:18Z</time>
      </trkpt>
      <trkpt lat="45.85882" lon="6.44834">
        <ele>2097.25</ele>
        <time>2010-01-23T11:19:29Z</time>
      </trkpt>
      <trkpt lat="45.85883" lon="6.44834">
        <ele>2097.73</ele>
        <time>2010-01-23T11:19:31Z</time>
      </trkpt>
      <trkpt lat="45.85887" lon="6.44842">
        <ele>2100.62</ele>
        <time>2010-01-23T11:19:46Z</time>
      </trkpt>
      <trkpt lat="45.85889" lon="6.44854">
        <ele>2103.5</ele>
        <time>2010-01-23T11:19:59Z</time>
      </trkpt>
      <trkpt lat="45.8589" lon="6.44873">
        <ele>2105.42</ele>
        <time>2010-01-23T11:20:14Z</time>
      </trkpt>
      <trkpt lat="45.85885" lon="6.44882">
        <ele>2108.79</ele>
        <time>2010-01-23T11:20:28Z</time>
      </trkpt>
      <trkpt lat="45.85886" lon="6.44882">
        <ele>2110.71</ele>
        <time>2010-01-23T11:20:39Z</time>
      </trkpt>
      <trkpt lat="45.85891" lon="6.44885">
        <ele>2114.08</ele>
        <time>2010-01-23T11:20:52Z</time>
      </trkpt>
      <trkpt lat="45.85892" lon="6.44898">
        <ele>2116</ele>
        <time>2010-01-23T11:21:07Z</time>
      </trkpt>
      <trkpt lat="45.85891" lon="6.44908">
        <ele>2119.36</ele>
        <time>2010-01-23T11:21:19Z</time>
      </trkpt>
      <trkpt lat="45.85884" lon="6.44918">
        <ele>2122.25</ele>
        <time>2010-01-23T11:21:35Z</time>
      </trkpt>
      <trkpt lat="45.85879" lon="6.44921">
        <ele>2125.13</ele>
        <time>2010-01-23T11:21:53Z</time>
      </trkpt>
      <trkpt lat="45.85882" lon="6.44922">
        <ele>2127.53</ele>
        <time>2010-01-23T11:22:03Z</time>
      </trkpt>
      <trkpt lat="45.85888" lon="6.44926">
        <ele>2128.98</ele>
        <time>2010-01-23T11:22:15Z</time>
      </trkpt>
      <trkpt lat="45.85893" lon="6.44928">
        <ele>2131.38</ele>
        <time>2010-01-23T11:22:26Z</time>
      </trkpt>
      <trkpt lat="45.85896" lon="6.44933">
        <ele>2133.3</ele>
        <time>2010-01-23T11:22:35Z</time>
      </trkpt>
      <trkpt lat="45.85891" lon="6.44945">
        <ele>2136.67</ele>
        <time>2010-01-23T11:22:51Z</time>
      </trkpt>
      <trkpt lat="45.85893" lon="6.44964">
        <ele>2139.07</ele>
        <time>2010-01-23T11:23:07Z</time>
      </trkpt>
      <trkpt lat="45.85888" lon="6.4497">
        <ele>2142.44</ele>
        <time>2010-01-23T11:23:22Z</time>
      </trkpt>
      <trkpt lat="45.85893" lon="6.44973">
        <ele>2144.36</ele>
        <time>2010-01-23T11:23:37Z</time>
      </trkpt>
      <trkpt lat="45.85896" lon="6.44973">
        <ele>2146.28</ele>
        <time>2010-01-23T11:23:48Z</time>
      </trkpt>
      <trkpt lat="45.85898" lon="6.44975">
        <ele>2148.2</ele>
        <time>2010-01-23T11:23:58Z</time>
      </trkpt>
      <trkpt lat="45.85894" lon="6.44984">
        <ele>2152.05</ele>
        <time>2010-01-23T11:24:13Z</time>
      </trkpt>
      <trkpt lat="45.85894" lon="6.44999">
        <ele>2153.49</ele>
        <time>2010-01-23T11:24:29Z</time>
      </trkpt>
      <trkpt lat="45.85899" lon="6.44997">
        <ele>2155.89</ele>
        <time>2010-01-23T11:24:41Z</time>
      </trkpt>
      <trkpt lat="45.85905" lon="6.44998">
        <ele>2157.82</ele>
        <time>2010-01-23T11:24:52Z</time>
      </trkpt>
      <trkpt lat="45.8591" lon="6.44997">
        <ele>2159.74</ele>
        <time>2010-01-23T11:25:03Z</time>
      </trkpt>
      <trkpt lat="45.8591" lon="6.45">
        <ele>2160.7</ele>
        <time>2010-01-23T11:25:12Z</time>
      </trkpt>
      <trkpt lat="45.85908" lon="6.45013">
        <ele>2163.1</ele>
        <time>2010-01-23T11:25:28Z</time>
      </trkpt>
      <trkpt lat="45.85911" lon="6.45011">
        <ele>2165.51</ele>
        <time>2010-01-23T11:25:38Z</time>
      </trkpt>
      <trkpt lat="45.85916" lon="6.4501">
        <ele>2166.95</ele>
        <time>2010-01-23T11:25:50Z</time>
      </trkpt>
      <trkpt lat="45.85919" lon="6.4501">
        <ele>2168.39</ele>
        <time>2010-01-23T11:25:55Z</time>
      </trkpt>
      <trkpt lat="45.85921" lon="6.4502">
        <ele>2170.79</ele>
        <time>2010-01-23T11:26:07Z</time>
      </trkpt>
      <trkpt lat="45.8592" lon="6.45025">
        <ele>2172.24</ele>
        <time>2010-01-23T11:26:22Z</time>
      </trkpt>
      <trkpt lat="45.85924" lon="6.45021">
        <ele>2174.16</ele>
        <time>2010-01-23T11:26:33Z</time>
      </trkpt>
      <trkpt lat="45.85927" lon="6.45018">
        <ele>2176.08</ele>
        <time>2010-01-23T11:26:44Z</time>
      </trkpt>
      <trkpt lat="45.85924" lon="6.45033">
        <ele>2178.48</ele>
        <time>2010-01-23T11:26:58Z</time>
      </trkpt>
      <trkpt lat="45.85921" lon="6.45042">
        <ele>2180.41</ele>
        <time>2010-01-23T11:27:07Z</time>
      </trkpt>
      <trkpt lat="45.85917" lon="6.45048">
        <ele>2181.37</ele>
        <time>2010-01-23T11:27:20Z</time>
      </trkpt>
      <trkpt lat="45.85919" lon="6.45048">
        <ele>2184.25</ele>
        <time>2010-01-23T11:27:32Z</time>
      </trkpt>
      <trkpt lat="45.85923" lon="6.45047">
        <ele>2185.21</ele>
        <time>2010-01-23T11:27:39Z</time>
      </trkpt>
      <trkpt lat="45.8593" lon="6.45047">
        <ele>2187.62</ele>
        <time>2010-01-23T11:27:50Z</time>
      </trkpt>
      <trkpt lat="45.85934" lon="6.45055">
        <ele>2190.02</ele>
        <time>2010-01-23T11:28:03Z</time>
      </trkpt>
      <trkpt lat="45.85935" lon="6.4506">
        <ele>2191.46</ele>
        <time>2010-01-23T11:28:08Z</time>
      </trkpt>
      <trkpt lat="45.85937" lon="6.45075">
        <ele>2194.83</ele>
        <time>2010-01-23T11:28:22Z</time>
      </trkpt>
      <trkpt lat="45.85933" lon="6.45082">
        <ele>2195.31</ele>
        <time>2010-01-23T11:28:29Z</time>
      </trkpt>
      <trkpt lat="45.85927" lon="6.45088">
        <ele>2197.23</ele>
        <time>2010-01-23T11:28:44Z</time>
      </trkpt>
      <trkpt lat="45.85927" lon="6.45087">
        <ele>2197.71</ele>
        <time>2010-01-23T11:28:45Z</time>
      </trkpt>
      <trkpt lat="45.85931" lon="6.45083">
        <ele>2200.11</ele>
        <time>2010-01-23T11:28:58Z</time>
      </trkpt>
      <trkpt lat="45.85937" lon="6.45081">
        <ele>2203</ele>
        <time>2010-01-23T11:29:10Z</time>
      </trkpt>
      <trkpt lat="45.85942" lon="6.45078">
        <ele>2204.92</ele>
        <time>2010-01-23T11:29:22Z</time>
      </trkpt>
      <trkpt lat="45.85945" lon="6.45081">
        <ele>2207.81</ele>
        <time>2010-01-23T11:29:33Z</time>
      </trkpt>
      <trkpt lat="45.85947" lon="6.45099">
        <ele>2210.69</ele>
        <time>2010-01-23T11:29:50Z</time>
      </trkpt>
      <trkpt lat="45.85943" lon="6.45109">
        <ele>2214.05</ele>
        <time>2010-01-23T11:30:04Z</time>
      </trkpt>
      <trkpt lat="45.85935" lon="6.4512">
        <ele>2216.94</ele>
        <time>2010-01-23T11:30:20Z</time>
      </trkpt>
      <trkpt lat="45.85926" lon="6.45132">
        <ele>2219.82</ele>
        <time>2010-01-23T11:30:38Z</time>
      </trkpt>
      <trkpt lat="45.85922" lon="6.4513">
        <ele>2221.26</ele>
        <time>2010-01-23T11:30:50Z</time>
      </trkpt>
      <trkpt lat="45.85927" lon="6.4513">
        <ele>2223.19</ele>
        <time>2010-01-23T11:30:59Z</time>
      </trkpt>
      <trkpt lat="45.85934" lon="6.45128">
        <ele>2224.63</ele>
        <time>2010-01-23T11:31:10Z</time>
      </trkpt>
      <trkpt lat="45.85934" lon="6.45128">
        <ele>2225.11</ele>
        <time>2010-01-23T11:31:11Z</time>
      </trkpt>
      <trkpt lat="45.85943" lon="6.45127">
        <ele>2227.51</ele>
        <time>2010-01-23T11:31:23Z</time>
      </trkpt>
      <trkpt lat="45.85944" lon="6.45128">
        <ele>2227.51</ele>
        <time>2010-01-23T11:31:24Z</time>
      </trkpt>
      <trkpt lat="45.85945" lon="6.45135">
        <ele>2228.95</ele>
        <time>2010-01-23T11:31:34Z</time>
      </trkpt>
      <trkpt lat="45.85944" lon="6.45137">
        <ele>2229.43</ele>
        <time>2010-01-23T11:31:37Z</time>
      </trkpt>
      <trkpt lat="45.85936" lon="6.45149">
        <ele>2231.36</ele>
        <time>2010-01-23T11:31:51Z</time>
      </trkpt>
      <trkpt lat="45.85935" lon="6.45149">
        <ele>2231.84</ele>
        <time>2010-01-23T11:32:01Z</time>
      </trkpt>
      <trkpt lat="45.85941" lon="6.45144">
        <ele>2234.24</ele>
        <time>2010-01-23T11:32:12Z</time>
      </trkpt>
      <trkpt lat="45.85947" lon="6.45143">
        <ele>2235.2</ele>
        <time>2010-01-23T11:32:22Z</time>
      </trkpt>
      <trkpt lat="45.85942" lon="6.45157">
        <ele>2238.57</ele>
        <time>2010-01-23T11:32:36Z</time>
      </trkpt>
      <trkpt lat="45.85937" lon="6.45167">
        <ele>2241.45</ele>
        <time>2010-01-23T11:32:50Z</time>
      </trkpt>
      <trkpt lat="45.85939" lon="6.45163">
        <ele>2242.41</ele>
        <time>2010-01-23T11:33:02Z</time>
      </trkpt>
      <trkpt lat="45.85946" lon="6.45161">
        <ele>2245.3</ele>
        <time>2010-01-23T11:33:12Z</time>
      </trkpt>
      <trkpt lat="45.85946" lon="6.45161">
        <ele>2244.82</ele>
        <time>2010-01-23T11:33:13Z</time>
      </trkpt>
      <trkpt lat="45.85943" lon="6.4517">
        <ele>2246.74</ele>
        <time>2010-01-23T11:33:25Z</time>
      </trkpt>
      <trkpt lat="45.85941" lon="6.45174">
        <ele>2247.7</ele>
        <time>2010-01-23T11:33:36Z</time>
      </trkpt>
      <trkpt lat="45.85946" lon="6.45172">
        <ele>2249.14</ele>
        <time>2010-01-23T11:33:45Z</time>
      </trkpt>
      <trkpt lat="45.85949" lon="6.45172">
        <ele>2251.54</ele>
        <time>2010-01-23T11:33:54Z</time>
      </trkpt>
      <trkpt lat="45.85945" lon="6.45185">
        <ele>2253.95</ele>
        <time>2010-01-23T11:34:09Z</time>
      </trkpt>
      <trkpt lat="45.85944" lon="6.45186">
        <ele>2253.47</ele>
        <time>2010-01-23T11:34:16Z</time>
      </trkpt>
      <trkpt lat="45.85948" lon="6.45184">
        <ele>2255.87</ele>
        <time>2010-01-23T11:34:25Z</time>
      </trkpt>
      <trkpt lat="45.8595" lon="6.45186">
        <ele>2257.31</ele>
        <time>2010-01-23T11:34:30Z</time>
      </trkpt>
      <trkpt lat="45.85947" lon="6.45191">
        <ele>2259.24</ele>
        <time>2010-01-23T11:34:48Z</time>
      </trkpt>
      <trkpt lat="45.8595" lon="6.45194">
        <ele>2261.16</ele>
        <time>2010-01-23T11:35:00Z</time>
      </trkpt>
      <trkpt lat="45.85953" lon="6.45194">
        <ele>2260.2</ele>
        <time>2010-01-23T11:35:24Z</time>
      </trkpt>
      <trkpt lat="45.85952" lon="6.45193">
        <ele>2260.68</ele>
        <time>2010-01-23T11:35:51Z</time>
      </trkpt>
      <trkpt lat="45.85952" lon="6.45195">
        <ele>2255.87</ele>
        <time>2010-01-23T11:36:13Z</time>
      </trkpt>
      <trkpt lat="45.85952" lon="6.45195">
        <ele>2261.64</ele>
        <time>2010-01-23T11:36:14Z</time>
      </trkpt>
      <trkpt lat="45.85953" lon="6.45195">
        <ele>2259.24</ele>
        <time>2010-01-23T11:38:20Z</time>
      </trkpt>
      <trkpt lat="45.85954" lon="6.45194">
        <ele>2260.2</ele>
        <time>2010-01-23T11:38:39Z</time>
      </trkpt>
      <trkpt lat="45.85953" lon="6.45193">
        <ele>2259.24</ele>
        <time>2010-01-23T11:39:09Z</time>
      </trkpt>
      <trkpt lat="45.85953" lon="6.45193">
        <ele>2265.96</ele>
        <time>2010-01-23T11:39:30Z</time>
      </trkpt>
      <trkpt lat="45.85953" lon="6.45193">
        <ele>2264.52</ele>
        <time>2010-01-23T11:39:31Z</time>
      </trkpt>
      <trkpt lat="45.85953" lon="6.45193">
        <ele>2260.2</ele>
        <time>2010-01-23T11:39:32Z</time>
      </trkpt>
      <trkpt lat="45.85953" lon="6.45196">
        <ele>2259.24</ele>
        <time>2010-01-23T11:40:09Z</time>
      </trkpt>
      <trkpt lat="45.85953" lon="6.45196">
        <ele>2259.24</ele>
        <time>2010-01-23T11:40:37Z</time>
      </trkpt>
      <trkpt lat="45.85953" lon="6.45196">
        <ele>2259.24</ele>
        <time>2010-01-23T11:41:18Z</time>
      </trkpt>
      <trkpt lat="45.85953" lon="6.45196">
        <ele>2258.75</ele>
        <time>2010-01-23T11:42:20Z</time>
      </trkpt>
      <trkpt lat="45.85953" lon="6.45196">
        <ele>2258.27</ele>
        <time>2010-01-23T11:42:42Z</time>
      </trkpt>
      <trkpt lat="45.85953" lon="6.45197">
        <ele>2259.24</ele>
        <time>2010-01-23T11:44:11Z</time>
      </trkpt>
      <trkpt lat="45.85954" lon="6.45199">
        <ele>2261.64</ele>
        <time>2010-01-23T11:45:00Z</time>
      </trkpt>
      <trkpt lat="45.85955" lon="6.45201">
        <ele>2260.68</ele>
        <time>2010-01-23T11:45:42Z</time>
      </trkpt>
      <trkpt lat="45.85955" lon="6.45202">
        <ele>2259.72</ele>
        <time>2010-01-23T11:46:47Z</time>
      </trkpt>
      <trkpt lat="45.85955" lon="6.45202">
        <ele>2261.16</ele>
        <time>2010-01-23T11:47:04Z</time>
      </trkpt>
      <trkpt lat="45.85955" lon="6.45204">
        <ele>2259.24</ele>
        <time>2010-01-23T11:47:07Z</time>
      </trkpt>
      <trkpt lat="45.85956" lon="6.45207">
        <ele>2257.31</ele>
        <time>2010-01-23T11:47:08Z</time>
      </trkpt>
      <trkpt lat="45.85962" lon="6.45213">
        <ele>2248.66</ele>
        <time>2010-01-23T11:47:13Z</time>
      </trkpt>
      <trkpt lat="45.85972" lon="6.45193">
        <ele>2247.7</ele>
        <time>2010-01-23T11:47:22Z</time>
      </trkpt>
      <trkpt lat="45.85972" lon="6.45195">
        <ele>2245.78</ele>
        <time>2010-01-23T11:47:24Z</time>
      </trkpt>
      <trkpt lat="45.85972" lon="6.45201">
        <ele>2240.97</ele>
        <time>2010-01-23T11:47:26Z</time>
      </trkpt>
      <trkpt lat="45.85973" lon="6.45204">
        <ele>2241.93</ele>
        <time>2010-01-23T11:47:27Z</time>
      </trkpt>
      <trkpt lat="45.85978" lon="6.45207">
        <ele>2238.09</ele>
        <time>2010-01-23T11:47:30Z</time>
      </trkpt>
      <trkpt lat="45.85985" lon="6.45209">
        <ele>2231.36</ele>
        <time>2010-01-23T11:47:33Z</time>
      </trkpt>
      <trkpt lat="45.85986" lon="6.45212">
        <ele>2234.24</ele>
        <time>2010-01-23T11:47:34Z</time>
      </trkpt>
      <trkpt lat="45.85987" lon="6.45213">
        <ele>2230.4</ele>
        <time>2010-01-23T11:47:36Z</time>
      </trkpt>
      <trkpt lat="45.85991" lon="6.45212">
        <ele>2227.03</ele>
        <time>2010-01-23T11:47:38Z</time>
      </trkpt>
      <trkpt lat="45.85993" lon="6.45213">
        <ele>2226.55</ele>
        <time>2010-01-23T11:47:40Z</time>
      </trkpt>
      <trkpt lat="45.85996" lon="6.45215">
        <ele>2221.26</ele>
        <time>2010-01-23T11:47:43Z</time>
      </trkpt>
      <trkpt lat="45.85997" lon="6.45216">
        <ele>2222.71</ele>
        <time>2010-01-23T11:47:44Z</time>
      </trkpt>
      <trkpt lat="45.85998" lon="6.45217">
        <ele>2217.9</ele>
        <time>2010-01-23T11:47:45Z</time>
      </trkpt>
      <trkpt lat="45.85998" lon="6.45218">
        <ele>2218.86</ele>
        <time>2010-01-23T11:47:46Z</time>
      </trkpt>
      <trkpt lat="45.86001" lon="6.45219">
        <ele>2216.94</ele>
        <time>2010-01-23T11:47:48Z</time>
      </trkpt>
      <trkpt lat="45.86006" lon="6.45224">
        <ele>2211.17</ele>
        <time>2010-01-23T11:47:51Z</time>
      </trkpt>
      <trkpt lat="45.86011" lon="6.45221">
        <ele>2210.21</ele>
        <time>2010-01-23T11:47:57Z</time>
      </trkpt>
      <trkpt lat="45.86007" lon="6.45223">
        <ele>2203.96</ele>
        <time>2010-01-23T11:48:06Z</time>
      </trkpt>
      <trkpt lat="45.86007" lon="6.45223">
        <ele>2209.25</ele>
        <time>2010-01-23T11:48:07Z</time>
      </trkpt>
      <trkpt lat="45.86006" lon="6.45224">
        <ele>2208.77</ele>
        <time>2010-01-23T11:48:17Z</time>
      </trkpt>
      <trkpt lat="45.86006" lon="6.45224">
        <ele>2211.65</ele>
        <time>2010-01-23T11:48:18Z</time>
      </trkpt>
      <trkpt lat="45.86006" lon="6.45224">
        <ele>2209.73</ele>
        <time>2010-01-23T11:48:19Z</time>
      </trkpt>
      <trkpt lat="45.86005" lon="6.45225">
        <ele>2209.25</ele>
        <time>2010-01-23T11:48:28Z</time>
      </trkpt>
      <trkpt lat="45.86011" lon="6.45201">
        <ele>2209.25</ele>
        <time>2010-01-23T11:49:01Z</time>
      </trkpt>
      <trkpt lat="45.86011" lon="6.45203">
        <ele>2209.73</ele>
        <time>2010-01-23T11:49:34Z</time>
      </trkpt>
      <trkpt lat="45.86012" lon="6.45203">
        <ele>2209.73</ele>
        <time>2010-01-23T11:49:46Z</time>
      </trkpt>
      <trkpt lat="45.86009" lon="6.45206">
        <ele>2209.25</ele>
        <time>2010-01-23T11:49:52Z</time>
      </trkpt>
      <trkpt lat="45.86009" lon="6.45208">
        <ele>2206.84</ele>
        <time>2010-01-23T11:49:54Z</time>
      </trkpt>
      <trkpt lat="45.86012" lon="6.45213">
        <ele>2204.44</ele>
        <time>2010-01-23T11:49:56Z</time>
      </trkpt>
      <trkpt lat="45.86023" lon="6.45244">
        <ele>2201.08</ele>
        <time>2010-01-23T11:50:02Z</time>
      </trkpt>
      <trkpt lat="45.86023" lon="6.4525">
        <ele>2200.11</ele>
        <time>2010-01-23T11:50:07Z</time>
      </trkpt>
      <trkpt lat="45.86024" lon="6.45248">
        <ele>2197.71</ele>
        <time>2010-01-23T11:50:09Z</time>
      </trkpt>
      <trkpt lat="45.86024" lon="6.45244">
        <ele>2194.83</ele>
        <time>2010-01-23T11:50:11Z</time>
      </trkpt>
      <trkpt lat="45.86025" lon="6.45243">
        <ele>2195.31</ele>
        <time>2010-01-23T11:50:12Z</time>
      </trkpt>
      <trkpt lat="45.86026" lon="6.45244">
        <ele>2194.35</ele>
        <time>2010-01-23T11:50:13Z</time>
      </trkpt>
      <trkpt lat="45.86036" lon="6.45229">
        <ele>2187.14</ele>
        <time>2010-01-23T11:50:19Z</time>
      </trkpt>
      <trkpt lat="45.86042" lon="6.4523">
        <ele>2184.73</ele>
        <time>2010-01-23T11:50:23Z</time>
      </trkpt>
      <trkpt lat="45.86042" lon="6.45234">
        <ele>2186.18</ele>
        <time>2010-01-23T11:50:26Z</time>
      </trkpt>
      <trkpt lat="45.86041" lon="6.45234">
        <ele>2185.21</ele>
        <time>2010-01-23T11:50:31Z</time>
      </trkpt>
      <trkpt lat="45.86041" lon="6.45233">
        <ele>2184.25</ele>
        <time>2010-01-23T11:50:35Z</time>
      </trkpt>
      <trkpt lat="45.86044" lon="6.45248">
        <ele>2182.81</ele>
        <time>2010-01-23T11:50:39Z</time>
      </trkpt>
      <trkpt lat="45.86047" lon="6.45252">
        <ele>2178</ele>
        <time>2010-01-23T11:50:47Z</time>
      </trkpt>
      <trkpt lat="45.86047" lon="6.4525">
        <ele>2178</ele>
        <time>2010-01-23T11:51:07Z</time>
      </trkpt>
      <trkpt lat="45.86048" lon="6.45248">
        <ele>2177.52</ele>
        <time>2010-01-23T11:51:09Z</time>
      </trkpt>
      <trkpt lat="45.86062" lon="6.45226">
        <ele>2173.2</ele>
        <time>2010-01-23T11:51:12Z</time>
      </trkpt>
      <trkpt lat="45.86072" lon="6.45216">
        <ele>2171.76</ele>
        <time>2010-01-23T11:51:15Z</time>
      </trkpt>
      <trkpt lat="45.86074" lon="6.45211">
        <ele>2169.83</ele>
        <time>2010-01-23T11:51:21Z</time>
      </trkpt>
      <trkpt lat="45.86078" lon="6.45215">
        <ele>2162.62</ele>
        <time>2010-01-23T11:51:25Z</time>
      </trkpt>
      <trkpt lat="45.86085" lon="6.45216">
        <ele>2159.26</ele>
        <time>2010-01-23T11:51:28Z</time>
      </trkpt>
      <trkpt lat="45.8609" lon="6.45217">
        <ele>2154.93</ele>
        <time>2010-01-23T11:51:30Z</time>
      </trkpt>
      <trkpt lat="45.86093" lon="6.45217">
        <ele>2154.93</ele>
        <time>2010-01-23T11:51:31Z</time>
      </trkpt>
      <trkpt lat="45.86102" lon="6.45215">
        <ele>2149.16</ele>
        <time>2010-01-23T11:51:34Z</time>
      </trkpt>
      <trkpt lat="45.86105" lon="6.45215">
        <ele>2143.4</ele>
        <time>2010-01-23T11:51:35Z</time>
      </trkpt>
      <trkpt lat="45.86109" lon="6.45215">
        <ele>2143.4</ele>
        <time>2010-01-23T11:51:36Z</time>
      </trkpt>
      <trkpt lat="45.86116" lon="6.45213">
        <ele>2139.55</ele>
        <time>2010-01-23T11:51:38Z</time>
      </trkpt>
      <trkpt lat="45.86124" lon="6.45208">
        <ele>2136.19</ele>
        <time>2010-01-23T11:51:40Z</time>
      </trkpt>
      <trkpt lat="45.86137" lon="6.45207">
        <ele>2128.5</ele>
        <time>2010-01-23T11:51:44Z</time>
      </trkpt>
      <trkpt lat="45.86141" lon="6.45206">
        <ele>2126.57</ele>
        <time>2010-01-23T11:51:45Z</time>
      </trkpt>
      <trkpt lat="45.86148" lon="6.4521">
        <ele>2123.21</ele>
        <time>2010-01-23T11:51:49Z</time>
      </trkpt>
      <trkpt lat="45.86141" lon="6.45221">
        <ele>2122.73</ele>
        <time>2010-01-23T11:52:15Z</time>
      </trkpt>
      <trkpt lat="45.86141" lon="6.45223">
        <ele>2120.81</ele>
        <time>2010-01-23T11:52:17Z</time>
      </trkpt>
      <trkpt lat="45.86141" lon="6.45225">
        <ele>2121.29</ele>
        <time>2010-01-23T11:52:18Z</time>
      </trkpt>
      <trkpt lat="45.86142" lon="6.45227">
        <ele>2116</ele>
        <time>2010-01-23T11:52:19Z</time>
      </trkpt>
      <trkpt lat="45.86146" lon="6.45234">
        <ele>2115.04</ele>
        <time>2010-01-23T11:52:21Z</time>
      </trkpt>
      <trkpt lat="45.86149" lon="6.45237">
        <ele>2111.67</ele>
        <time>2010-01-23T11:52:22Z</time>
      </trkpt>
      <trkpt lat="45.86155" lon="6.45234">
        <ele>2108.79</ele>
        <time>2010-01-23T11:52:28Z</time>
      </trkpt>
      <trkpt lat="45.86155" lon="6.45234">
        <ele>2113.12</ele>
        <time>2010-01-23T11:52:31Z</time>
      </trkpt>
      <trkpt lat="45.86157" lon="6.45231">
        <ele>2109.27</ele>
        <time>2010-01-23T11:52:34Z</time>
      </trkpt>
      <trkpt lat="45.8616" lon="6.45232">
        <ele>2106.39</ele>
        <time>2010-01-23T11:52:36Z</time>
      </trkpt>
      <trkpt lat="45.86162" lon="6.45231">
        <ele>2104.94</ele>
        <time>2010-01-23T11:52:37Z</time>
      </trkpt>
      <trkpt lat="45.86164" lon="6.4523">
        <ele>2101.1</ele>
        <time>2010-01-23T11:52:39Z</time>
      </trkpt>
      <trkpt lat="45.86165" lon="6.45229">
        <ele>2101.58</ele>
        <time>2010-01-23T11:52:40Z</time>
      </trkpt>
      <trkpt lat="45.86167" lon="6.45228">
        <ele>2098.21</ele>
        <time>2010-01-23T11:52:41Z</time>
      </trkpt>
      <trkpt lat="45.86171" lon="6.45225">
        <ele>2094.85</ele>
        <time>2010-01-23T11:52:43Z</time>
      </trkpt>
      <trkpt lat="45.86173" lon="6.45224">
        <ele>2090.04</ele>
        <time>2010-01-23T11:52:44Z</time>
      </trkpt>
      <trkpt lat="45.8618" lon="6.45222">
        <ele>2082.83</ele>
        <time>2010-01-23T11:52:46Z</time>
      </trkpt>
      <trkpt lat="45.86184" lon="6.45221">
        <ele>2083.31</ele>
        <time>2010-01-23T11:52:47Z</time>
      </trkpt>
      <trkpt lat="45.86198" lon="6.45215">
        <ele>2075.14</ele>
        <time>2010-01-23T11:52:49Z</time>
      </trkpt>
      <trkpt lat="45.86206" lon="6.45211">
        <ele>2073.22</ele>
        <time>2010-01-23T11:52:50Z</time>
      </trkpt>
      <trkpt lat="45.86222" lon="6.45203">
        <ele>2062.65</ele>
        <time>2010-01-23T11:52:53Z</time>
      </trkpt>
      <trkpt lat="45.86226" lon="6.45205">
        <ele>2058.8</ele>
        <time>2010-01-23T11:52:55Z</time>
      </trkpt>
      <trkpt lat="45.86225" lon="6.45207">
        <ele>2062.17</ele>
        <time>2010-01-23T11:52:56Z</time>
      </trkpt>
      <trkpt lat="45.86224" lon="6.4521">
        <ele>2057.36</ele>
        <time>2010-01-23T11:52:59Z</time>
      </trkpt>
      <trkpt lat="45.86223" lon="6.45209">
        <ele>2060.72</ele>
        <time>2010-01-23T11:53:01Z</time>
      </trkpt>
      <trkpt lat="45.86223" lon="6.45209">
        <ele>2061.2</ele>
        <time>2010-01-23T11:53:46Z</time>
      </trkpt>
      <trkpt lat="45.86223" lon="6.45209">
        <ele>2058.32</ele>
        <time>2010-01-23T11:54:21Z</time>
      </trkpt>
      <trkpt lat="45.86223" lon="6.45209">
        <ele>2062.65</ele>
        <time>2010-01-23T11:54:22Z</time>
      </trkpt>
      <trkpt lat="45.86222" lon="6.45209">
        <ele>2066.01</ele>
        <time>2010-01-23T11:55:43Z</time>
      </trkpt>
      <trkpt lat="45.86223" lon="6.45209">
        <ele>2063.13</ele>
        <time>2010-01-23T11:55:54Z</time>
      </trkpt>
      <trkpt lat="45.86231" lon="6.45206">
        <ele>2053.99</ele>
        <time>2010-01-23T11:55:57Z</time>
      </trkpt>
      <trkpt lat="45.86237" lon="6.45203">
        <ele>2050.63</ele>
        <time>2010-01-23T11:55:58Z</time>
      </trkpt>
      <trkpt lat="45.86269" lon="6.45199">
        <ele>2038.61</ele>
        <time>2010-01-23T11:56:02Z</time>
      </trkpt>
      <trkpt lat="45.86282" lon="6.45204">
        <ele>2035.73</ele>
        <time>2010-01-23T11:56:04Z</time>
      </trkpt>
      <trkpt lat="45.86288" lon="6.45209">
        <ele>2033.81</ele>
        <time>2010-01-23T11:56:05Z</time>
      </trkpt>
      <trkpt lat="45.86318" lon="6.45204">
        <ele>2028.04</ele>
        <time>2010-01-23T11:56:13Z</time>
      </trkpt>
      <trkpt lat="45.86328" lon="6.45201">
        <ele>2026.6</ele>
        <time>2010-01-23T11:56:24Z</time>
      </trkpt>
      <trkpt lat="45.86328" lon="6.45199">
        <ele>2026.6</ele>
        <time>2010-01-23T11:56:58Z</time>
      </trkpt>
      <trkpt lat="45.86333" lon="6.45201">
        <ele>2025.64</ele>
        <time>2010-01-23T11:57:07Z</time>
      </trkpt>
      <trkpt lat="45.86338" lon="6.45204">
        <ele>2024.19</ele>
        <time>2010-01-23T11:57:11Z</time>
      </trkpt>
      <trkpt lat="45.86343" lon="6.45211">
        <ele>2022.75</ele>
        <time>2010-01-23T11:57:15Z</time>
      </trkpt>
      <trkpt lat="45.86344" lon="6.45216">
        <ele>2022.27</ele>
        <time>2010-01-23T11:57:18Z</time>
      </trkpt>
      <trkpt lat="45.86343" lon="6.45218">
        <ele>2017.94</ele>
        <time>2010-01-23T11:57:20Z</time>
      </trkpt>
      <trkpt lat="45.86342" lon="6.45219">
        <ele>2018.91</ele>
        <time>2010-01-23T11:57:21Z</time>
      </trkpt>
      <trkpt lat="45.8634" lon="6.45223">
        <ele>2016.02</ele>
        <time>2010-01-23T11:57:23Z</time>
      </trkpt>
      <trkpt lat="45.8634" lon="6.45225">
        <ele>2014.1</ele>
        <time>2010-01-23T11:57:25Z</time>
      </trkpt>
      <trkpt lat="45.86344" lon="6.45229">
        <ele>2014.1</ele>
        <time>2010-01-23T11:57:29Z</time>
      </trkpt>
      <trkpt lat="45.86338" lon="6.45232">
        <ele>2008.33</ele>
        <time>2010-01-23T11:57:32Z</time>
      </trkpt>
      <trkpt lat="45.86336" lon="6.45239">
        <ele>2005.45</ele>
        <time>2010-01-23T11:57:34Z</time>
      </trkpt>
      <trkpt lat="45.86341" lon="6.45251">
        <ele>1999.68</ele>
        <time>2010-01-23T11:57:37Z</time>
      </trkpt>
      <trkpt lat="45.86344" lon="6.45259">
        <ele>1994.87</ele>
        <time>2010-01-23T11:57:39Z</time>
      </trkpt>
      <trkpt lat="45.86345" lon="6.45264">
        <ele>1992.95</ele>
        <time>2010-01-23T11:57:41Z</time>
      </trkpt>
      <trkpt lat="45.86343" lon="6.45261">
        <ele>1993.91</ele>
        <time>2010-01-23T11:57:47Z</time>
      </trkpt>
      <trkpt lat="45.86344" lon="6.45261">
        <ele>1994.87</ele>
        <time>2010-01-23T11:58:07Z</time>
      </trkpt>
      <trkpt lat="45.86344" lon="6.45264">
        <ele>1989.59</ele>
        <time>2010-01-23T11:58:11Z</time>
      </trkpt>
      <trkpt lat="45.86346" lon="6.45276">
        <ele>1982.86</ele>
        <time>2010-01-23T11:58:13Z</time>
      </trkpt>
      <trkpt lat="45.86351" lon="6.45297">
        <ele>1975.65</ele>
        <time>2010-01-23T11:58:16Z</time>
      </trkpt>
      <trkpt lat="45.86352" lon="6.45312">
        <ele>1971.32</ele>
        <time>2010-01-23T11:58:18Z</time>
      </trkpt>
      <trkpt lat="45.86358" lon="6.45322">
        <ele>1964.59</ele>
        <time>2010-01-23T11:58:20Z</time>
      </trkpt>
      <trkpt lat="45.86367" lon="6.45323">
        <ele>1958.34</ele>
        <time>2010-01-23T11:58:22Z</time>
      </trkpt>
      <trkpt lat="45.86367" lon="6.45344">
        <ele>1952.09</ele>
        <time>2010-01-23T11:58:25Z</time>
      </trkpt>
      <trkpt lat="45.86369" lon="6.4535">
        <ele>1948.73</ele>
        <time>2010-01-23T11:58:26Z</time>
      </trkpt>
      <trkpt lat="45.86373" lon="6.45351">
        <ele>1945.85</ele>
        <time>2010-01-23T11:58:27Z</time>
      </trkpt>
      <trkpt lat="45.86386" lon="6.45336">
        <ele>1943.44</ele>
        <time>2010-01-23T11:58:32Z</time>
      </trkpt>
      <trkpt lat="45.86384" lon="6.45337">
        <ele>1942</ele>
        <time>2010-01-23T11:58:34Z</time>
      </trkpt>
      <trkpt lat="45.86384" lon="6.45338">
        <ele>1944.88</ele>
        <time>2010-01-23T11:58:37Z</time>
      </trkpt>
      <trkpt lat="45.86384" lon="6.45338">
        <ele>1943.44</ele>
        <time>2010-01-23T11:58:40Z</time>
      </trkpt>
      <trkpt lat="45.86386" lon="6.45337">
        <ele>1942.48</ele>
        <time>2010-01-23T11:58:42Z</time>
      </trkpt>
      <trkpt lat="45.86395" lon="6.45326">
        <ele>1936.71</ele>
        <time>2010-01-23T11:58:45Z</time>
      </trkpt>
      <trkpt lat="45.86402" lon="6.45315">
        <ele>1933.35</ele>
        <time>2010-01-23T11:58:47Z</time>
      </trkpt>
      <trkpt lat="45.86408" lon="6.45313">
        <ele>1929.02</ele>
        <time>2010-01-23T11:58:49Z</time>
      </trkpt>
      <trkpt lat="45.86413" lon="6.45319">
        <ele>1923.74</ele>
        <time>2010-01-23T11:58:51Z</time>
      </trkpt>
      <trkpt lat="45.86416" lon="6.45321">
        <ele>1923.74</ele>
        <time>2010-01-23T11:58:52Z</time>
      </trkpt>
      <trkpt lat="45.86431" lon="6.45323">
        <ele>1917.49</ele>
        <time>2010-01-23T11:58:56Z</time>
      </trkpt>
      <trkpt lat="45.86434" lon="6.45328">
        <ele>1912.68</ele>
        <time>2010-01-23T11:58:57Z</time>
      </trkpt>
      <trkpt lat="45.8644" lon="6.45337">
        <ele>1909.8</ele>
        <time>2010-01-23T11:59:00Z</time>
      </trkpt>
      <trkpt lat="45.86443" lon="6.45332">
        <ele>1909.8</ele>
        <time>2010-01-23T11:59:17Z</time>
      </trkpt>
      <trkpt lat="45.86445" lon="6.45331">
        <ele>1913.16</ele>
        <time>2010-01-23T11:59:30Z</time>
      </trkpt>
      <trkpt lat="45.86445" lon="6.45338">
        <ele>1908.35</ele>
        <time>2010-01-23T11:59:33Z</time>
      </trkpt>
      <trkpt lat="45.86444" lon="6.45345">
        <ele>1906.91</ele>
        <time>2010-01-23T11:59:34Z</time>
      </trkpt>
      <trkpt lat="45.86439" lon="6.45373">
        <ele>1902.11</ele>
        <time>2010-01-23T11:59:37Z</time>
      </trkpt>
      <trkpt lat="45.86434" lon="6.45395">
        <ele>1898.26</ele>
        <time>2010-01-23T11:59:41Z</time>
      </trkpt>
      <trkpt lat="45.86431" lon="6.45413">
        <ele>1898.74</ele>
        <time>2010-01-23T11:59:49Z</time>
      </trkpt>
      <trkpt lat="45.86425" lon="6.45422">
        <ele>1897.78</ele>
        <time>2010-01-23T11:59:58Z</time>
      </trkpt>
      <trkpt lat="45.86424" lon="6.45423">
        <ele>1899.22</ele>
        <time>2010-01-23T12:00:01Z</time>
      </trkpt>
      <trkpt lat="45.86424" lon="6.45427">
        <ele>1898.74</ele>
        <time>2010-01-23T12:00:03Z</time>
      </trkpt>
      <trkpt lat="45.86421" lon="6.45426">
        <ele>1897.3</ele>
        <time>2010-01-23T12:00:14Z</time>
      </trkpt>
      <trkpt lat="45.86418" lon="6.45446">
        <ele>1889.61</ele>
        <time>2010-01-23T12:00:18Z</time>
      </trkpt>
      <trkpt lat="45.86416" lon="6.45468">
        <ele>1885.76</ele>
        <time>2010-01-23T12:00:20Z</time>
      </trkpt>
      <trkpt lat="45.86421" lon="6.45487">
        <ele>1881.92</ele>
        <time>2010-01-23T12:00:22Z</time>
      </trkpt>
      <trkpt lat="45.86424" lon="6.45494">
        <ele>1876.63</ele>
        <time>2010-01-23T12:00:23Z</time>
      </trkpt>
      <trkpt lat="45.86435" lon="6.45503">
        <ele>1870.38</ele>
        <time>2010-01-23T12:00:26Z</time>
      </trkpt>
      <trkpt lat="45.86443" lon="6.45504">
        <ele>1863.65</ele>
        <time>2010-01-23T12:00:28Z</time>
      </trkpt>
      <trkpt lat="45.86448" lon="6.45505">
        <ele>1863.17</ele>
        <time>2010-01-23T12:00:29Z</time>
      </trkpt>
      <trkpt lat="45.86453" lon="6.45508">
        <ele>1858.85</ele>
        <time>2010-01-23T12:00:30Z</time>
      </trkpt>
      <trkpt lat="45.86461" lon="6.45512">
        <ele>1854.04</ele>
        <time>2010-01-23T12:00:32Z</time>
      </trkpt>
      <trkpt lat="45.86467" lon="6.45517">
        <ele>1850.68</ele>
        <time>2010-01-23T12:00:34Z</time>
      </trkpt>
      <trkpt lat="45.8647" lon="6.45522">
        <ele>1844.91</ele>
        <time>2010-01-23T12:00:35Z</time>
      </trkpt>
      <trkpt lat="45.86477" lon="6.4553">
        <ele>1840.1</ele>
        <time>2010-01-23T12:00:37Z</time>
      </trkpt>
      <trkpt lat="45.86481" lon="6.45533">
        <ele>1836.74</ele>
        <time>2010-01-23T12:00:38Z</time>
      </trkpt>
      <trkpt lat="45.86485" lon="6.45535">
        <ele>1833.37</ele>
        <time>2010-01-23T12:00:39Z</time>
      </trkpt>
      <trkpt lat="45.8649" lon="6.45537">
        <ele>1831.45</ele>
        <time>2010-01-23T12:00:40Z</time>
      </trkpt>
      <trkpt lat="45.865" lon="6.4554">
        <ele>1825.2</ele>
        <time>2010-01-23T12:00:42Z</time>
      </trkpt>
      <trkpt lat="45.86519" lon="6.45553">
        <ele>1815.59</ele>
        <time>2010-01-23T12:00:45Z</time>
      </trkpt>
      <trkpt lat="45.86536" lon="6.45562">
        <ele>1807.42</ele>
        <time>2010-01-23T12:00:48Z</time>
      </trkpt>
      <trkpt lat="45.86537" lon="6.45558">
        <ele>1805.97</ele>
        <time>2010-01-23T12:00:54Z</time>
      </trkpt>
      <trkpt lat="45.86538" lon="6.45559">
        <ele>1805.49</ele>
        <time>2010-01-23T12:01:01Z</time>
      </trkpt>
      <trkpt lat="45.86538" lon="6.45559">
        <ele>1809.34</ele>
        <time>2010-01-23T12:01:03Z</time>
      </trkpt>
      <trkpt lat="45.86538" lon="6.45558">
        <ele>1805.97</ele>
        <time>2010-01-23T12:01:09Z</time>
      </trkpt>
      <trkpt lat="45.86538" lon="6.45559">
        <ele>1805.49</ele>
        <time>2010-01-23T12:01:23Z</time>
      </trkpt>
      <trkpt lat="45.86537" lon="6.45559">
        <ele>1810.3</ele>
        <time>2010-01-23T12:01:51Z</time>
      </trkpt>
      <trkpt lat="45.86537" lon="6.45559">
        <ele>1806.94</ele>
        <time>2010-01-23T12:01:52Z</time>
      </trkpt>
      <trkpt lat="45.86537" lon="6.45559">
        <ele>1807.9</ele>
        <time>2010-01-23T12:01:55Z</time>
      </trkpt>
      <trkpt lat="45.86542" lon="6.45571">
        <ele>1805.97</ele>
        <time>2010-01-23T12:02:04Z</time>
      </trkpt>
      <trkpt lat="45.86543" lon="6.45574">
        <ele>1801.17</ele>
        <time>2010-01-23T12:02:05Z</time>
      </trkpt>
      <trkpt lat="45.86547" lon="6.45582">
        <ele>1795.88</ele>
        <time>2010-01-23T12:02:07Z</time>
      </trkpt>
      <trkpt lat="45.8655" lon="6.45586">
        <ele>1797.32</ele>
        <time>2010-01-23T12:02:08Z</time>
      </trkpt>
      <trkpt lat="45.86552" lon="6.45588">
        <ele>1792.52</ele>
        <time>2010-01-23T12:02:09Z</time>
      </trkpt>
      <trkpt lat="45.86555" lon="6.4559">
        <ele>1793.96</ele>
        <time>2010-01-23T12:02:10Z</time>
      </trkpt>
      <trkpt lat="45.86558" lon="6.45592">
        <ele>1787.71</ele>
        <time>2010-01-23T12:02:11Z</time>
      </trkpt>
      <trkpt lat="45.86564" lon="6.45594">
        <ele>1782.9</ele>
        <time>2010-01-23T12:02:13Z</time>
      </trkpt>
      <trkpt lat="45.86571" lon="6.45593">
        <ele>1778.1</ele>
        <time>2010-01-23T12:02:15Z</time>
      </trkpt>
      <trkpt lat="45.86575" lon="6.45592">
        <ele>1771.85</ele>
        <time>2010-01-23T12:02:16Z</time>
      </trkpt>
      <trkpt lat="45.86578" lon="6.45593">
        <ele>1771.85</ele>
        <time>2010-01-23T12:02:23Z</time>
      </trkpt>
      <trkpt lat="45.86578" lon="6.45592">
        <ele>1772.81</ele>
        <time>2010-01-23T12:02:46Z</time>
      </trkpt>
      <trkpt lat="45.86578" lon="6.45593">
        <ele>1770.41</ele>
        <time>2010-01-23T12:02:48Z</time>
      </trkpt>
      <trkpt lat="45.86584" lon="6.45598">
        <ele>1762.71</ele>
        <time>2010-01-23T12:02:51Z</time>
      </trkpt>
      <trkpt lat="45.86589" lon="6.45601">
        <ele>1757.91</ele>
        <time>2010-01-23T12:02:53Z</time>
      </trkpt>
      <trkpt lat="45.86594" lon="6.45602">
        <ele>1756.95</ele>
        <time>2010-01-23T12:02:55Z</time>
      </trkpt>
      <trkpt lat="45.86597" lon="6.45601">
        <ele>1751.66</ele>
        <time>2010-01-23T12:02:56Z</time>
      </trkpt>
      <trkpt lat="45.86603" lon="6.456">
        <ele>1745.41</ele>
        <time>2010-01-23T12:02:58Z</time>
      </trkpt>
      <trkpt lat="45.8661" lon="6.45604">
        <ele>1741.08</ele>
        <time>2010-01-23T12:03:00Z</time>
      </trkpt>
      <trkpt lat="45.86615" lon="6.45611">
        <ele>1737.24</ele>
        <time>2010-01-23T12:03:02Z</time>
      </trkpt>
      <trkpt lat="45.86616" lon="6.45612">
        <ele>1737.24</ele>
        <time>2010-01-23T12:03:03Z</time>
      </trkpt>
      <trkpt lat="45.86613" lon="6.45611">
        <ele>1740.6</ele>
        <time>2010-01-23T12:03:19Z</time>
      </trkpt>
      <trkpt lat="45.86614" lon="6.4561">
        <ele>1737.24</ele>
        <time>2010-01-23T12:03:21Z</time>
      </trkpt>
      <trkpt lat="45.86614" lon="6.4561">
        <ele>1738.2</ele>
        <time>2010-01-23T12:03:25Z</time>
      </trkpt>
      <trkpt lat="45.86615" lon="6.45612">
        <ele>1733.88</ele>
        <time>2010-01-23T12:03:27Z</time>
      </trkpt>
      <trkpt lat="45.86622" lon="6.45617">
        <ele>1729.55</ele>
        <time>2010-01-23T12:03:29Z</time>
      </trkpt>
      <trkpt lat="45.86631" lon="6.45618">
        <ele>1724.26</ele>
        <time>2010-01-23T12:03:32Z</time>
      </trkpt>
      <trkpt lat="45.86637" lon="6.45607">
        <ele>1721.86</ele>
        <time>2010-01-23T12:03:35Z</time>
      </trkpt>
      <trkpt lat="45.86638" lon="6.45607">
        <ele>1721.38</ele>
        <time>2010-01-23T12:03:39Z</time>
      </trkpt>
      <trkpt lat="45.86638" lon="6.45607">
        <ele>1722.34</ele>
        <time>2010-01-23T12:03:59Z</time>
      </trkpt>
      <trkpt lat="45.86639" lon="6.45608">
        <ele>1720.9</ele>
        <time>2010-01-23T12:04:02Z</time>
      </trkpt>
      <trkpt lat="45.86643" lon="6.45613">
        <ele>1716.57</ele>
        <time>2010-01-23T12:04:05Z</time>
      </trkpt>
      <trkpt lat="45.86644" lon="6.45616">
        <ele>1717.05</ele>
        <time>2010-01-23T12:04:06Z</time>
      </trkpt>
      <trkpt lat="45.86644" lon="6.45615">
        <ele>1713.21</ele>
        <time>2010-01-23T12:04:10Z</time>
      </trkpt>
      <trkpt lat="45.86644" lon="6.45615">
        <ele>1718.01</ele>
        <time>2010-01-23T12:04:11Z</time>
      </trkpt>
      <trkpt lat="45.86643" lon="6.45613">
        <ele>1716.09</ele>
        <time>2010-01-23T12:04:16Z</time>
      </trkpt>
      <trkpt lat="45.86644" lon="6.45608">
        <ele>1715.13</ele>
        <time>2010-01-23T12:04:18Z</time>
      </trkpt>
      <trkpt lat="45.86648" lon="6.45603">
        <ele>1711.28</ele>
        <time>2010-01-23T12:04:20Z</time>
      </trkpt>
      <trkpt lat="45.86651" lon="6.45601">
        <ele>1711.76</ele>
        <time>2010-01-23T12:04:21Z</time>
      </trkpt>
      <trkpt lat="45.86658" lon="6.456">
        <ele>1707.92</ele>
        <time>2010-01-23T12:04:23Z</time>
      </trkpt>
      <trkpt lat="45.86661" lon="6.45603">
        <ele>1708.4</ele>
        <time>2010-01-23T12:04:24Z</time>
      </trkpt>
      <trkpt lat="45.86664" lon="6.45609">
        <ele>1705.04</ele>
        <time>2010-01-23T12:04:25Z</time>
      </trkpt>
      <trkpt lat="45.86667" lon="6.45613">
        <ele>1702.15</ele>
        <time>2010-01-23T12:04:26Z</time>
      </trkpt>
      <trkpt lat="45.8667" lon="6.45618">
        <ele>1698.31</ele>
        <time>2010-01-23T12:04:27Z</time>
      </trkpt>
      <trkpt lat="45.86676" lon="6.45626">
        <ele>1696.86</ele>
        <time>2010-01-23T12:04:29Z</time>
      </trkpt>
      <trkpt lat="45.86678" lon="6.4563">
        <ele>1693.02</ele>
        <time>2010-01-23T12:04:30Z</time>
      </trkpt>
      <trkpt lat="45.86681" lon="6.45632">
        <ele>1691.1</ele>
        <time>2010-01-23T12:04:31Z</time>
      </trkpt>
      <trkpt lat="45.86699" lon="6.45638">
        <ele>1682.93</ele>
        <time>2010-01-23T12:04:35Z</time>
      </trkpt>
      <trkpt lat="45.86703" lon="6.45642">
        <ele>1681.96</ele>
        <time>2010-01-23T12:04:36Z</time>
      </trkpt>
      <trkpt lat="45.86716" lon="6.45654">
        <ele>1665.62</ele>
        <time>2010-01-23T12:04:42Z</time>
      </trkpt>
      <trkpt lat="45.86715" lon="6.45653">
        <ele>1672.35</ele>
        <time>2010-01-23T12:04:43Z</time>
      </trkpt>
      <trkpt lat="45.86714" lon="6.45652">
        <ele>1672.35</ele>
        <time>2010-01-23T12:04:57Z</time>
      </trkpt>
      <trkpt lat="45.86714" lon="6.45652">
        <ele>1676.2</ele>
        <time>2010-01-23T12:05:10Z</time>
      </trkpt>
      <trkpt lat="45.86714" lon="6.45652">
        <ele>1671.39</ele>
        <time>2010-01-23T12:05:12Z</time>
      </trkpt>
      <trkpt lat="45.86713" lon="6.45652">
        <ele>1670.91</ele>
        <time>2010-01-23T12:05:36Z</time>
      </trkpt>
      <trkpt lat="45.86713" lon="6.45651">
        <ele>1674.27</ele>
        <time>2010-01-23T12:05:54Z</time>
      </trkpt>
      <trkpt lat="45.86713" lon="6.45651">
        <ele>1669.95</ele>
        <time>2010-01-23T12:05:55Z</time>
      </trkpt>
      <trkpt lat="45.86713" lon="6.45651">
        <ele>1673.31</ele>
        <time>2010-01-23T12:05:57Z</time>
      </trkpt>
      <trkpt lat="45.86713" lon="6.45651">
        <ele>1672.35</ele>
        <time>2010-01-23T12:06:15Z</time>
      </trkpt>
      <trkpt lat="45.8672" lon="6.45654">
        <ele>1665.62</ele>
        <time>2010-01-23T12:06:18Z</time>
      </trkpt>
      <trkpt lat="45.86732" lon="6.4566">
        <ele>1662.74</ele>
        <time>2010-01-23T12:06:20Z</time>
      </trkpt>
      <trkpt lat="45.86737" lon="6.45663">
        <ele>1658.41</ele>
        <time>2010-01-23T12:06:21Z</time>
      </trkpt>
      <trkpt lat="45.8675" lon="6.45674">
        <ele>1652.16</ele>
        <time>2010-01-23T12:06:24Z</time>
      </trkpt>
      <trkpt lat="45.86754" lon="6.45677">
        <ele>1652.16</ele>
        <time>2010-01-23T12:06:25Z</time>
      </trkpt>
      <trkpt lat="45.86757" lon="6.4568">
        <ele>1647.36</ele>
        <time>2010-01-23T12:06:26Z</time>
      </trkpt>
      <trkpt lat="45.86765" lon="6.45685">
        <ele>1641.59</ele>
        <time>2010-01-23T12:06:28Z</time>
      </trkpt>
      <trkpt lat="45.86769" lon="6.45687">
        <ele>1642.55</ele>
        <time>2010-01-23T12:06:29Z</time>
      </trkpt>
      <trkpt lat="45.86774" lon="6.45689">
        <ele>1637.26</ele>
        <time>2010-01-23T12:06:30Z</time>
      </trkpt>
      <trkpt lat="45.86778" lon="6.4569">
        <ele>1636.3</ele>
        <time>2010-01-23T12:06:31Z</time>
      </trkpt>
      <trkpt lat="45.86793" lon="6.45696">
        <ele>1624.77</ele>
        <time>2010-01-23T12:06:34Z</time>
      </trkpt>
      <trkpt lat="45.86797" lon="6.45699">
        <ele>1623.8</ele>
        <time>2010-01-23T12:06:35Z</time>
      </trkpt>
      <trkpt lat="45.86813" lon="6.45705">
        <ele>1611.79</ele>
        <time>2010-01-23T12:06:38Z</time>
      </trkpt>
      <trkpt lat="45.86818" lon="6.45708">
        <ele>1612.75</ele>
        <time>2010-01-23T12:06:39Z</time>
      </trkpt>
      <trkpt lat="45.86828" lon="6.45715">
        <ele>1603.62</ele>
        <time>2010-01-23T12:06:41Z</time>
      </trkpt>
      <trkpt lat="45.86837" lon="6.45723">
        <ele>1597.85</ele>
        <time>2010-01-23T12:06:43Z</time>
      </trkpt>
      <trkpt lat="45.86841" lon="6.45728">
        <ele>1597.85</ele>
        <time>2010-01-23T12:06:44Z</time>
      </trkpt>
      <trkpt lat="45.86844" lon="6.45737">
        <ele>1596.41</ele>
        <time>2010-01-23T12:06:46Z</time>
      </trkpt>
      <trkpt lat="45.86843" lon="6.45736">
        <ele>1597.37</ele>
        <time>2010-01-23T12:06:51Z</time>
      </trkpt>
      <trkpt lat="45.86844" lon="6.45736">
        <ele>1597.85</ele>
        <time>2010-01-23T12:07:44Z</time>
      </trkpt>
      <trkpt lat="45.86846" lon="6.45744">
        <ele>1596.89</ele>
        <time>2010-01-23T12:07:47Z</time>
      </trkpt>
      <trkpt lat="45.86857" lon="6.4576">
        <ele>1588.24</ele>
        <time>2010-01-23T12:07:50Z</time>
      </trkpt>
      <trkpt lat="45.86863" lon="6.45764">
        <ele>1583.91</ele>
        <time>2010-01-23T12:07:51Z</time>
      </trkpt>
      <trkpt lat="45.86869" lon="6.45767">
        <ele>1583.43</ele>
        <time>2010-01-23T12:07:52Z</time>
      </trkpt>
      <trkpt lat="45.86875" lon="6.4577">
        <ele>1579.1</ele>
        <time>2010-01-23T12:07:53Z</time>
      </trkpt>
      <trkpt lat="45.86881" lon="6.45774">
        <ele>1573.82</ele>
        <time>2010-01-23T12:07:54Z</time>
      </trkpt>
      <trkpt lat="45.86893" lon="6.45783">
        <ele>1569.49</ele>
        <time>2010-01-23T12:07:56Z</time>
      </trkpt>
      <trkpt lat="45.86907" lon="6.45797">
        <ele>1560.36</ele>
        <time>2010-01-23T12:07:59Z</time>
      </trkpt>
      <trkpt lat="45.86911" lon="6.45802">
        <ele>1560.84</ele>
        <time>2010-01-23T12:08:00Z</time>
      </trkpt>
      <trkpt lat="45.86919" lon="6.45812">
        <ele>1557.47</ele>
        <time>2010-01-23T12:08:02Z</time>
      </trkpt>
      <trkpt lat="45.86928" lon="6.45825">
        <ele>1548.34</ele>
        <time>2010-01-23T12:08:04Z</time>
      </trkpt>
      <trkpt lat="45.86931" lon="6.45832">
        <ele>1549.3</ele>
        <time>2010-01-23T12:08:05Z</time>
      </trkpt>
      <trkpt lat="45.86933" lon="6.45846">
        <ele>1544.5</ele>
        <time>2010-01-23T12:08:07Z</time>
      </trkpt>
      <trkpt lat="45.8694" lon="6.4587">
        <ele>1544.98</ele>
        <time>2010-01-23T12:08:11Z</time>
      </trkpt>
      <trkpt lat="45.86944" lon="6.45884">
        <ele>1543.05</ele>
        <time>2010-01-23T12:08:13Z</time>
      </trkpt>
      <trkpt lat="45.86949" lon="6.45901">
        <ele>1539.69</ele>
        <time>2010-01-23T12:08:15Z</time>
      </trkpt>
      <trkpt lat="45.86958" lon="6.45931">
        <ele>1536.8</ele>
        <time>2010-01-23T12:08:18Z</time>
      </trkpt>
      <trkpt lat="45.86965" lon="6.45954">
        <ele>1532.96</ele>
        <time>2010-01-23T12:08:20Z</time>
      </trkpt>
      <trkpt lat="45.86969" lon="6.45964">
        <ele>1532.96</ele>
        <time>2010-01-23T12:08:21Z</time>
      </trkpt>
      <trkpt lat="45.86978" lon="6.45986">
        <ele>1529.59</ele>
        <time>2010-01-23T12:08:23Z</time>
      </trkpt>
      <trkpt lat="45.86987" lon="6.4601">
        <ele>1526.23</ele>
        <time>2010-01-23T12:08:25Z</time>
      </trkpt>
      <trkpt lat="45.86995" lon="6.46036">
        <ele>1522.87</ele>
        <time>2010-01-23T12:08:27Z</time>
      </trkpt>
      <trkpt lat="45.86999" lon="6.46048">
        <ele>1523.83</ele>
        <time>2010-01-23T12:08:28Z</time>
      </trkpt>
      <trkpt lat="45.87004" lon="6.46067">
        <ele>1522.87</ele>
        <time>2010-01-23T12:08:30Z</time>
      </trkpt>
      <trkpt lat="45.87016" lon="6.46093">
        <ele>1521.42</ele>
        <time>2010-01-23T12:08:38Z</time>
      </trkpt>
      <trkpt lat="45.87017" lon="6.46093">
        <ele>1524.79</ele>
        <time>2010-01-23T12:08:42Z</time>
      </trkpt>
      <trkpt lat="45.87017" lon="6.46093">
        <ele>1521.42</ele>
        <time>2010-01-23T12:08:43Z</time>
      </trkpt>
      <trkpt lat="45.87017" lon="6.46094">
        <ele>1525.27</ele>
        <time>2010-01-23T12:08:44Z</time>
      </trkpt>
      <trkpt lat="45.87017" lon="6.46095">
        <ele>1522.39</ele>
        <time>2010-01-23T12:08:46Z</time>
      </trkpt>
      <trkpt lat="45.87017" lon="6.46095">
        <ele>1522.39</ele>
        <time>2010-01-23T12:08:47Z</time>
      </trkpt>
      <trkpt lat="45.87016" lon="6.46095">
        <ele>1526.23</ele>
        <time>2010-01-23T12:08:49Z</time>
      </trkpt>
      <trkpt lat="45.87017" lon="6.46095">
        <ele>1522.87</ele>
        <time>2010-01-23T12:08:51Z</time>
      </trkpt>
      <trkpt lat="45.87017" lon="6.46095">
        <ele>1523.35</ele>
        <time>2010-01-23T12:08:52Z</time>
      </trkpt>
      <trkpt lat="45.87016" lon="6.46094">
        <ele>1523.35</ele>
        <time>2010-01-23T12:09:14Z</time>
      </trkpt>
      <trkpt lat="45.87019" lon="6.461">
        <ele>1523.83</ele>
        <time>2010-01-23T12:09:25Z</time>
      </trkpt>
      <trkpt lat="45.87019" lon="6.46101">
        <ele>1521.9</ele>
        <time>2010-01-23T12:09:26Z</time>
      </trkpt>
      <trkpt lat="45.8702" lon="6.46104">
        <ele>1521.9</ele>
        <time>2010-01-23T12:09:28Z</time>
      </trkpt>
      <trkpt lat="45.87026" lon="6.46112">
        <ele>1521.42</ele>
        <time>2010-01-23T12:09:32Z</time>
      </trkpt>
      <trkpt lat="45.8703" lon="6.46131">
        <ele>1520.94</ele>
        <time>2010-01-23T12:09:35Z</time>
      </trkpt>
      <trkpt lat="45.87052" lon="6.46154">
        <ele>1520.46</ele>
        <time>2010-01-23T12:09:41Z</time>
      </trkpt>
      <trkpt lat="45.87071" lon="6.46164">
        <ele>1518.06</ele>
        <time>2010-01-23T12:09:51Z</time>
      </trkpt>
      <trkpt lat="45.87078" lon="6.46165">
        <ele>1519.02</ele>
        <time>2010-01-23T12:09:53Z</time>
      </trkpt>
      <trkpt lat="45.87109" lon="6.46166">
        <ele>1515.18</ele>
        <time>2010-01-23T12:10:00Z</time>
      </trkpt>
      <trkpt lat="45.87134" lon="6.46167">
        <ele>1512.77</ele>
        <time>2010-01-23T12:10:03Z</time>
      </trkpt>
      <trkpt lat="45.8715" lon="6.46169">
        <ele>1510.85</ele>
        <time>2010-01-23T12:10:05Z</time>
      </trkpt>
      <trkpt lat="45.87175" lon="6.46184">
        <ele>1507</ele>
        <time>2010-01-23T12:10:08Z</time>
      </trkpt>
      <trkpt lat="45.8721" lon="6.46222">
        <ele>1504.12</ele>
        <time>2010-01-23T12:10:14Z</time>
      </trkpt>
      <trkpt lat="45.87238" lon="6.46251">
        <ele>1500.76</ele>
        <time>2010-01-23T12:10:22Z</time>
      </trkpt>
      <trkpt lat="45.87244" lon="6.46258">
        <ele>1504.12</ele>
        <time>2010-01-23T12:10:24Z</time>
      </trkpt>
      <trkpt lat="45.87249" lon="6.46267">
        <ele>1501.24</ele>
        <time>2010-01-23T12:10:27Z</time>
      </trkpt>
      <trkpt lat="45.87264" lon="6.46286">
        <ele>1502.2</ele>
        <time>2010-01-23T12:10:35Z</time>
      </trkpt>
      <trkpt lat="45.87287" lon="6.463">
        <ele>1500.27</ele>
        <time>2010-01-23T12:10:44Z</time>
      </trkpt>
      <trkpt lat="45.87294" lon="6.46309">
        <ele>1501.24</ele>
        <time>2010-01-23T12:10:48Z</time>
      </trkpt>
      <trkpt lat="45.87293" lon="6.46314">
        <ele>1503.16</ele>
        <time>2010-01-23T12:10:50Z</time>
      </trkpt>
      <trkpt lat="45.87293" lon="6.46315">
        <ele>1499.31</ele>
        <time>2010-01-23T12:10:51Z</time>
      </trkpt>
      <trkpt lat="45.87292" lon="6.46316">
        <ele>1503.64</ele>
        <time>2010-01-23T12:10:52Z</time>
      </trkpt>
      <trkpt lat="45.87293" lon="6.46314">
        <ele>1500.27</ele>
        <time>2010-01-23T12:10:57Z</time>
      </trkpt>
      <trkpt lat="45.87293" lon="6.46314">
        <ele>1500.27</ele>
        <time>2010-01-23T12:11:23Z</time>
      </trkpt>
      <trkpt lat="45.87293" lon="6.46314">
        <ele>1500.27</ele>
        <time>2010-01-23T12:11:52Z</time>
      </trkpt>
      <trkpt lat="45.87293" lon="6.46313">
        <ele>1500.76</ele>
        <time>2010-01-23T12:12:29Z</time>
      </trkpt>
      <trkpt lat="45.87293" lon="6.46314">
        <ele>1501.24</ele>
        <time>2010-01-23T12:12:39Z</time>
      </trkpt>
      <trkpt lat="45.87293" lon="6.46312">
        <ele>1501.24</ele>
        <time>2010-01-23T12:13:12Z</time>
      </trkpt>
      <trkpt lat="45.87294" lon="6.46311">
        <ele>1501.24</ele>
        <time>2010-01-23T12:13:49Z</time>
      </trkpt>
      <trkpt lat="45.87294" lon="6.46311">
        <ele>1501.72</ele>
        <time>2010-01-23T12:14:46Z</time>
      </trkpt>
      <trkpt lat="45.87294" lon="6.46311">
        <ele>1500.27</ele>
        <time>2010-01-23T12:14:55Z</time>
      </trkpt>
      <trkpt lat="45.87295" lon="6.46311">
        <ele>1501.72</ele>
        <time>2010-01-23T12:16:12Z</time>
      </trkpt>
      <trkpt lat="45.87294" lon="6.46311">
        <ele>1501.24</ele>
        <time>2010-01-23T12:16:40Z</time>
      </trkpt>
      <trkpt lat="45.87296" lon="6.46315">
        <ele>1500.27</ele>
        <time>2010-01-23T12:18:16Z</time>
      </trkpt>
      <trkpt lat="45.87296" lon="6.46315">
        <ele>1501.72</ele>
        <time>2010-01-23T12:18:30Z</time>
      </trkpt>
      <trkpt lat="45.87295" lon="6.46316">
        <ele>1500.27</ele>
        <time>2010-01-23T12:19:03Z</time>
      </trkpt>
      <trkpt lat="45.87295" lon="6.46316">
        <ele>1501.72</ele>
        <time>2010-01-23T12:19:29Z</time>
      </trkpt>
      <trkpt lat="45.87295" lon="6.46317">
        <ele>1501.72</ele>
        <time>2010-01-23T12:19:52Z</time>
      </trkpt>
      <trkpt lat="45.87296" lon="6.46316">
        <ele>1502.2</ele>
        <time>2010-01-23T12:20:14Z</time>
      </trkpt>
      <trkpt lat="45.87297" lon="6.46316">
        <ele>1500.76</ele>
        <time>2010-01-23T12:20:27Z</time>
      </trkpt>
      <trkpt lat="45.87297" lon="6.46315">
        <ele>1501.72</ele>
        <time>2010-01-23T12:20:56Z</time>
      </trkpt>
      <trkpt lat="45.87297" lon="6.46313">
        <ele>1501.72</ele>
        <time>2010-01-23T12:21:16Z</time>
      </trkpt>
      <trkpt lat="45.87297" lon="6.46313">
        <ele>1500.76</ele>
        <time>2010-01-23T12:21:35Z</time>
      </trkpt>
      <trkpt lat="45.87298" lon="6.46318">
        <ele>1501.24</ele>
        <time>2010-01-23T12:23:54Z</time>
      </trkpt>
      <trkpt lat="45.87298" lon="6.46317">
        <ele>1504.12</ele>
        <time>2010-01-23T12:25:51Z</time>
      </trkpt>
      <trkpt lat="45.87298" lon="6.46317">
        <ele>1501.72</ele>
        <time>2010-01-23T12:25:53Z</time>
      </trkpt>
    </trkseg>
  </trk>
</gpx>